[[{"header":{"parameterUnit":"m.s-1","parameterCategory":1,"la1":30.6,"la2":29.2853,"lo1":-89.7004,"lo2":-87.6739,"dx":0.0162,"dy":0.0183,"nx":112,"ny":82,"refTime":"2023-02-10T18:00:00:Z","depth":0,"parameterNumber":2,"parameterNumberName":"U-component_of_WINDS"},"data":[0.0,0.0,0.0,0.0,0.0,0.0,0.0,0.0,0.0,0.0,0.0,0.0,0.0,0.0,0.0,0.0,0.0,0.0,0.0,0.0,0.0,0.0,0.0,0.0,0.0,0.0,0.0,0.0,0.0,0.0,0.0,0.0,0.0,0.0,0.0,0.0,0.0,0.0,0.0,0.0,0.0,0.0,0.0,0.0,0.0,0.0,0.0,0.0,0.0,0.0,0.0,0.0,0.0,0.0,0.0,0.0,0.0,0.0,0.0,0.0,0.0,0.0,0.0,0.0,0.0,0.0,0.0,0.0,0.0,0.0,0.0,0.0,0.0,0.0,0.0,0.0,0.0,0.0,0.0,0.0,0.0,0.0,0.0,0.0,0.0,0.0,0.0,0.0,0.0,0.0,0.0,1.8211,2.0605,2.2642,2.3884,2.3321,2.1963,1.9733,0.0,0.0,0.0,0.0,0.0,0.0,0.0,0.0,0.0,0.0,0.0,0.0,0.0,0.0,0.0,0.0,0.0,0.0,0.0,0.0,0.0,0.0,0.0,0.0,0.0,0.0,0.0,0.0,0.0,0.0,0.0,0.0,0.0,0.0,0.0,0.0,0.0,0.0,0.0,0.0,0.0,0.0,0.0,0.0,0.0,0.0,0.0,0.0,0.0,0.0,0.0,0.0,0.0,0.0,0.0,0.0,0.0,0.0,0.0,0.0,0.0,0.0,0.0,0.0,0.0,0.0,0.0,0.0,0.0,0.0,0.0,0.0,0.0,0.0,0.0,0.0,0.0,0.0,0.0,0.0,0.0,0.0,0.0,0.0,0.0,0.0,0.0,0.0,0.0,0.0,0.0,0.0,0.0,0.0,0.0,0.0,0.0,0.0,0.0,0.0,0.0,0.0,0.0,0.0,1.7863,2.1665,2.3023,2.3768,2.3984,2.3321,2.1963,1.9733,0.0,0.0,0.0,0.0,0.0,0.0,0.0,0.0,0.0,0.0,0.0,0.0,0.0,0.0,0.0,0.0,0.0,0.0,0.0,0.0,0.0,0.0,0.0,0.0,0.0,0.0,0.0,0.0,0.0,0.0,0.0,0.0,0.0,0.0,0.0,0.0,0.0,0.0,0.0,0.0,0.0,0.0,0.0,0.0,0.0,0.0,0.0,0.0,0.0,0.0,0.0,0.0,0.0,0.0,0.0,0.0,0.0,0.0,0.0,0.0,0.0,0.0,0.0,0.0,0.0,0.0,0.0,0.0,0.0,0.0,0.0,0.0,0.0,0.0,0.0,0.0,0.0,0.0,0.0,0.0,0.0,0.0,0.0,0.0,0.0,0.0,0.0,0.0,0.0,0.0,0.0,0.0,0.0,0.0,0.0,0.0,0.0,0.0,0.0,0.0,0.0,0.0,0.0,1.6547,1.8468,2.246,2.2841,2.2957,2.3371,2.2725,2.1532,1.97,1.9926,0.0,0.0,0.0,0.0,0.0,0.0,0.0,0.0,0.0,0.0,0.0,0.0,0.0,0.0,0.0,0.0,0.0,0.0,0.0,0.0,0.0,0.0,0.0,0.0,0.0,0.0,0.0,0.0,0.0,0.0,0.0,0.0,0.0,0.0,0.0,0.0,0.0,0.0,0.0,0.0,0.0,0.0,0.0,0.0,0.0,0.0,0.0,0.0,0.0,0.0,0.0,0.0,0.0,0.0,0.0,0.0,0.0,0.0,0.0,0.0,0.0,0.0,0.0,0.0,0.0,0.0,0.0,0.0,0.0,0.0,0.0,0.0,0.0,0.0,0.0,0.0,0.0,0.0,0.0,0.0,0.0,0.0,0.0,0.0,0.0,0.0,0.0,0.0,0.0,0.0,0.0,0.0,0.0,0.0,0.0,0.0,0.0,0.0,0.0,0.0,0.0,0.0,1.8038,1.9595,2.2576,2.2394,2.2278,2.2841,2.2212,2.1168,1.9684,1.9654,0.0,0.0,0.0,0.0,0.0,0.0,0.0,0.0,0.0,0.0,0.0,0.0,0.0,0.0,0.0,0.0,0.0,0.0,0.0,0.0,0.0,0.0,0.0,0.0,0.0,0.0,0.0,0.0,0.0,0.0,0.0,0.0,0.0,0.0,0.0,0.0,0.0,0.0,0.0,0.0,0.0,0.0,0.0,0.0,0.0,0.0,0.0,0.0,0.0,0.0,0.0,0.0,0.0,0.0,0.0,0.0,0.0,0.0,0.0,0.0,0.0,0.0,0.0,0.0,0.0,0.0,0.0,0.0,0.0,0.0,0.0,0.0,0.0,0.0,0.0,0.0,0.0,0.0,0.0,0.0,0.0,0.0,0.0,0.0,0.0,0.0,0.0,0.0,0.0,0.0,0.0,0.0,0.0,0.0,0.0,0.0,0.0,0.0,0.0,0.0,0.0,0.0,1.9793,2.1847,2.2791,2.2841,2.2841,2.2891,2.2212,2.1168,1.9684,1.9822,0.0,0.0,0.0,0.0,0.0,0.0,0.0,0.0,0.0,0.0,0.0,0.0,0.0,0.0,0.0,0.0,0.0,0.0,0.0,0.0,0.0,0.0,0.0,0.0,0.0,0.0,0.0,0.0,0.0,0.0,0.0,0.0,0.0,0.0,0.0,0.0,0.0,0.0,0.0,0.0,0.0,0.0,0.0,0.0,0.0,0.0,0.0,0.0,0.0,0.0,0.0,0.0,0.0,0.0,0.0,0.0,0.0,0.0,0.0,0.0,0.0,0.0,0.0,0.0,0.0,0.0,0.0,0.0,0.0,0.0,0.0,0.0,0.0,0.0,0.0,0.0,0.0,0.0,0.0,0.0,0.0,0.0,0.0,0.0,0.0,0.0,0.0,0.0,0.0,0.0,0.0,0.0,0.0,0.0,0.0,0.0,0.0,0.0,0.0,0.0,0.0,0.0,1.9452,2.0903,0.0,2.2195,2.2225,2.2255,2.1976,2.1197,1.9764,0.0,0.0,0.0,0.0,0.0,0.0,0.0,0.0,0.0,0.0,0.0,0.0,0.0,0.0,0.0,0.0,0.0,0.0,0.0,0.0,0.0,0.0,0.0,0.0,0.0,0.0,0.0,0.0,0.0,0.0,0.0,0.0,0.0,0.0,0.0,0.0,0.0,0.0,0.0,0.0,0.0,0.0,0.0,0.0,0.0,0.0,0.0,0.0,0.0,0.0,0.0,0.0,0.0,0.0,0.0,0.0,0.0,0.0,0.0,0.0,0.0,0.0,0.0,0.0,0.0,0.0,0.0,0.0,0.0,0.0,0.0,0.0,0.0,0.0,0.0,0.0,0.0,0.0,0.0,0.0,0.0,0.0,0.0,0.0,0.0,0.0,0.0,0.0,0.0,0.0,0.0,0.0,0.0,0.0,0.0,0.0,0.0,0.0,0.0,0.0,0.0,0.0,1.8377,1.9535,2.0688,0.0,2.1797,2.1811,2.1869,2.184,2.1226,1.9774,0.0,0.0,0.0,0.0,0.0,0.0,0.0,0.0,0.0,0.0,0.0,0.0,0.0,0.0,0.0,0.0,0.0,0.0,0.0,0.0,0.0,0.0,0.0,0.0,0.0,0.0,0.0,0.0,0.0,0.0,0.0,0.0,0.0,0.0,0.0,0.0,0.0,0.0,0.0,0.0,0.0,0.0,0.0,0.0,0.0,0.0,0.0,0.0,0.0,0.0,0.0,0.0,0.0,0.0,0.0,0.0,0.0,0.0,0.0,0.0,0.0,0.0,0.0,0.0,0.0,0.0,0.0,0.0,0.0,0.0,0.0,0.0,0.0,0.0,0.0,0.0,0.0,0.0,0.0,0.0,0.0,0.0,0.0,0.0,0.0,0.0,0.0,0.0,0.0,0.0,0.0,0.0,0.0,0.0,0.0,0.0,0.0,0.0,0.0,0.0,0.0,0.0,1.8509,2.0439,2.1797,2.1797,2.1797,2.1797,2.1781,2.1869,2.1266,0.0,0.0,0.0,0.0,0.0,0.0,0.0,0.0,0.0,0.0,0.0,0.0,0.0,0.0,0.0,0.0,0.0,0.0,0.0,0.0,0.0,0.0,0.0,0.0,0.0,0.0,0.0,0.0,0.0,0.0,0.0,0.0,0.0,0.0,0.0,0.0,0.0,0.0,0.0,0.0,0.0,0.0,0.0,0.0,0.0,0.0,0.0,0.0,0.0,0.0,0.0,0.0,0.0,0.0,0.0,0.0,0.0,0.0,0.0,0.0,0.0,0.0,0.0,0.0,0.0,0.0,0.0,0.0,0.0,0.0,0.0,0.0,0.0,0.0,0.0,0.0,0.0,0.0,0.0,0.0,0.0,0.0,0.0,0.0,0.0,0.0,0.0,0.0,0.0,0.0,0.0,0.0,0.0,0.0,0.0,0.0,0.0,0.0,0.0,0.0,0.0,0.0,0.0,0.0,2.0754,2.1811,2.1869,2.1869,2.1945,2.2065,2.2015,2.1435,2.0187,0.0,0.0,0.0,0.0,0.0,0.0,0.0,0.0,0.0,0.0,0.0,0.0,0.0,0.0,0.0,0.0,0.0,0.0,0.0,0.0,0.0,0.0,0.0,0.0,0.0,0.0,0.0,0.0,0.0,0.0,0.0,0.0,0.0,0.0,0.0,0.0,0.0,0.0,0.0,0.0,0.0,0.0,0.0,0.0,0.0,0.0,0.0,0.0,0.0,0.0,0.0,0.0,0.0,0.0,0.0,0.0,0.0,0.0,0.0,0.0,0.0,0.0,0.0,0.0,0.0,0.0,0.0,0.0,0.0,0.0,0.0,0.0,0.0,0.0,0.0,0.0,0.0,0.0,0.0,0.0,0.0,0.0,0.0,0.0,0.0,0.0,0.0,0.0,0.0,0.0,0.0,0.0,0.0,0.0,0.0,0.0,0.0,0.0,0.0,0.0,0.0,0.0,1.9601,2.0886,2.1827,2.1882,2.1899,2.1957,2.2106,2.2106,2.1669,2.0637,0.0,0.0,0.0,0.0,0.0,0.0,0.0,0.0,0.0,0.0,0.0,0.0,0.0,0.0,0.0,0.0,0.0,0.0,0.0,0.0,0.0,0.0,0.0,0.0,0.0,0.0,0.0,0.0,0.0,0.0,0.0,0.0,0.0,0.0,0.0,0.0,0.0,0.0,0.0,0.0,0.0,0.0,0.0,0.0,0.0,0.0,0.0,0.0,0.0,0.0,0.0,0.0,0.0,0.0,0.0,0.0,0.0,0.0,0.0,0.0,0.0,0.0,0.0,0.0,0.0,0.0,0.0,0.0,0.0,0.0,0.0,0.0,0.0,0.0,0.0,0.0,0.0,0.0,0.0,0.0,0.0,0.0,0.0,0.0,0.0,0.0,0.0,0.0,0.0,0.0,0.0,0.0,0.0,0.0,0.0,0.0,0.0,0.0,0.0,0.0,0.0,0.0,1.9601,2.0886,2.184,2.1899,2.1928,2.1957,2.2027,2.2152,2.1877,2.1097,0.0,0.0,0.0,0.0,0.0,0.0,0.0,0.0,0.0,0.0,0.0,0.0,0.0,0.0,0.0,0.0,0.0,0.0,0.0,0.0,0.0,0.0,0.0,0.0,0.0,0.0,0.0,0.0,0.0,0.0,0.0,0.0,0.0,0.0,0.0,0.0,0.0,0.0,0.0,0.0,0.0,0.0,0.0,0.0,0.0,0.0,0.0,0.0,0.0,0.0,0.0,0.0,0.0,0.0,0.0,0.0,0.0,0.0,0.0,0.0,1.2986,0.0,0.0,0.0,0.0,0.0,0.0,0.0,0.0,0.0,0.0,0.0,0.0,0.0,0.0,0.0,0.0,0.0,0.0,0.0,0.0,0.0,0.0,0.0,0.0,0.0,0.0,0.0,0.0,0.0,0.0,0.0,0.0,0.0,0.0,0.0,0.0,0.0,0.0,0.0,0.0,0.0,1.9601,2.0943,2.1882,2.1969,2.2077,2.2152,2.2237,2.2254,2.2044,2.143,0.0,0.0,0.0,0.0,0.0,0.0,0.0,0.0,0.0,0.0,0.0,0.0,0.0,0.0,0.0,0.0,0.0,0.0,0.0,0.0,0.0,0.0,0.0,0.0,0.0,0.0,0.0,0.0,0.0,0.0,0.0,0.0,0.0,0.0,0.0,0.0,0.0,0.0,0.0,0.0,0.0,0.0,0.0,0.0,0.0,0.0,0.0,0.0,0.0,0.0,0.0,0.0,0.0,0.0,0.0,0.0,0.0,0.0,0.0,0.0,0.0,1.4519,0.0,0.0,0.0,0.0,0.0,0.0,0.0,0.0,0.0,0.0,0.0,0.0,0.0,0.0,0.0,0.0,0.0,0.0,0.0,0.0,0.0,0.0,0.0,0.0,0.0,0.0,0.0,0.0,0.0,0.0,0.0,0.0,0.0,0.0,0.0,0.0,0.0,0.0,0.0,0.0,1.9601,2.0915,2.1899,2.1998,2.2044,2.2163,2.2282,2.231,2.2169,2.1898,2.1679,0.0,0.0,0.0,0.0,0.0,0.0,0.0,0.0,0.0,0.0,0.0,0.0,0.0,0.0,0.0,0.0,0.0,0.0,0.0,0.0,0.0,0.0,0.0,0.0,0.0,0.0,0.0,0.0,0.0,0.0,0.0,0.0,0.0,0.0,0.0,0.0,0.0,0.0,0.0,0.0,0.0,0.0,0.0,0.0,0.0,0.0,0.0,0.0,0.0,0.0,0.0,0.0,0.0,0.0,0.0,1.8261,1.8261,1.8551,1.8982,1.73,1.677,1.7008,0.0,0.0,0.0,0.0,0.0,0.0,0.0,0.0,0.0,0.0,0.0,0.0,0.0,0.0,0.0,0.0,0.0,0.0,0.0,0.0,0.0,0.0,0.0,0.0,0.0,2.1242,2.1545,0.0,0.0,0.0,0.0,0.0,0.0,0.0,0.0,0.0,0.0,0.0,0.0,1.9992,2.1342,2.2232,2.2245,2.2228,2.2252,2.2299,2.231,2.231,2.231,2.21,2.1917,0.0,0.0,0.0,0.0,0.0,0.0,0.0,0.0,0.0,0.0,0.0,0.0,0.0,0.0,0.0,0.0,0.0,0.0,0.0,0.0,0.0,0.0,0.0,0.0,0.0,0.0,0.0,0.0,0.0,0.0,0.0,0.0,1.4485,1.4854,0.0,0.0,0.0,0.0,0.0,0.0,0.0,0.0,0.0,0.0,0.0,0.0,0.0,0.0,1.7067,1.7839,1.8526,1.9187,1.9926,2.0605,2.1218,2.1218,2.1267,2.133,2.0663,0.0,1.8294,1.8426,0.0,0.0,0.0,0.0,0.0,0.0,0.0,0.0,0.0,0.0,0.0,0.0,0.0,0.0,0.0,0.0,0.0,0.0,0.0,0.0,0.0,0.0,2.2987,2.3714,2.3968,2.4019,0.0,2.2293,2.0656,1.9976,0.0,0.0,0.0,0.0,0.0,0.0,0.0,0.0,2.1611,2.3083,2.3829,2.3207,2.3182,2.2958,2.2361,2.231,2.231,2.231,2.2265,2.1963,2.1326,2.1666,0.0,0.0,0.0,0.0,0.0,0.0,0.0,0.0,0.0,0.0,0.0,0.0,0.0,0.0,0.0,0.0,0.0,0.0,0.0,0.0,0.0,0.0,0.0,0.0,0.0,0.0,0.0,0.0,0.0,1.3962,1.4277,1.4455,1.3981,1.3585,0.0,0.0,0.0,0.0,0.0,0.0,0.0,0.0,0.0,1.8137,1.8203,1.875,1.992,2.0621,2.1135,2.1466,2.2195,2.2725,2.304,2.304,2.304,2.3007,2.2815,2.2285,2.1479,1.9715,1.8683,1.8168,0.0,0.0,0.0,0.0,0.0,1.8186,2.0012,0.0,0.0,0.0,0.0,0.0,0.0,0.0,0.0,0.0,0.0,0.0,0.0,0.0,0.0,2.4337,2.4506,2.4506,2.4506,2.4022,2.322,0.0,2.1771,2.1383,2.0279,0.0,0.0,0.0,0.0,0.0,2.2622,2.3636,2.4219,2.3961,2.3941,2.3853,2.3562,2.3528,2.3528,2.3528,2.3687,2.3487,2.292,2.3242,2.2975,0.0,0.0,0.0,0.0,0.0,0.0,0.0,0.0,0.0,0.0,0.0,0.0,0.0,0.0,0.0,0.0,0.0,0.0,0.0,0.0,0.0,0.0,0.0,0.0,0.0,0.0,0.0,0.0,1.4377,1.473,1.4345,1.4507,1.4356,0.0,0.0,0.0,0.0,0.0,0.0,1.7096,1.7193,1.8203,2.0362,2.0428,2.1069,2.2344,2.2907,2.3272,2.347,2.4216,2.4663,2.4845,2.5044,2.5127,2.5094,2.4729,2.4564,2.4332,2.1377,2.0274,2.0391,1.9394,1.926,0.0,2.0069,2.0149,2.041,2.2734,2.2934,2.2358,2.3513,0.0,2.1852,2.219,0.0,0.0,0.0,0.0,2.2211,2.3608,0.0,2.4137,2.4881,2.5082,2.5082,2.5082,2.5355,2.5188,0.0,2.3334,2.2777,2.1866,0.0,0.0,0.0,0.0,2.3583,2.3768,2.4454,2.4856,2.4734,2.4717,2.4633,2.4492,2.4506,2.4506,2.4506,2.4761,2.4763,2.4427,2.4729,2.4622,0.0,0.0,0.0,0.0,0.0,0.0,0.0,0.0,0.0,0.0,0.0,0.0,0.0,0.0,0.0,0.0,0.0,0.0,0.0,0.0,0.0,0.0,0.0,0.0,0.0,0.0,0.0,0.0,0.0,0.0,1.5319,1.6357,0.0,0.0,0.0,0.0,1.6165,1.6921,1.7988,1.9353,1.9435,2.0444,2.2659,2.2725,2.3106,2.3884,2.3934,2.4299,2.5011,2.5756,2.6452,2.7168,2.7881,2.8196,2.8075,2.67,2.6104,2.5957,2.4245,2.3586,2.358,2.2625,2.2782,2.3428,2.2715,2.3386,2.4697,2.486,2.5344,2.5837,2.5131,2.4335,2.3771,2.4288,2.3955,0.0,0.0,2.3911,2.4029,2.5195,2.549,2.5693,2.6404,2.6573,2.6573,2.6573,2.6065,2.5372,0.0,2.4983,2.4983,2.3528,0.0,0.0,2.3173,2.386,2.4601,2.5293,2.6067,2.6319,2.5625,2.5558,2.527,2.4574,2.4506,2.4506,2.4506,2.4807,2.4965,2.4959,2.5455,2.5361,2.4581,2.4807,0.0,0.0,0.0,0.0,0.0,0.0,0.0,0.0,0.0,0.0,0.0,0.0,0.0,0.0,0.0,0.0,0.0,0.0,0.0,0.0,0.0,0.0,0.0,0.0,0.0,0.0,0.0,0.0,1.7321,1.8564,0.0,0.0,1.8656,1.9095,1.9147,2.0274,2.14,2.2394,2.2891,2.3735,2.4994,2.5027,2.5375,2.6139,2.6104,2.6468,2.7214,2.7479,2.7744,2.803,2.8296,2.8412,2.8395,2.7827,2.7611,2.7533,2.6657,2.5433,2.4045,2.3722,2.416,2.4941,2.4836,2.546,2.6462,2.7123,2.7397,2.7341,2.6748,2.6005,2.5475,2.6201,2.5611,2.5004,2.634,2.5871,2.5371,2.692,2.7181,2.7097,2.7368,2.7807,2.8027,2.7537,2.7604,2.7706,2.7435,2.642,2.5439,2.4915,2.5171,2.534,2.4867,2.5407,2.5982,2.6252,2.6539,2.659,2.6336,2.6302,2.6201,2.593,2.5913,2.5913,2.5913,2.6026,2.6055,2.597,2.6651,2.6819,2.6405,2.7007,2.6675,0.0,0.0,0.0,0.0,0.0,0.0,0.0,0.0,0.0,0.0,0.0,0.0,0.0,0.0,0.0,0.0,0.0,0.0,0.0,0.0,0.0,0.0,0.0,0.0,0.0,0.0,1.9135,1.8844,2.0553,2.1374,2.0416,2.1424,2.2134,2.2178,2.3321,2.4332,2.506,2.5574,2.617,2.6916,2.6949,2.7181,2.7682,2.7682,2.7931,2.8412,2.8622,2.8738,2.8738,2.8986,2.9102,2.9085,2.8837,2.8738,2.871,2.8135,2.7038,2.5681,2.5341,2.5883,2.6847,2.7018,2.7596,2.8342,2.8911,2.9017,2.8831,2.8389,2.7976,2.7749,2.827,2.7897,2.7494,2.8479,2.7949,2.7293,2.8271,2.8372,2.8213,2.8213,2.8602,2.8839,2.8332,2.8619,2.9011,2.9011,2.7774,2.6742,2.6742,2.7148,2.7215,2.6471,2.6996,2.7368,2.7114,2.73,2.7469,2.7469,2.7469,2.7469,2.7469,2.7232,2.7182,2.7452,2.7196,2.7227,2.7654,2.7904,2.8058,2.8214,2.8739,2.8485,2.7417,0.0,0.0,0.0,0.0,0.0,0.0,0.0,0.0,0.0,0.0,0.0,0.0,0.0,0.0,0.0,0.0,0.0,0.0,0.0,0.0,0.0,0.0,0.0,1.7511,1.9388,2.0598,1.9937,2.238,2.357,2.2129,2.3934,2.5209,2.5209,2.5889,2.6617,2.7367,2.7433,2.7781,2.8495,2.8489,2.8489,2.8489,2.8489,2.8528,2.8561,2.9168,2.9483,2.9499,3.0195,3.0526,3.0477,2.9764,2.945,2.94,2.8721,2.8577,2.8636,2.7622,2.8058,2.9236,2.9231,2.9775,3.045,3.0103,3.0211,3.0445,3.0099,3.0225,3.0487,3.0553,3.0722,3.08,3.0207,3.0001,2.9839,2.9208,2.9045,2.9008,2.9008,2.9025,2.9042,2.9062,2.9096,2.9076,2.9096,2.9113,2.9059,2.8991,2.9011,2.8738,2.7941,2.8501,0.0,2.796,2.8518,2.9011,2.9011,2.9011,2.9011,2.9011,2.8298,2.818,2.8977,2.8221,2.8438,2.9962,2.9142,2.9021,2.9834,2.9789,2.9816,2.9816,0.0,0.0,0.0,0.0,0.0,0.0,0.0,0.0,0.0,0.0,0.0,0.0,0.0,0.0,0.0,0.0,0.0,0.0,0.0,0.0,0.0,0.0,2.0644,2.052,2.2432,2.4199,2.5077,2.6369,2.7015,2.6601,2.7114,2.7479,2.7479,2.8125,2.8853,2.9582,3.0145,3.0526,3.0725,3.0725,3.0725,3.0725,3.0725,3.099,3.1504,3.1172,3.0981,3.0964,3.0634,3.0526,3.051,3.0311,3.0212,3.0195,3.0013,2.9656,2.9154,2.8521,2.8932,2.9831,2.9848,3.0328,3.1072,3.1481,3.1333,3.1006,3.141,3.1082,3.0606,3.1141,3.0614,2.9959,3.0602,3.0075,2.9383,2.9949,2.9938,2.9803,2.9803,3.0209,3.0446,2.9905,3.0632,3.1207,3.0683,3.1021,3.0891,2.9299,2.9011,2.8907,2.8687,0.0,0.0,2.8687,2.8839,2.9011,2.9011,2.9011,2.9011,2.9011,2.9023,2.9111,0.0,2.9423,2.9717,3.0338,3.0123,3.0214,3.0659,3.0106,2.9816,0.0,0.0,0.0,0.0,0.0,0.0,0.0,0.0,0.0,0.0,0.0,0.0,0.0,0.0,0.0,0.0,0.0,0.0,0.0,0.0,0.0,0.0,2.1612,2.3473,2.4762,2.5574,2.6435,2.7632,2.8373,2.8936,2.9251,2.9549,2.9864,3.0162,3.0559,3.0974,3.1404,3.1835,3.2067,3.2067,3.2067,3.2067,3.2067,3.2067,3.2282,3.268,3.1967,3.1785,3.205,3.1321,3.0974,0.0,3.0974,3.0808,3.0526,3.0526,3.0444,0.0,0.0,0.0,0.0,0.0,3.1165,3.1674,3.1804,3.1618,3.1377,3.17,3.1532,3.1314,3.1557,3.1265,3.0886,3.1255,3.0765,3.0216,3.068,3.0904,3.1021,3.1021,3.1579,3.2002,3.1579,3.2154,3.2628,3.2205,0.0,0.0,3.0649,3.0108,2.9803,2.9499,2.9719,2.9803,0.0,2.9719,2.9905,2.9905,2.9905,2.9905,2.9905,2.9822,0.0,0.0,0.0,3.0001,3.0463,0.0,0.0,0.0,0.0,3.1473,0.0,0.0,0.0,0.0,3.0152,2.9644,0.0,0.0,0.0,0.0,0.0,0.0,0.0,0.0,0.0,0.0,0.0,0.0,0.0,0.0,0.0,0.0,2.3951,2.6392,2.9228,2.8638,2.8163,2.8826,2.94,3.0046,3.0692,3.1355,3.2017,3.263,3.268,3.2729,3.2812,0.0,0.0,0.0,0.0,3.2945,3.2945,3.2945,3.2945,3.2928,3.2216,3.2199,3.2796,3.2067,3.1692,3.1692,3.1692,3.1371,3.0758,3.0758,3.1198,3.1857,3.125,3.0802,3.0649,3.1445,3.1965,0.0,0.0,0.0,0.0,3.1542,3.1841,3.2266,3.1963,3.2232,3.2537,3.2031,3.1846,3.1737,3.1489,3.1918,3.2408,3.2408,3.2916,3.3406,3.3406,3.3474,3.3508,3.3423,3.3474,3.3288,3.2544,3.1867,3.119,3.0463,3.0903,0.0,3.0548,3.097,3.136,3.1427,0.0,0.0,3.1444,3.0913,3.0904,3.155,3.0659,3.0429,3.1064,3.2072,3.2614,3.2614,3.3302,3.4027,3.4751,3.5457,3.582,3.5729,3.2144,3.1238,0.0,0.0,0.0,0.0,0.0,0.0,0.0,0.0,0.0,0.0,0.0,0.0,0.0,0.0,0.0,2.3933,2.6656,2.9105,3.0771,3.1394,3.1702,3.1835,3.1967,3.2116,3.2249,3.2398,3.2547,3.268,3.268,3.2945,3.3541,3.3574,0.0,3.4452,3.4468,3.4468,3.4468,3.4468,3.4468,3.4468,0.0,0.0,3.3557,3.2812,3.2481,3.2481,3.2481,3.2398,3.2266,3.2266,3.2436,3.27,3.2722,3.2369,3.193,3.2123,3.2038,3.1823,3.2039,3.2299,3.2634,3.288,3.2669,3.2406,3.2914,3.2325,0.0,3.2774,3.2632,3.2309,3.2855,3.3085,3.3186,3.3186,3.3305,3.3406,3.3406,3.3863,3.4117,3.3525,3.388,3.4049,3.3322,3.3068,3.2713,3.1985,3.1985,3.2239,3.2713,3.2357,3.2307,3.2916,3.2983,3.2983,3.2983,3.3438,3.3783,3.394,3.4319,3.4641,3.4754,3.501,3.5113,3.5113,3.5276,3.5421,3.5584,3.5729,3.582,3.5783,3.5005,3.4824,0.0,0.0,0.0,0.0,0.0,0.0,0.0,0.0,0.0,0.0,0.0,2.0066,0.0,0.0,2.5255,2.6808,2.8902,3.0869,3.2319,3.2921,3.3094,3.2729,3.268,3.2829,3.3193,3.3243,3.3392,3.3756,3.3789,3.3955,3.4319,3.4336,3.4518,3.4883,3.4899,3.4899,3.4899,3.4899,3.4899,3.4883,3.4137,3.3988,3.4319,3.3574,3.3243,3.3243,3.3243,3.3027,3.2713,3.3077,3.3333,3.3517,3.3974,3.3335,3.2191,3.2273,3.2179,3.2034,3.2225,3.2431,3.2596,3.2774,3.2862,3.2967,3.3311,3.3179,3.2965,3.3311,3.3136,3.2933,3.3305,3.3677,3.3947,3.3947,3.4235,3.4506,3.4506,3.4793,3.4945,3.459,3.481,3.4827,3.4083,3.4269,3.4134,3.3017,3.2848,3.2983,3.3355,3.3085,3.2983,3.3372,3.3406,3.3406,3.3406,3.3785,3.4007,3.4007,3.4764,3.5204,3.5204,3.5591,3.582,3.582,3.62,3.6399,3.6399,3.6798,3.6997,3.6997,3.6997,3.658,0.0,0.0,0.0,0.0,0.0,0.0,0.0,0.0,1.8512,1.9551,2.135,2.2916,2.349,2.5791,2.8005,2.9411,3.0806,3.22,3.3543,3.3779,3.3574,3.2961,3.3027,3.3342,3.3955,3.4005,3.4253,3.4849,3.4899,3.4899,3.4899,3.4899,3.4899,3.4899,3.4899,3.4899,3.4899,3.4899,3.4899,3.4883,3.4286,3.4319,3.4883,3.427,3.4005,3.4005,3.4005,3.3673,3.316,3.3756,3.4097,3.4255,3.4705,3.3907,3.253,3.2655,3.2652,3.2615,3.2615,3.2678,3.2719,3.2719,3.3114,3.3609,3.3704,3.4008,3.4293,3.3955,3.3728,3.366,3.3795,3.4269,3.4709,3.4709,3.5182,3.5622,3.5622,3.5622,3.5622,3.5622,3.5622,3.5419,3.481,3.5216,3.5165,3.3812,3.3609,3.3677,3.3812,3.3711,3.3677,3.3812,3.3846,3.3872,3.3956,3.3956,3.3998,3.4065,3.4735,3.515,3.515,3.589,3.6272,3.6272,3.6888,3.7214,3.7214,3.7866,3.8192,3.8192,3.8192,3.7504,1.533,1.5428,0.0,1.6702,1.7403,1.8789,0.0,0.0,2.2508,2.455,2.6183,2.712,2.6547,2.8747,3.0756,3.0892,3.2282,3.3543,3.4154,3.3968,3.371,3.3535,3.419,3.4684,3.4767,3.4767,3.48,3.4883,3.4899,3.4899,3.4899,3.4899,3.4899,3.4899,3.4899,3.4899,3.4899,3.4899,3.4899,3.4899,3.4816,3.4816,3.4899,3.4816,3.4767,3.4767,3.4767,3.4717,3.4651,3.4733,3.4878,3.4922,3.4372,3.4091,3.4061,3.4061,3.3897,3.3665,3.3762,3.3986,3.4257,3.4257,3.4102,3.4059,3.4719,3.4292,3.3803,3.4996,3.4878,3.4523,3.5199,3.5436,3.5504,3.5504,3.5554,3.5622,3.5622,3.5622,3.5622,3.5622,3.5622,3.5588,3.5504,3.5571,3.5334,3.4489,3.437,3.4607,3.5284,3.4776,3.4624,3.5301,3.5368,3.5545,3.5916,3.5958,3.6108,3.6496,3.6943,3.7165,3.7165,3.7662,3.792,3.792,3.8011,3.8047,3.8047,3.8156,3.8192,3.8192,3.8192,3.8083,1.7343,0.0,0.0,0.0,2.0166,2.1761,2.3295,2.4358,2.5394,2.6856,2.8239,2.9111,2.8952,3.0101,3.1186,0.0,3.2659,3.3466,3.3729,3.3738,3.3383,3.2541,3.3512,3.4253,3.4253,3.4651,3.4899,3.4899,3.4899,3.4899,3.4899,3.4899,3.4899,3.4899,3.4899,3.4899,3.4899,3.4899,3.4899,3.4899,3.4899,3.4899,3.4899,3.4899,3.4899,3.4899,3.4899,3.4899,3.4899,3.4899,3.4947,3.4961,3.4615,3.4575,3.4601,3.4376,3.4269,3.4244,3.4286,3.4377,3.4483,3.4483,3.4582,3.4794,3.5258,3.541,3.5456,3.5569,3.5562,3.5566,3.5582,3.596,3.6299,3.6299,3.6637,3.6823,3.6383,3.6299,3.6299,3.6299,3.5926,3.5757,3.6214,3.5926,3.552,3.5199,3.5148,3.5267,3.5571,3.5351,3.5267,3.5588,3.5622,3.5667,3.5871,3.5871,3.5941,3.6139,3.6781,3.717,3.717,3.7828,3.8192,3.8192,3.8192,3.8192,3.8192,3.8192,3.8192,3.8192,3.8192,3.8192,1.8273,0.0,0.0,2.1035,2.2878,2.4692,2.5243,2.6427,2.778,2.8949,2.9678,3.0108,3.0252,3.0651,0.0,3.1788,3.266,3.3209,3.3161,3.3055,3.257,3.1473,3.2232,3.3044,3.3458,3.4336,3.4899,3.4899,3.4899,3.4899,3.4899,3.4899,3.4899,3.4899,3.4899,3.4899,3.4899,3.4899,3.4899,3.4899,3.4899,3.4899,3.4899,3.4899,3.4899,3.4899,3.4899,3.4899,3.4899,3.4899,3.4899,3.4899,3.4899,3.4899,3.4927,3.47,3.4633,3.4722,3.4793,3.4793,3.4793,3.4793,3.501,3.5368,3.5542,3.6054,3.6416,3.5783,3.598,3.637,3.6034,3.6349,3.6823,3.7043,3.7347,3.7499,3.7161,3.7094,3.7094,3.7094,3.6637,3.6434,3.6992,3.662,3.6248,3.6248,3.6248,3.6096,3.5673,3.5622,3.5622,3.5622,3.5622,3.5622,3.5622,3.5622,3.5622,3.5622,3.6308,3.6781,3.69,3.7613,3.8054,3.8192,3.8192,3.8192,3.8192,3.8192,3.8192,3.8192,3.8192,3.8192,0.0,0.0,2.1343,2.2991,2.5166,2.7413,2.9286,2.9391,2.9661,3.1501,3.1031,3.0211,2.9955,3.0622,3.1133,3.0951,3.2219,3.3064,3.2606,3.1834,3.123,3.0803,3.0593,3.1104,0.0,3.4038,3.4899,3.4899,3.4899,3.4899,3.4899,3.4899,3.4899,3.4899,3.4899,3.4899,3.4899,3.4899,3.4899,3.4899,3.4899,3.4899,3.4899,3.4899,3.4899,3.4899,3.4899,3.4899,3.4899,3.4899,3.4899,3.4899,3.4899,3.4994,3.5088,3.5228,3.5258,3.5304,3.5498,3.5588,3.5588,3.5588,3.5588,3.5588,3.5622,3.5622,3.5605,3.5622,3.6163,3.6785,3.6785,3.6755,3.6958,3.7702,3.733,3.7009,3.7719,3.7872,3.7872,3.7872,3.7855,3.7838,3.7872,3.7855,3.7838,3.7838,3.7838,3.7297,3.5808,3.5622,3.5622,3.5622,3.5622,3.5622,3.5622,3.5622,3.5622,3.5622,3.6045,3.6492,3.69,3.7321,3.7756,3.8192,3.8192,3.8192,3.8192,3.8192,3.8192,3.8192,3.8192,3.8192,0.0,0.0,2.3253,2.5346,2.7177,2.8755,2.9961,3.0355,3.0654,3.1408,3.0127,2.8919,2.8889,2.8286,2.8139,2.9108,3.0291,3.1198,3.1514,3.1517,3.1006,2.9903,3.0972,0.0,0.0,0.0,0.0,3.4866,3.5346,3.5628,3.5628,3.6092,3.6141,3.5644,3.5628,3.5628,3.5628,3.5148,3.5148,3.5628,3.5131,3.4899,3.4899,3.4899,3.4899,3.4899,3.4899,3.4899,3.4899,3.4899,3.4899,3.4899,3.4899,3.4947,3.4994,3.5105,3.5152,3.5182,3.5487,3.5622,3.5622,3.5622,3.596,3.64,3.64,3.6933,3.7445,3.7221,3.7529,3.7855,3.7611,3.7889,3.8311,3.8565,3.8802,3.8903,3.8667,3.8633,3.8633,3.8633,3.8227,3.8058,3.8548,3.8227,3.7905,3.7905,3.7905,3.7719,3.7195,3.7144,3.6941,3.6451,3.64,3.618,3.5673,3.5622,3.5622,3.5622,3.6045,3.6385,3.6492,3.7114,3.7578,3.7721,3.8054,3.8192,3.8192,3.8192,3.8192,3.8192,3.8192,3.8192,0.0,2.2652,2.4957,2.7557,2.891,2.9819,3.0558,3.0601,3.0485,3.0649,2.8836,2.7238,2.7319,2.637,2.5928,2.7003,2.8061,2.9076,3.0016,3.0243,3.021,2.9842,3.137,0.0,0.0,0.0,0.0,3.4866,3.5578,3.6009,3.6009,3.6704,3.6887,3.6406,3.639,3.639,3.639,3.5926,3.5794,3.5992,3.5247,3.4899,3.4899,3.4899,3.4899,3.4899,3.4899,3.4899,3.4899,3.4899,3.4899,3.4899,3.4899,3.4899,3.4899,3.5041,3.5088,3.5135,3.5458,3.5549,3.5549,3.5577,3.6146,3.6772,3.6772,3.7512,3.823,3.7984,3.8295,3.8623,3.8374,3.8633,3.9056,3.9326,3.9529,3.9631,3.9428,3.9377,3.9377,3.9377,3.9005,3.8836,3.9292,3.8988,3.8684,3.8684,3.8684,3.8497,3.7973,3.7905,3.7719,3.7229,3.7178,3.6975,3.6485,3.6197,3.6073,3.6219,3.6268,3.6409,3.6719,3.7246,3.7578,3.7756,3.8054,3.8192,3.8192,3.8192,3.8192,3.8192,3.8192,3.8337,2.2721,2.4717,2.6459,2.9449,3.0271,3.0533,3.1129,3.0174,2.9214,2.9254,2.7187,2.5288,0.0,0.0,2.4633,2.4894,2.5858,2.7009,2.837,2.845,2.9058,0.0,0.0,0.0,0.0,0.0,0.0,3.5015,0.0,3.6075,3.6108,3.682,3.7201,3.7168,3.7168,3.7168,3.7168,3.7168,3.6787,3.6059,3.5313,3.4965,3.4965,3.4916,3.4899,3.4899,3.4899,3.4899,3.4899,3.4899,3.4899,3.4899,3.4899,3.4899,3.4899,3.5041,3.5105,3.5152,3.54,3.5492,3.5537,3.5645,3.6197,3.684,3.6874,3.7415,3.8024,3.8024,3.8514,3.9056,3.9056,3.9056,3.9225,3.9918,3.9546,3.9242,3.9935,4.007,4.007,4.007,4.007,4.007,4.007,4.007,4.007,4.007,4.007,3.958,3.8193,3.8024,3.8007,3.7973,3.7973,3.7939,3.7905,3.7212,3.6985,3.7335,3.6706,3.6632,3.7432,3.7504,3.7721,3.814,3.8192,3.8192,3.8192,3.8192,3.8192,3.8192,3.8228,3.8663,2.4002,2.6184,2.8228,2.9469,2.9767,2.9709,2.9451,2.8278,2.716,2.6678,2.4564,2.2727,0.0,0.0,0.0,2.3842,2.5788,0.0,3.0174,3.1004,0.0,0.0,0.0,3.4836,3.5316,3.591,0.0,0.0,3.6721,3.7069,3.7615,3.8328,3.8477,3.7947,3.793,3.793,3.793,3.793,3.7566,3.682,3.6075,3.5727,3.5694,3.5148,3.4899,3.4899,3.4899,3.4899,3.4899,3.4899,3.4899,3.4899,3.4899,3.4899,3.4899,3.4947,3.4947,3.4994,3.5135,3.5337,3.5638,3.627,3.6992,3.7719,3.8261,3.8937,3.9529,3.9529,3.9648,3.98,3.98,3.98,3.9851,4.0037,3.9935,3.9851,4.0037,4.007,4.007,4.007,4.007,4.007,4.007,4.007,4.007,4.007,4.007,3.9935,3.958,3.9529,3.9326,3.8768,3.8717,3.8497,3.7956,3.7212,3.6818,3.6939,3.6769,3.6644,3.6632,3.7444,3.7813,3.7685,3.802,3.8192,3.8192,3.8192,3.8192,3.8192,3.8808,3.9188,2.6025,2.7781,2.9247,2.9885,2.9827,2.9319,2.8115,2.6945,2.5717,2.4311,2.2581,0.0,0.0,0.0,0.0,0.0,0.0,0.0,2.9561,3.0706,3.2043,0.0,3.5386,0.0,3.6288,3.6656,3.7081,0.0,0.0,3.7765,3.8195,3.8891,3.909,3.8692,3.8676,3.8676,3.8676,3.8361,3.7996,3.7582,3.6506,3.6174,3.6456,3.5379,3.5081,3.5363,0.0,3.4899,3.4932,3.5247,3.5379,3.5413,3.5744,3.5876,3.5876,3.5876,3.5876,3.5909,3.6102,3.6262,3.637,3.6274,3.676,3.755,3.8294,3.9022,3.9665,3.9986,4.007,4.007,4.007,4.007,4.007,4.007,4.007,4.007,4.007,4.007,4.0172,4.051,4.0578,4.0679,4.1001,4.0781,4.0578,4.0578,4.029,4.007,4.007,4.007,3.9918,3.9512,3.9462,3.9309,3.8903,3.8176,3.7831,3.803,3.774,3.7418,3.7037,3.8169,3.8539,3.8041,3.8815,3.9206,3.9206,3.9206,3.9206,3.9224,3.9677,4.0075,2.8158,2.9261,2.9856,3.0335,2.99,2.8884,2.6968,2.5703,2.4296,2.2178,0.0,0.0,2.0021,0.0,2.1082,2.1658,0.0,2.5082,2.8188,2.9376,3.1157,3.4361,3.6017,3.6885,3.6845,3.7102,3.7513,3.8117,3.817,3.8239,3.8361,3.8941,3.9272,3.9272,3.9272,3.9272,3.9272,3.8659,3.8361,3.8344,3.6953,3.6638,3.7201,3.5827,3.5479,3.5976,0.0,0.0,3.5098,3.5843,3.6158,3.6208,3.6854,3.7102,3.7102,3.7102,3.7102,3.7153,3.7386,3.7435,3.73,3.6269,3.646,3.7212,3.7973,3.8633,3.9276,3.9901,4.007,4.007,4.007,4.007,4.007,4.007,4.007,4.007,4.007,4.0155,4.0443,4.1204,4.1356,4.1542,4.2185,4.1762,4.1356,4.1356,4.0713,4.0257,4.0358,4.0206,4.007,4.007,4.007,4.007,4.007,3.9411,3.9166,3.9495,3.8923,3.8442,3.8093,3.9204,3.9551,3.8861,3.9914,4.051,4.051,4.051,4.051,4.051,4.0619,4.1053,2.9044,2.9914,3.0306,2.99,2.8913,2.7563,2.5647,2.346,0.0,0.0,0.0,1.8739,1.9174,0.0,0.0,2.2396,0.0,0.0,0.0,0.0,3.3069,0.0,0.0,0.0,0.0,0.0,0.0,0.0,0.0,0.0,3.909,3.9206,3.9272,3.9272,3.9272,3.9272,3.9272,3.9156,3.909,3.9073,3.8228,3.7897,3.7996,3.7119,3.6456,3.6025,0.0,0.0,3.5876,3.6622,3.692,3.6936,3.7052,3.7102,3.7102,3.7102,3.7102,3.7119,3.7153,3.7253,3.7469,3.8149,3.8514,3.8751,3.9478,3.9783,3.9918,4.0037,4.007,4.007,4.007,4.007,4.007,4.007,4.007,4.007,4.007,4.0561,4.1221,4.1965,4.21,4.2151,4.2269,4.2185,4.21,4.21,4.1474,4.1221,4.183,4.0832,4.007,4.007,4.007,4.007,4.007,3.9411,3.9037,3.9117,3.8999,3.8764,3.8415,3.9573,4.0029,3.9608,4.0202,4.051,4.051,4.051,4.051,4.0528,4.1198,4.1578,2.9276,3.0089,3.0422,2.9784,2.8419,2.6649,2.4384,0.0,0.0,0.0,0.0,1.839,1.8985,0.0,0.0,0.0,0.0,0.0,0.0,0.0,0.0,0.0,0.0,0.0,0.0,0.0,0.0,0.0,0.0,0.0,3.9272,3.9272,3.9272,3.9272,3.9272,3.9272,3.9272,3.9272,3.9272,3.9272,3.8543,3.8411,3.8725,3.7615,3.7119,3.7152,0.0,0.0,3.6638,3.7384,3.7682,3.7715,3.8079,3.8228,3.8228,3.8228,3.8228,3.8228,3.8349,3.84,3.8553,3.9143,3.889,3.8451,3.9292,3.9512,3.9597,3.9969,4.007,4.007,4.007,4.007,4.007,4.007,4.0375,4.0764,4.1153,4.1508,4.1982,4.2726,4.2878,4.3014,4.3403,4.3149,4.2878,4.2878,4.2236,4.1897,4.2252,4.1677,4.1221,4.1221,4.1221,4.1221,4.1221,4.0916,4.0713,4.0713,4.0983,4.0871,4.0353,4.1358,4.1671,4.1131,4.1537,4.1759,4.1759,4.1759,4.1759,4.1759,4.214,4.2321,2.9247,3.0089,3.0393,2.961,2.7984,2.5894,2.3279,2.1162,0.0,0.0,0.0,0.0,0.0,0.0,0.0,0.0,0.0,0.0,0.0,0.0,0.0,0.0,0.0,0.0,0.0,0.0,0.0,0.0,0.0,0.0,0.0,3.9272,3.9272,3.9272,3.9272,3.9272,3.9272,3.9272,3.9272,3.9272,3.8709,3.8725,3.9239,3.8096,3.7798,3.8195,0.0,0.0,0.0,3.8129,3.8444,3.8493,3.9056,3.9272,3.9272,3.9272,3.9272,3.9325,3.9448,3.9448,3.9484,3.9625,3.8958,3.8285,3.9006,3.9225,3.9343,3.9918,4.007,4.007,4.007,4.007,4.0121,4.029,4.0899,4.1644,4.2371,4.254,4.276,4.3521,4.3538,4.3606,4.4215,4.369,4.3234,4.3403,4.2642,4.2168,4.2489,4.2252,4.2185,4.2489,4.2388,4.2286,4.2286,4.2286,4.2339,4.2481,4.2859,4.2884,4.2441,4.3191,4.331,4.2565,4.2925,4.3063,4.2882,4.2882,4.2882,4.2882,4.2882,4.2882,2.9131,3.0089,3.0277,2.9073,2.7316,2.5212,2.2657,0.0,0.0,0.0,0.0,0.0,0.0,0.0,0.0,0.0,0.0,0.0,0.0,0.0,0.0,0.0,0.0,0.0,0.0,0.0,0.0,0.0,0.0,0.0,0.0,3.9272,3.9272,3.9272,3.9272,3.9272,3.9272,3.9272,3.9272,3.9272,3.9206,3.9206,3.9272,3.9139,3.8758,3.8245,0.0,0.0,0.0,3.8874,3.9172,3.9189,3.9255,3.9272,3.9272,3.9272,3.9272,3.9272,3.9325,3.9325,3.9325,3.9484,3.961,3.9699,3.9766,3.9885,3.9986,4.0054,4.007,4.007,4.007,4.007,4.0257,4.0933,4.166,4.2388,4.3149,4.3318,4.3555,4.4316,4.391,4.3436,4.3521,4.2895,4.2625,4.3318,4.2219,4.1796,4.3149,4.2134,4.1813,4.3166,4.2692,4.2286,4.2286,4.2286,4.2533,4.3011,4.3044,4.3305,4.3711,4.4228,4.4089,4.3286,4.3754,4.3625,4.2882,4.2882,4.2882,4.2882,4.2882,4.2882,2.7813,2.9218,2.9784,2.8898,2.6649,2.4065,2.1888,0.0,0.0,0.0,1.7403,1.7592,1.8869,0.0,0.0,0.0,0.0,0.0,0.0,0.0,0.0,0.0,0.0,0.0,0.0,0.0,0.0,0.0,0.0,0.0,0.0,3.9272,3.9272,3.9272,3.9272,3.9272,3.9272,3.9272,3.9272,3.9272,3.9272,3.9272,3.9272,3.9272,3.9123,3.8874,0.0,0.0,0.0,3.9156,3.9272,3.9272,3.9272,3.9272,3.9272,3.9272,3.9272,3.9272,3.9272,3.9272,3.9325,3.9379,3.959,3.9781,3.9901,3.9986,4.007,4.007,4.007,4.0189,4.0646,4.1085,4.1593,4.2354,4.276,4.3047,4.3352,4.3792,4.4062,4.391,4.4012,4.4113,4.4113,4.3876,4.3606,4.3453,4.3318,4.3115,4.2777,4.2625,4.2591,4.2726,4.2878,4.2963,4.2963,4.3403,4.3562,4.3284,4.43,4.4991,4.5203,4.5561,4.5606,4.5281,4.4975,4.4421,4.3607,4.3607,4.3371,4.29,4.3389,4.3607,2.5893,2.7755,2.8913,2.8274,2.5836,2.3107,0.0,0.0,0.0,1.7069,1.72,1.7592,1.8869,1.9101,0.0,0.0,0.0,0.0,0.0,0.0,0.0,0.0,0.0,0.0,0.0,0.0,0.0,0.0,0.0,0.0,0.0,3.9272,3.9272,3.9272,3.9272,3.9272,3.9272,3.9272,3.9272,3.9272,3.9272,3.9272,3.9272,3.9272,3.9272,0.0,0.0,0.0,0.0,3.9272,3.9272,3.9272,3.9272,3.9272,3.9272,3.9272,3.9272,3.9272,3.9272,3.9272,3.9272,3.9272,3.9468,3.9729,3.9781,3.9986,4.007,4.007,4.024,4.0527,4.1068,4.1914,4.276,4.3301,4.3589,4.3758,4.3758,4.4198,4.4418,4.3859,4.4012,4.4231,4.4231,4.4045,4.3792,4.347,4.369,4.3589,4.2743,4.2895,4.2963,4.2658,4.3098,4.3373,4.3297,4.3681,4.3905,4.3869,4.5072,4.5919,4.6341,4.6657,4.6739,4.6504,4.5707,4.4892,4.4095,4.386,4.357,4.3262,4.3824,4.4222,2.3371,2.5742,2.7592,2.6968,2.4863,2.241,0.0,0.0,0.0,0.0,1.72,1.7592,1.8869,1.9101,1.9522,2.0785,0.0,0.0,0.0,0.0,0.0,0.0,0.0,0.0,0.0,0.0,0.0,0.0,0.0,0.0,0.0,0.0,3.9272,3.9272,3.9272,3.9272,3.9272,3.9272,3.9272,3.9272,3.9272,3.9272,3.9272,3.9272,0.0,0.0,0.0,0.0,0.0,3.9272,3.9272,3.9272,3.9272,3.9272,3.9272,3.9272,3.9272,3.9272,3.9272,3.9272,3.9272,3.9272,3.9468,3.9677,3.9677,3.9884,4.007,4.007,4.0612,4.1187,4.1204,4.2303,4.3403,4.342,4.4012,4.457,4.457,4.457,4.4587,4.457,4.3944,4.3436,4.3436,4.2811,4.2574,4.3301,4.2794,4.2574,4.3318,4.276,4.2591,4.3318,4.342,4.3314,4.3029,4.2602,4.3048,4.4791,4.4975,4.5582,4.6827,4.7389,4.7319,4.6522,4.5707,4.4892,4.4095,4.3299,4.3317,4.4077,4.4095,4.453,2.0824,2.2515,2.3714,2.3511,2.1859,2.0059,1.9043,0.0,0.0,0.0,1.688,1.7475,1.8332,1.8825,1.9522,2.0785,2.1003,0.0,0.0,0.0,0.0,0.0,0.0,0.0,0.0,0.0,0.0,0.0,0.0,0.0,0.0,0.0,3.9272,3.9272,3.9272,3.9272,3.9272,3.9272,3.9272,3.9272,3.9272,3.9272,3.9272,3.9272,0.0,0.0,0.0,0.0,0.0,3.9272,3.9272,3.9272,3.9272,3.9272,3.9272,3.9272,3.9272,3.9272,3.9272,3.9272,3.9272,3.9272,3.9432,3.959,3.9677,3.9884,4.0189,4.0696,4.1745,4.2709,4.2709,4.3064,4.3555,4.4079,4.3995,4.3792,4.3792,4.4198,4.4418,4.3893,4.4012,4.4215,4.4215,4.4012,4.3758,4.347,4.3673,4.3572,4.2743,4.2878,4.2963,4.2675,4.2642,4.2814,4.3229,4.3647,4.3651,4.3168,4.3957,4.4414,4.4314,4.5125,4.543,4.5197,4.5256,4.4892,4.4095,4.3824,4.4132,4.491,4.491,4.5653,0.0,1.9748,2.0835,2.1066,1.9908,0.0,0.0,0.0,0.0,0.0,0.0,0.0,1.8085,1.8695,1.9449,2.0494,2.0843,0.0,0.0,0.0,0.0,0.0,0.0,0.0,0.0,0.0,0.0,0.0,0.0,0.0,0.0,0.0,3.9272,3.9272,3.9272,3.9272,3.9272,3.9272,3.9272,3.9272,3.9272,3.9272,3.9272,0.0,0.0,0.0,0.0,0.0,0.0,3.9272,3.9272,3.9272,3.9272,3.9272,3.9272,3.9272,3.9272,3.9272,3.9272,3.9272,3.9272,3.9272,3.9615,3.9957,3.9813,4.0137,4.0663,4.1407,4.2489,4.3352,4.3064,4.32,4.3538,4.4028,4.3775,4.3504,4.3792,4.4231,4.4434,4.3944,4.4248,4.4587,4.4587,4.4587,4.4418,4.3927,4.4265,4.4231,4.3267,4.3572,4.3673,4.32,4.3149,4.3335,4.3809,4.396,4.3816,4.3323,4.4025,4.4349,4.3957,4.4647,4.5017,4.5017,4.4926,4.4603,4.4095,4.4095,4.4349,4.4838,4.5164,4.5997,0.0,0.0,0.0,0.0,0.0,0.0,0.0,0.0,0.0,0.0,0.0,0.0,1.8085,1.8738,1.9406,2.0117,2.0741,0.0,0.0,0.0,0.0,0.0,0.0,0.0,0.0,0.0,0.0,0.0,0.0,0.0,0.0,0.0,0.0,3.9272,3.9272,3.9272,3.9272,3.9272,3.9272,3.9272,3.9272,3.9272,3.9272,0.0,0.0,0.0,0.0,0.0,0.0,3.9272,3.9272,3.9272,3.9272,3.9272,3.9272,3.9272,3.9272,3.9272,3.9272,3.9272,3.9288,3.9338,4.0017,4.0735,4.0253,4.0712,4.1508,4.2185,4.2912,4.3318,4.2574,4.2895,4.342,4.342,4.342,4.3639,4.4418,4.4587,4.4587,4.4587,4.4587,4.4587,4.4587,4.4587,4.4587,4.4587,4.4587,4.4587,4.4587,4.4587,4.4587,4.4587,4.4626,4.4626,4.4626,4.3751,4.3675,4.4712,4.4861,4.4963,4.513,4.5381,4.5561,4.5552,4.4525,4.4005,4.4005,4.4005,4.4041,4.4114,4.4874,4.5653,0.0,0.0,0.0,0.0,0.0,0.0,0.0,0.0,0.0,0.0,0.0,0.0,1.8085,1.9116,2.0233,2.1365,0.0,0.0,0.0,0.0,0.0,0.0,0.0,0.0,0.0,0.0,0.0,0.0,0.0,0.0,0.0,0.0,0.0,3.9272,3.9272,3.9272,3.9272,3.9272,3.9272,3.9272,3.9272,3.9272,3.9272,0.0,0.0,0.0,0.0,0.0,0.0,3.9272,3.9272,3.9272,3.9272,3.9272,3.9272,3.9272,3.9272,3.9272,3.9272,3.9272,3.9371,3.9934,4.045,4.0966,4.1976,4.2543,4.2929,4.3098,4.3707,4.413,4.3352,4.3284,4.342,4.342,4.342,4.3639,4.4418,4.4587,4.4587,4.4587,4.4587,4.4587,4.4587,4.4587,4.4587,4.4587,4.4587,4.4587,4.4587,4.4587,4.4587,4.4587,4.4889,4.5125,4.5125,4.4582,4.4116,4.378,4.3763,4.3716,4.3595,4.4025,4.4137,4.3946,4.3448,4.3172,4.3172,4.3172,4.3498,4.4095,4.4277,4.4802,0.0,0.0,0.0,0.0,0.0,0.0,0.0,0.0,0.0,0.0,0.0,0.0,0.0,0.0,0.0,0.0,0.0,0.0,0.0,0.0,0.0,0.0,0.0,0.0,0.0,0.0,0.0,0.0,0.0,0.0,0.0,0.0,0.0,0.0,3.9272,3.9272,3.9272,3.9272,3.9272,3.9272,3.9272,3.9272,3.9272,0.0,0.0,0.0,0.0,0.0,3.9272,3.9272,3.9272,3.9272,3.9272,3.9272,3.9272,3.9272,3.9272,3.9272,3.9272,3.9487,3.9839,3.996,4.0821,4.1887,4.2433,4.3221,4.3944,4.3944,4.3995,4.3944,4.3521,4.3166,4.298,4.3335,4.342,4.3639,4.4418,4.4587,4.4587,4.4587,4.4587,4.4587,4.4587,4.4587,4.4587,4.4587,4.4874,4.5094,4.5094,4.5303,4.5627,4.5935,4.5787,4.5702,4.5856,4.5277,4.4719,4.4292,4.4258,4.423,4.4096,4.423,4.412,4.3719,4.3906,4.3806,4.3444,4.3806,4.4023,4.4095,4.4095,4.4331,0.0,0.0,0.0,0.0,0.0,0.0,0.0,0.0,0.0,0.0,0.0,0.0,0.0,0.0,0.0,0.0,0.0,0.0,0.0,0.0,0.0,0.0,0.0,0.0,0.0,0.0,0.0,0.0,0.0,0.0,0.0,0.0,0.0,0.0,3.9222,3.9222,3.9106,3.9222,3.9272,3.9272,3.9272,3.9272,3.9272,3.9272,0.0,0.0,0.0,0.0,3.9272,3.9272,3.9272,3.9272,3.9272,3.9272,3.9272,3.9272,3.9272,3.9272,3.9272,3.9752,4.0354,3.9931,4.1205,4.2892,4.2505,4.3428,4.457,4.457,4.4096,4.3572,4.3453,4.3031,4.2777,4.3301,4.3504,4.3775,4.4434,4.4587,4.4587,4.4587,4.4587,4.4587,4.4587,4.4587,4.4621,4.4739,4.5297,4.5737,4.5855,4.6332,4.6906,4.7548,4.6829,4.6355,4.6496,4.5751,4.525,4.5214,4.5267,4.5355,4.5563,4.5313,4.4938,4.4494,4.5019,4.4965,4.4277,4.4965,4.4947,4.4277,4.4277,4.4277,0.0,0.0,0.0,0.0,0.0,0.0,0.0,0.0,0.0,0.0,0.0,0.0,0.0,0.0,0.0,0.0,0.0,0.0,0.0,0.0,0.0,0.0,0.0,0.0,0.0,0.0,0.0,0.0,0.0,0.0,0.0,0.0,0.0,0.0,0.0,3.899,3.8377,3.8974,3.9272,3.9272,3.9272,3.9272,3.9272,3.9272,3.9272,0.0,0.0,0.0,3.9272,3.9272,3.9272,3.9272,3.9272,3.9272,3.9272,3.9272,3.9272,3.9272,3.9272,3.9752,4.0464,4.0928,4.187,4.2939,4.3612,4.4085,4.4367,4.457,4.4485,4.4248,4.3589,4.3826,4.4079,4.3555,4.3927,4.4434,4.4553,4.4587,4.4587,4.4587,4.4587,4.4587,4.4587,4.4587,4.479,4.5432,4.5635,4.5923,4.6549,4.7107,4.7496,4.76,4.73,4.6932,4.6548,4.5751,4.5125,4.472,4.5072,4.5716,4.6613,4.6398,4.6194,4.6142,4.558,4.5236,4.511,4.5236,4.5236,4.511,4.511,4.511,0.0,0.0,0.0,0.0,0.0,0.0,0.0,0.0,0.0,0.0,0.0,0.0,0.0,0.0,0.0,0.0,0.0,0.0,0.0,0.0,0.0,0.0,0.0,0.0,0.0,0.0,0.0,0.0,0.0,0.0,0.0,0.0,0.0,0.0,0.0,0.0,3.7615,3.7947,3.8493,3.9272,3.9272,3.9272,3.9272,3.9272,3.9272,0.0,0.0,3.9272,3.9272,3.9272,3.9272,3.9272,3.9272,3.9272,3.9322,3.9719,3.9868,3.9918,4.0299,4.0912,4.1591,4.2036,4.2724,4.3506,4.4037,4.3984,4.3805,4.4451,4.4282,4.3961,4.4028,4.3995,4.3961,4.4028,4.4316,4.4587,4.4587,4.4587,4.4587,4.4587,4.4908,4.5179,4.5179,4.5517,4.5889,4.6244,4.6633,4.7022,4.7361,4.8105,4.8816,4.9216,4.8625,4.8009,4.7596,4.67,4.5817,4.5035,4.5459,4.6098,4.6863,4.7047,4.6939,4.6504,4.6558,4.6377,4.5943,4.6377,4.6377,4.5943,4.5943,4.5725,1.4572,0.0,0.0,0.0,0.0,0.0,0.0,0.0,0.0,0.0,0.0,0.0,0.0,0.0,0.0,0.0,0.0,0.0,0.0,0.0,0.0,0.0,0.0,0.0,0.0,0.0,0.0,0.0,0.0,0.0,0.0,0.0,0.0,0.0,0.0,0.0,3.6854,3.7019,3.7665,3.8775,3.8941,3.9023,3.9023,3.9206,3.9272,3.9272,3.9272,3.9272,3.9272,3.9272,3.9272,3.9272,3.9272,3.9388,3.9603,4.0166,4.0481,4.0696,4.1226,4.1905,4.2535,4.265,4.3223,4.3881,4.4155,4.3749,4.3384,4.4311,4.4012,4.3606,4.4384,4.413,4.3842,4.4434,4.4587,4.4587,4.4587,4.4587,4.4587,4.4587,4.5196,4.5703,4.5703,4.6312,4.6853,4.7022,4.7547,4.797,4.8156,4.9106,4.9924,5.0382,4.9579,4.8665,4.782,4.6998,4.6213,4.5511,4.6025,4.6689,4.733,4.7738,4.7609,4.6812,4.7391,4.7409,4.6794,4.7409,4.7391,4.6794,4.6794,4.645,1.4831,1.5456,0.0,0.0,0.0,0.0,0.0,0.0,0.0,0.0,0.0,0.0,0.0,0.0,0.0,0.0,0.0,0.0,0.0,0.0,0.0,0.0,0.0,0.0,0.0,0.0,0.0,0.0,0.0,0.0,0.0,0.0,0.0,0.0,0.0,0.0,3.6092,3.6771,3.7152,3.7268,3.7963,3.8295,3.8311,3.8974,3.9272,3.9272,3.9272,3.9272,3.9272,3.9272,3.9272,3.9272,3.9272,3.9702,4.0299,4.0365,4.0779,4.1342,4.1392,4.1905,4.2518,4.2518,4.3032,4.3687,4.4039,4.3578,4.3256,4.4294,4.4012,4.3606,4.4384,4.4536,4.4502,4.457,4.4587,4.4587,4.4587,4.4587,4.4587,4.4587,4.5196,4.5703,4.5703,4.6312,4.7022,4.7733,4.7885,4.8156,4.8832,4.9924,5.0364,4.9661,4.938,4.828,4.5736,4.5477,4.5597,4.6017,4.6783,4.7695,4.8717,4.8779,4.846,4.7645,4.7681,4.7681,4.7627,4.7681,4.7681,4.7627,4.7627,4.7591,1.4269,1.5215,0.0,0.0,0.0,0.0,0.0,0.0,0.0,0.0,0.0,0.0,0.0,0.0,0.0,0.0,0.0,0.0,0.0,0.0,0.0,0.0,0.0,0.0,0.0,0.0,0.0,0.0,0.0,0.0,0.0,0.0,0.0,0.0,0.0,0.0,0.0,3.5595,3.5727,3.5744,3.6953,3.7765,3.8228,3.8493,3.8858,3.9272,3.9272,3.9272,3.9272,3.9272,3.9272,3.9272,3.9272,3.9736,4.0431,4.0862,4.1475,4.217,4.2634,4.2965,4.3214,4.3214,4.3396,4.3687,4.3981,4.3578,4.3199,4.4311,4.4012,4.3606,4.4384,4.4587,4.4587,4.4587,4.4587,4.4587,4.4587,4.4587,4.4722,4.5196,4.5872,4.6532,4.7005,4.7682,4.8257,4.8545,4.8595,4.8697,4.8968,5.0011,5.0575,5.0294,4.9682,4.8996,4.836,4.6759,4.6829,4.9156,4.7903,4.74,4.8109,4.817,4.8025,4.7717,4.7717,4.7717,4.7717,4.8206,4.846,4.8478,4.8967,4.9184,1.4256,1.5118,0.0,0.0,0.0,0.0,0.0,0.0,0.0,0.0,0.0,0.0,0.0,0.0,0.0,0.0,0.0,0.0,0.0,0.0,0.0,0.0,0.0,0.0,0.0,0.0,0.0,0.0,0.0,0.0,0.0,0.0,0.0,0.0,0.0,0.0,0.0,3.4899,3.4899,3.4916,3.5926,3.6787,3.7516,3.7765,3.8261,3.8941,3.8941,3.9056,3.9272,3.9272,3.9272,3.9272,3.9272,3.9868,4.0763,4.1243,4.2021,4.2949,4.3446,4.3628,4.3628,4.3628,4.3628,4.3763,4.4039,4.3635,4.3256,4.4311,4.4012,4.3606,4.4384,4.4587,4.4587,4.4587,4.4587,4.4587,4.4587,4.4587,4.4807,4.5568,4.6109,4.6684,4.7445,4.8173,4.8663,4.8663,4.8849,4.8917,4.8697,4.9855,5.077,5.0854,4.9915,4.9453,4.983,4.8152,4.8128,5.0533,4.8956,4.8057,4.846,4.8224,4.8098,4.8098,4.8098,4.8206,4.846,4.9021,4.9293,4.9293,4.9836,5.009,1.4975,0.0,0.0,0.0,0.0,0.0,0.0,0.0,0.0,0.0,0.0,0.0,0.0,0.0,0.0,0.0,0.0,0.0,0.0,0.0,0.0,0.0,0.0,0.0,0.0,0.0,0.0,0.0,0.0,0.0,0.0,0.0,0.0,0.0,0.0,0.0,0.0,3.4899,3.4899,3.4899,3.4899,3.5297,3.6025,3.6771,3.75,3.8212,3.8212,3.8626,3.9272,3.9272,3.9272,3.9272,3.9272,4.015,4.1409,4.1409,4.2353,4.3628,4.3628,4.3628,4.3628,4.3628,4.3763,4.3956,4.4056,4.3692,4.3384,4.4367,4.4028,4.3606,4.4384,4.4587,4.4587,4.4587,4.4587,4.4587,4.4587,4.4587,4.4807,4.5568,4.5703,4.594,4.6667,4.7411,4.7902,4.7919,4.8528,4.8731,4.8003,4.9543,5.0838,5.1266,5.0096,4.9311,4.9311,4.9311,4.9293,4.9311,4.983,5.009,5.0071,4.9329,4.8931,4.8912,4.8931,4.9311,5.009,5.009,5.009,5.009,5.0108,5.0108,1.3896,0.0,0.0,0.0,0.0,0.0,0.0,0.0,0.0,0.0,0.0,0.0,0.0,0.0,0.0,0.0,0.0,0.0,0.0,0.0,0.0,0.0,0.0,0.0,0.0,0.0,0.0,0.0,0.0,0.0,0.0,0.0,0.0,0.0,0.0,0.0,0.0,0.0,3.4899,3.4899,3.4899,3.5297,3.6009,3.6224,3.7019,3.8212,3.8212,3.8626,3.9272,3.9272,3.9272,3.9272,3.9272,4.015,4.1409,4.1409,4.2353,4.3628,4.3628,4.3628,4.3628,4.3628,4.3763,4.3956,4.4056,4.4044,4.4041,4.4502,4.4418,4.4282,4.4519,4.4587,4.4587,4.4587,4.4587,4.4587,4.4587,4.4587,4.4807,4.5568,4.5703,4.594,4.6667,4.6972,4.731,4.7834,4.7648,4.7725,4.8408,5.0169,5.1393,5.1495,5.1034,5.094,5.1517,5.0525,5.0362,5.1481,5.066,4.9836,4.9293,4.9564,4.9474,4.8931,4.9456,4.9854,5.009,5.0651,5.0923,5.0959,5.1502,5.1774,0.0,0.0,0.0,0.0,0.0,0.0,0.0,0.0,0.0,0.0,0.0,0.0,0.0,0.0,0.0,0.0,0.0,0.0,0.0,0.0,0.0,0.0,0.0,0.0,0.0,0.0,0.0,0.0,0.0,0.0,0.0,0.0,0.0,0.0,0.0,0.0,0.0,0.0,0.0,3.4899,3.4899,3.5131,3.5562,3.5562,3.6208,3.7367,3.7963,3.8626,3.9272,3.9272,3.9272,3.9272,3.9272,4.015,4.1409,4.1409,4.2353,4.3628,4.3628,4.3628,4.3628,4.3628,4.3747,4.3998,4.4114,4.427,4.444,4.457,4.4587,4.4587,4.4587,4.4587,4.4587,4.4587,4.4587,4.4587,4.4587,4.4587,4.4807,4.5568,4.5466,4.5585,4.6616,4.6549,4.6616,4.7361,4.7274,4.7615,4.9022,5.0348,5.1262,5.1583,5.173,5.1973,5.2462,5.1303,5.1122,5.2426,5.1285,5.0361,4.9872,4.9999,5.0017,4.9872,5.0325,5.0723,5.1049,5.1212,5.1285,5.1303,5.1792,5.2009,0.0,0.0,0.0,0.0,0.0,0.0,0.0,0.0,0.0,0.0,0.0,0.0,0.0,0.0,0.0,0.0,0.0,0.0,0.0,0.0,0.0,0.0,0.0,0.0,0.0,0.0,0.0,0.0,0.0,0.0,0.0,0.0,0.0,0.0,0.0,0.0,0.0,0.0,0.0,0.0,3.4866,3.4899,3.4899,3.4899,3.5297,3.6075,3.75,3.8526,3.9172,3.9172,3.9222,3.9272,3.9272,4.0117,4.1326,4.1392,4.2303,4.3529,4.3611,4.3628,4.3628,4.3628,4.3805,4.4097,4.4097,4.4344,4.4587,4.4587,4.4587,4.4587,4.4587,4.4587,4.4587,4.4587,4.4587,4.4587,4.4587,4.4587,4.479,4.5466,4.5043,4.501,4.6363,4.6041,4.5855,4.6583,4.7352,4.8277,4.9614,5.0312,5.0896,5.1422,5.2126,5.2462,5.2389,5.1774,5.1719,5.2444,5.181,5.1375,5.1285,5.0651,5.0615,5.1285,5.1357,5.1756,5.2498,5.1683,5.1285,5.1285,5.1212,5.1176,0.0,0.0,0.0,0.0,0.0,0.0,0.0,0.0,0.0,0.0,0.0,0.0,0.0,0.0,0.0,0.0,0.0,0.0,0.0,0.0,0.0,0.0,0.0,0.0,0.0,0.0,0.0,0.0,0.0,0.0,0.0,0.0,0.0,0.0,0.0,0.0,3.4021,3.4038,3.4038,0.0,3.4618,3.4899,3.4899,3.4899,3.5297,3.6059,3.6953,3.7765,3.8444,3.8444,3.8775,3.9272,3.9272,3.9818,4.0663,4.121,4.1988,4.2833,4.3429,4.3628,4.3628,4.3628,4.3805,4.4097,4.4097,4.4344,4.4587,4.4587,4.4587,4.4587,4.4587,4.4587,4.4587,4.4587,4.4587,4.4587,4.4587,4.4587,4.4621,4.479,4.4688,4.4671,4.501,4.4925,4.5077,4.5838,4.779,4.9131,4.9015,5.0832,5.173,5.0776,5.1784,5.2226,5.1611,5.1973,5.2317,5.248,5.2335,5.1955,5.1321,5.1737,5.1756,5.1303,5.1919,5.2317,5.2498,5.1683,5.1285,5.1267,5.0633,5.0343,0.0,0.0,0.0,0.0,0.0,0.0,0.0,0.0,0.0,0.0,0.0,0.0,0.0,0.0,0.0,0.0,0.0,0.0,0.0,0.0,0.0,0.0,0.0,0.0,0.0,0.0,0.0,0.0,0.0,0.0,0.0,0.0,0.0,0.0,0.0,0.0,3.3259,3.3607,3.3789,3.3806,3.4551,3.4899,3.4899,3.4899,3.5297,3.6025,3.6406,3.7201,3.8212,3.8212,3.8626,3.9272,3.9272,3.9736,4.0415,4.0779,4.1591,4.2568,4.2965,4.3098,4.3148,4.3512,4.3573,4.3628,4.3997,4.4344,4.4587,4.4587,4.4587,4.4587,4.4587,4.4299,4.4028,4.4028,4.4316,4.4587,4.4587,4.4587,4.4587,4.4587,4.4587,4.4688,4.506,4.5399,4.5771,4.616,4.8159,4.9432,4.8882,5.0987,5.2112,5.1079,5.191,5.2317,5.19,5.19,5.2082,5.248,5.2136,5.19,5.1864,5.2281,5.1937,5.0741,5.1882,5.2299,5.1919,5.1104,5.0904,5.1267,5.0452,5.009,0.0,0.0,0.0,0.0,0.0,0.0,0.0,0.0,0.0,0.0,0.0,0.0,0.0,0.0,0.0,0.0,0.0,0.0,0.0,0.0,0.0,0.0,0.0,0.0,0.0,0.0,0.0,0.0,0.0,0.0,0.0,0.0,0.0,0.0,0.0,3.2299,3.268,3.3044,3.3408,3.3806,3.4551,3.4833,3.47,3.4833,3.523,3.581,3.581,3.6572,3.7847,3.798,3.8444,3.9106,3.9222,3.9653,4.0216,4.0332,4.1127,4.217,4.2286,4.2402,4.2618,4.323,4.329,4.3294,4.3913,4.4344,4.4587,4.4587,4.4485,4.4384,4.4384,4.3809,4.3217,4.3217,4.3826,4.4384,4.4384,4.4485,4.4587,4.4587,4.4688,4.4976,4.5602,4.6312,4.6895,4.7131,4.8543,4.9521,4.9316,5.1176,5.2268,5.1638,5.2137,5.2444,5.2299,5.181,5.1774,5.2462,5.1864,5.1737,5.2263,5.2281,5.1538,4.9908,5.1611,5.21,5.1285,5.0615,5.056,5.1067,5.0397,5.009,0.0,0.0,0.0,0.0,0.0,0.0,0.0,0.0,0.0,0.0,0.0,0.0,0.0,0.0,0.0,0.0,0.0,0.0,0.0,0.0,0.0,0.0,0.0,0.0,0.0,0.0,0.0,0.0,0.0,0.0,0.0,0.0,3.1007,3.1692,3.0526,0.0,3.2663,3.1537,3.1901,3.3806,3.4551,3.4568,3.3955,3.4601,3.4949,3.5048,3.5048,3.5528,3.634,3.6986,3.7682,3.8411,3.9023,3.9338,3.9487,4.0133,4.0498,4.0746,4.1359,4.1988,4.2535,4.2634,4.3265,4.3963,4.4064,4.4344,4.4587,4.4587,4.4096,4.3572,4.3572,4.3014,4.2439,4.2439,4.3031,4.3572,4.3572,4.4096,4.4587,4.4587,4.5111,4.5585,4.5686,4.6312,4.7165,4.8375,4.9147,4.9978,5.1099,5.1994,5.2226,5.1411,5.2036,5.2208,5.1502,5.1991,5.2389,5.248,5.2389,5.2063,5.1466,5.1448,5.0705,4.9094,5.1339,5.21,5.1285,5.1176,5.0832,5.0253,5.0144,5.009,0.0,0.0,0.0,0.0,0.0,0.0,0.0,0.0,0.0,0.0,0.0,0.0,0.0,0.0,0.0,0.0,0.0,0.0,0.0,0.0,0.0,0.0,0.0,0.0,0.0,0.0,0.0,0.0,0.0,0.0,0.0,3.0526,3.0659,3.0948,2.9963,0.0,3.0841,3.0228,3.0808,3.2597,3.3723,3.4104,3.3822,3.4551,3.4899,3.4899,3.4899,3.5313,3.6025,3.6357,3.7168,3.8245,3.856,3.8924,3.9322,3.9636,4.0017,4.0415,4.0729,4.1044,4.1442,4.2253,4.2699,4.3009,4.3846,4.4344,4.4587,4.4587,4.4012,4.342,4.342,4.2557,4.1779,4.2202,4.254,4.2912,4.3318,4.4028,4.4587,4.4587,4.484,4.5348,4.616,4.6583,4.7157,4.8123,4.9417,5.0277,5.0468,5.1664,5.2353,5.2009,5.2281,5.2353,5.1991,5.2299,5.2498,5.2498,5.2498,5.2335,5.1991,5.1538,5.1176,5.0923,5.152,5.1411,5.0615,5.1067,5.1339,5.143,5.0977,5.076,0.0,0.0,0.0,0.0,0.0,0.0,0.0,0.0,0.0,0.0,0.0,0.0,0.0,0.0,0.0,0.0,0.0,0.0,0.0,0.0,0.0,0.0,0.0,0.0,0.0,0.0,0.0,0.0,0.0,0.0,3.0228,3.0427,3.0385,3.0245,2.9533,2.9234,2.9417,2.9599,3.0162,3.1047,3.2729,3.3508,3.3541,3.4468,3.4899,3.4899,3.4899,3.5214,3.5727,3.5926,3.6771,3.7947,3.8146,3.8642,3.9272,3.9272,3.962,4.01,4.01,4.0332,4.0812,4.1889,4.2349,4.2641,4.3762,4.4344,4.4587,4.4587,4.4012,4.342,4.342,4.232,4.139,4.2117,4.2286,4.2557,4.3504,4.4181,4.4587,4.4587,4.4874,4.55,4.6599,4.7107,4.7649,4.8472,4.9799,5.0594,5.036,5.1622,5.2426,5.2208,5.219,5.21,5.19,5.2063,5.21,5.19,5.2263,5.2498,5.2498,5.1719,5.1665,5.248,5.19,5.1194,5.0397,5.0995,5.1611,5.219,5.1774,5.1593,0.0,0.0,0.0,0.0,0.0,0.0,0.0,0.0,0.0,0.0,0.0,0.0,0.0,0.0,0.0,0.0,0.0,0.0,0.0,0.0,0.0,0.0,0.0,0.0,0.0,0.0,0.0,0.0,0.0,0.0,2.9466,3.0145,3.0195,2.9499,2.8787,2.8754,2.94,3.0112,3.0145,2.9549,3.1719,3.2746,3.2796,3.4237,3.4899,3.4899,3.4899,3.4916,3.5015,3.5711,3.6456,3.7235,3.7947,3.8642,3.9272,3.9272,3.9305,3.9338,3.9338,4.0216,4.1375,4.1442,4.2632,4.3997,4.408,4.4344,4.4587,4.4587,4.4012,4.342,4.342,4.232,4.139,4.2117,4.2286,4.2692,4.4198,4.4553,4.4587,4.4587,4.572,4.6701,4.6786,4.7953,4.9274,5.0372,5.0608,5.1121,5.2221,5.2415,5.2208,5.143,5.1357,5.1049,5.0271,5.0904,5.1031,5.0253,5.1647,5.2498,5.2498,5.1719,5.1665,5.248,5.2462,5.2027,5.123,5.1267,5.1303,5.1375,5.21,5.2426,0.0,0.0,0.0,0.0,0.0,0.0,0.0,0.0,0.0,0.0,0.0,0.0,0.0,0.0,0.0,0.0,0.0,0.0,0.0,0.0,0.0,0.0,0.0,0.0,0.0,0.0,0.0,0.0,0.0,0.0,2.9383,2.9665,2.9682,2.9417,2.8738,2.8042,2.7363,2.8075,2.8307,2.8075,3.0742,3.2,3.2067,3.4005,3.4899,3.4899,3.4899,3.4899,3.4916,3.5181,3.5727,3.6423,3.6688,3.7533,3.8593,3.8593,3.8874,3.9272,3.9272,3.9603,4.0254,4.1239,4.2072,4.2898,4.391,4.4384,4.4587,4.4587,4.4012,4.342,4.342,4.2658,4.2083,4.2828,4.3403,4.391,4.4451,4.4587,4.4722,4.5213,4.5737,4.6397,4.7344,4.7953,4.8728,5.0016,5.0497,5.0982,5.1835,5.2275,5.2389,5.21,5.1611,5.1176,5.0886,5.0651,5.0397,5.0108,5.1122,5.1719,5.1719,5.1448,5.1919,5.3241,5.2263,5.1574,5.1285,5.2335,5.257,5.2063,5.2371,5.2498,0.0,0.0,0.0,0.0,0.0,0.0,0.0,0.0,0.0,0.0,0.0,0.0,0.0,0.0,0.0,0.0,0.0,0.0,0.0,0.0,0.0,0.0,0.0,0.0,0.0,0.0,0.0,0.0,0.0,0.0,2.8655,2.8936,2.9069,2.9069,2.8141,2.7197,2.622,2.6684,2.7048,2.7334,2.9731,3.1097,3.1643,3.364,3.4667,3.4899,3.4899,3.4899,3.4899,3.4899,3.533,3.6009,3.6009,3.6903,3.8212,3.8212,3.8659,3.9272,3.9272,3.9437,3.9889,4.1283,4.1944,4.2529,4.3866,4.444,4.4587,4.4587,4.4215,4.3809,4.3809,4.325,4.2794,4.3301,4.3809,4.4265,4.4519,4.4587,4.4807,4.5568,4.5906,4.6464,4.7699,4.8122,4.8668,4.9763,5.0331,5.0929,5.15,5.188,5.1991,5.1719,5.0959,5.0379,5.0108,5.009,4.9854,4.9329,5.0542,5.1285,5.1285,5.1285,5.2172,5.4074,5.3041,5.2371,5.21,5.3186,5.3566,5.3313,5.3313,5.3313,0.0,0.0,0.0,0.0,0.0,0.0,0.0,0.0,0.0,0.0,0.0,0.0,0.0,0.0,0.0,0.0,0.0,0.0,0.0,0.0,0.0,0.0,0.0,0.0,0.0,0.0,0.0,0.0,0.0,2.6468,2.7234,2.798,2.8395,2.8412,2.6965,2.622,2.622,2.622,2.6568,2.7334,2.8721,3.0195,3.1626,3.3127,3.4203,3.4899,3.4899,3.4899,3.4899,3.4899,3.5313,3.5976,3.5976,3.687,3.8146,3.8179,3.8626,3.9239,3.9272,3.9752,4.0519,4.1433,4.2261,4.3149,4.4018,4.444,4.4587,4.4587,4.4587,4.4587,4.4587,4.3995,4.342,4.3453,4.3436,4.3639,4.4418,4.4604,4.484,4.5602,4.6312,4.7039,4.7817,4.8545,4.9229,4.9832,5.0331,5.0929,5.15,5.1412,5.0995,5.0198,4.9401,4.8586,4.7808,4.9148,4.9365,4.7844,4.9963,5.1267,5.1285,5.1303,5.2462,5.4852,5.4907,5.4544,5.3802,5.3784,5.4146,5.487,5.4907,5.4907,1.5271,0.0,0.0,0.0,0.0,0.0,0.0,0.0,0.0,0.0,0.0,0.0,0.0,0.0,0.0,0.0,0.0,0.0,0.0,0.0,0.0,0.0,0.0,0.0,0.0,0.0,0.0,0.0,0.0,2.516,2.6435,2.7181,2.7864,2.8395,2.6965,2.622,2.622,2.622,2.6568,2.7334,2.8721,3.0195,3.1626,3.3127,3.4203,3.4899,3.4899,3.4899,3.4899,3.4899,3.5015,3.5197,3.5197,3.5777,3.6671,3.7218,3.788,3.8576,3.909,3.9404,3.9839,4.136,4.2021,4.2478,4.4052,4.457,4.4587,4.4587,4.4587,4.4587,4.4587,4.3995,4.3555,4.413,4.3826,4.3639,4.4418,4.501,4.5602,4.6346,4.665,4.7192,4.8477,4.8866,4.9229,4.9832,5.0331,5.0929,5.15,5.1412,5.1194,5.0977,4.9727,4.8822,4.8605,4.8442,4.8424,4.8568,4.9745,5.0687,5.1267,5.1846,5.3023,5.487,5.4907,5.5341,5.6228,5.5649,5.4888,5.4055,5.4635,5.4907,0.0,0.0,0.0,0.0,0.0,0.0,0.0,0.0,0.0,0.0,0.0,0.0,0.0,0.0,0.0,0.0,0.0,0.0,0.0,0.0,0.0,0.0,0.0,0.0,0.0,0.0,0.0,0.0,2.3371,2.4315,2.612,2.7181,2.798,2.8412,2.7263,2.6518,2.622,2.622,2.6419,2.6849,2.829,2.9748,3.1163,3.2663,3.3905,3.4899,3.4899,3.4899,3.4899,3.4899,3.4899,3.4899,3.4899,3.5346,3.6092,3.6837,3.7582,3.8328,3.9023,3.9272,3.9508,4.0925,4.1619,4.2143,4.3613,4.4316,4.4587,4.4587,4.4587,4.4587,4.4587,4.3758,4.3149,4.391,4.3504,4.3166,4.3927,4.4942,4.5923,4.665,4.7056,4.7631,4.8798,4.9001,4.9229,4.9832,5.0331,5.0806,5.1037,5.0908,5.0669,5.0325,4.9166,4.855,4.8894,4.8786,4.8894,4.9365,5.0144,5.0796,5.1267,5.1737,5.2915,5.487,5.4907,5.5667,5.7188,5.6717,5.6029,5.5178,5.5631,5.5866,0.0,0.0,0.0,0.0,0.0,0.0,1.8042,1.8266,1.8762,0.0,0.0,0.0,0.0,0.0,0.0,0.0,0.0,0.0,0.0,0.0,0.0,0.0,0.0,0.0,0.0,0.0,0.0,2.1847,2.2559,2.3951,2.6104,2.7429,2.8207,2.8373,2.7616,2.6849,2.622,2.6286,2.6336,2.6352,2.781,2.9251,3.0692,3.205,3.3491,3.4899,3.4899,3.4899,3.4899,3.4899,3.4899,3.4899,3.4899,3.5297,3.5976,3.6721,3.745,3.8195,3.8907,3.9206,3.9441,4.0334,4.1109,4.1959,4.293,4.3782,4.4468,4.4553,4.4587,4.4587,4.4587,4.3436,4.2489,4.3234,4.2844,4.2489,4.325,4.4688,4.6024,4.6667,4.7411,4.8156,4.8883,4.9063,4.9273,4.9832,5.0387,5.0682,5.0414,5.0207,4.9782,4.9003,4.8188,4.8007,4.8731,4.9492,4.9981,5.0071,5.085,5.1339,5.1411,5.143,5.2516,5.4852,5.507,5.583,5.7188,5.7098,5.7098,5.7188,5.7188,5.7188,0.0,0.0,0.0,0.0,0.0,0.0,1.6992,1.7527,1.8087,0.0,0.0,0.0,0.0,0.0,0.0,0.0,0.0,0.0,0.0,0.0,0.0,0.0,0.0,0.0,0.0,0.0,2.1947,2.1797,2.3023,2.4497,2.612,2.6485,2.7164,2.834,2.7098,2.6352,2.622,2.6783,2.7101,2.7118,2.8522,2.998,3.1437,3.2299,3.3491,3.4899,3.4899,3.4899,3.4899,3.4899,3.4899,3.4899,3.4899,3.4982,3.5197,3.5943,3.6688,3.7433,3.8162,3.8791,3.9441,4.0334,4.0775,4.1305,4.2778,4.3394,4.3775,4.4401,4.4587,4.4587,4.4587,4.3436,4.2489,4.3234,4.2844,4.2489,4.325,4.5077,4.6616,4.6752,4.7411,4.8156,4.8883,4.9394,4.9774,4.989,5.0804,5.1165,5.0481,5.0207,4.9782,4.9003,4.8188,4.7772,4.7935,4.8677,4.942,5.0053,5.085,5.1574,5.2226,5.2263,5.3096,5.487,5.612,5.6899,5.7188,5.6536,5.6573,5.7188,5.7188,5.7188,0.0,0.0,0.0,1.7075,0.0,0.0,0.0,1.788,1.8264,0.0,0.0,0.0,0.0,0.0,0.0,0.0,0.0,0.0,0.0,0.0,0.0,0.0,0.0,0.0,0.0,0.0,2.1797,2.1797,2.2824,2.41,2.5574,2.6352,2.7081,2.7848,2.781,2.7462,2.675,2.7462,2.7864,2.7881,2.9284,3.0543,3.1626,3.2746,3.3839,3.4899,3.4899,3.4899,3.4899,3.4899,3.4899,3.4899,3.4899,3.4899,3.4982,3.5727,3.6473,3.7218,3.7947,3.8676,3.9392,3.9917,4.0391,4.097,4.187,4.2719,4.3589,4.435,4.4587,4.4587,4.4587,4.3436,4.2388,4.276,4.2286,4.2049,4.3183,4.4908,4.6464,4.7208,4.7953,4.8578,4.8951,4.9496,4.9988,5.0237,5.1052,5.129,5.0365,5.0173,4.9782,4.9003,4.855,4.8623,4.9438,4.9872,5.0434,5.1249,5.1665,5.2063,5.248,5.2498,5.3259,5.487,5.641,5.7188,5.7188,5.679,5.6808,5.7188,5.7188,5.7188,0.0,0.0,0.0,0.0,0.0,1.7568,0.0,0.0,0.0,1.9055,0.0,0.0,0.0,0.0,0.0,0.0,0.0,0.0,0.0,0.0,0.0,0.0,0.0,0.0,0.0,0.0,2.1632,2.1781,2.2344,2.3388,2.5027,2.622,2.7085,2.7516,2.8472,2.8522,2.7533,2.8207,2.8506,2.8445,2.998,3.104,3.1626,3.3127,3.4203,3.4899,3.4899,3.4899,3.4899,3.4899,3.4899,3.4899,3.4899,3.4899,3.4965,3.5578,3.634,3.7201,3.7798,3.856,3.9342,3.9432,4.0091,4.0869,4.1146,4.2247,4.3589,4.435,4.4587,4.4587,4.4587,4.3436,4.2286,4.2286,4.1728,4.1576,4.2912,4.4519,4.6092,4.7445,4.8409,4.9001,4.9001,4.9615,5.0181,5.0643,5.1312,5.1359,5.0226,5.0234,4.9963,4.9021,4.9057,4.9601,5.0741,5.1104,5.1502,5.2009,5.2317,5.2498,5.2498,5.2788,5.3639,5.5088,5.6482,5.7188,5.7188,5.7188,5.7188,5.7188,5.7188,5.7188,0.0,0.0,0.0,0.0,1.7443,0.0,0.0,0.0,1.7623,1.7706,0.0,0.0,0.0,0.0,0.0,0.0,0.0,0.0,0.0,0.0,0.0,0.0,0.0,0.0,0.0,0.0,0.0,2.1748,2.1864,2.2841,2.4994,2.5259,2.6236,2.8229,2.7815,2.7798,2.8296,2.8953,2.8986,2.8406,3.0493,3.1494,3.1626,3.3127,3.4203,3.4899,3.4899,3.4899,3.4899,3.4899,3.4899,3.4899,3.4899,3.4899,3.4916,3.4982,3.5909,3.7119,3.7201,3.8233,3.9501,3.9501,4.0196,4.1096,4.1912,4.276,4.3589,4.435,4.4587,4.4587,4.4587,4.3436,4.2286,4.2286,4.1728,4.1424,4.2252,4.4147,4.594,4.6769,4.8054,4.9001,4.9001,4.9896,5.0643,5.068,5.1651,5.1855,5.0289,5.0705,5.0578,4.9075,4.9546,4.9745,4.9238,5.047,5.1013,5.0397,5.1701,5.2498,5.2498,5.3874,5.5015,5.5848,5.6736,5.7188,5.7188,5.7188,5.7188,5.7188,5.7188,5.7188,0.0,0.0,0.0,0.0,0.0,0.0,0.0,0.0,1.7515,0.0,0.0,0.0,0.0,0.0,0.0,0.0,0.0,0.0,0.0,0.0,0.0,0.0,0.0,0.0,0.0,0.0,0.0,0.0,0.0,2.2576,2.4365,2.4878,2.5922,2.7715,2.8241,2.8671,2.8969,2.9698,2.9914,2.9648,3.1404,3.2249,3.2299,3.3773,3.4601,3.4899,3.4899,3.4899,3.4899,3.4899,3.4899,3.4899,3.4899,3.4899,3.4899,3.4899,3.5827,3.7102,3.7102,3.8166,3.9554,3.9694,4.0051,4.0713,4.1931,4.2219,4.2472,4.4113,4.4248,4.4012,4.4468,4.3436,4.2405,4.2844,4.1711,4.0984,4.2591,4.4062,4.5399,4.6566,4.7986,4.9001,4.9001,4.9953,5.0697,5.0697,5.1701,5.1919,5.0289,5.0796,5.085,4.9709,5.0307,5.0651,5.0325,5.1339,5.1647,5.0832,5.2299,5.3204,5.3204,5.4707,5.5685,5.5975,5.679,5.7188,5.7188,5.7188,5.7188,5.7188,5.7188,5.7188,1.8021,0.0,0.0,0.0,0.0,0.0,0.0,0.0,0.0,0.0,0.0,0.0,0.0,0.0,0.0,0.0,0.0,0.0,0.0,0.0,0.0,0.0,0.0,0.0,0.0,0.0,0.0,0.0,2.1483,0.0,2.3619,2.4398,2.5574,2.7267,2.8489,2.9317,2.9715,3.0245,3.0526,3.0543,3.2,3.268,3.2729,3.422,3.4899,3.4899,3.4899,3.4899,3.4899,3.4899,3.4899,3.4899,3.4899,3.4899,3.4899,3.4899,3.5827,3.7102,3.7102,3.8166,3.959,3.9901,4.0037,4.0324,4.1593,4.1627,4.1627,4.369,4.3859,4.3606,4.4384,4.3436,4.2422,4.298,4.1559,4.0696,4.2929,4.4028,4.5077,4.6769,4.8139,4.9001,4.9001,4.9797,5.0535,5.0697,5.1601,5.1816,5.0597,5.1122,5.1303,5.0488,5.114,5.1448,5.0995,5.19,5.2335,5.1973,5.2842,5.3657,5.4309,5.5395,5.6084,5.6319,5.6899,5.7188,5.7188,5.7188,5.7188,5.7188,5.7188,5.7188,0.0,0.0,0.0,0.0,0.0,0.0,0.0,0.0,1.7515,0.0,0.0,0.0,0.0,0.0,0.0,0.0,0.0,0.0,0.0,0.0,0.0,0.0,0.0,0.0,0.0,0.0,0.0,0.0,2.0749,0.0,2.2857,2.3636,2.5027,2.7234,2.8047,2.9085,3.0477,3.051,3.0526,3.0543,3.2,3.268,3.2729,3.422,3.4899,3.4899,3.4899,3.4899,3.4899,3.4899,3.4899,3.4899,3.4899,3.4899,3.4899,3.4899,3.5827,3.7102,3.7102,3.8252,3.9729,4.0037,4.0087,4.0223,4.1001,4.1221,4.1508,4.3031,4.3436,4.3606,4.4384,4.3436,4.2303,4.232,4.117,4.0696,4.2929,4.4028,4.5229,4.7445,4.8494,4.9001,4.9001,4.9496,5.0085,5.0643,5.1209,5.1531,5.1294,5.1955,5.2154,5.1339,5.1973,5.1828,5.0253,5.1574,5.2824,5.3585,5.2933,5.3548,5.5812,5.5957,5.6355,5.7152,5.7188,5.7188,5.7188,5.7188,5.7188,5.7188,5.7188,5.7188,0.0,0.0,1.9661,1.8468,0.0,0.0,0.0,0.0,0.0,0.0,0.0,0.0,0.0,0.0,0.0,0.0,0.0,0.0,0.0,0.0,0.0,0.0,0.0,0.0,0.0,0.0,0.0,2.0699,2.1135,2.2062,0.0,2.3868,2.5243,2.7964,2.8296,2.9069,3.051,3.0029,3.0029,3.0526,3.152,3.2232,3.2729,3.422,3.4899,3.4899,3.4899,3.4899,3.4899,3.4899,3.4899,3.4899,3.4899,3.4899,3.4899,3.4899,3.5827,3.7235,3.8402,3.9224,3.9729,4.002,4.007,4.0223,4.0984,4.0849,4.0865,4.2861,4.3064,4.2963,4.4248,4.3436,4.2422,4.2912,4.1525,4.0544,4.2286,4.3673,4.4959,4.621,4.7834,4.9001,4.9001,4.9496,5.0085,5.0643,5.1533,5.1788,5.0651,5.1665,5.1991,5.0633,5.1701,5.2063,5.0977,5.1375,5.2045,5.286,5.3657,5.4653,5.5939,5.65,5.6917,5.7188,5.7188,5.7188,5.7188,5.7188,5.7188,5.7188,5.7188,5.7188,2.038,2.0569,0.0,0.0,1.9332,0.0,0.0,0.0,0.0,0.0,0.0,0.0,0.0,0.0,0.0,0.0,0.0,0.0,0.0,0.0,0.0,0.0,0.0,0.0,0.0,0.0,2.0141,2.0655,2.1118,2.2046,0.0,0.0,2.5226,2.7931,2.8279,2.8936,3.0112,2.9648,2.9648,3.0145,3.1097,3.2,3.2729,3.422,3.4899,3.4899,3.4899,3.4899,3.4899,3.4899,3.4899,3.4899,3.4899,3.4899,3.4899,3.4899,3.5875,3.7402,3.9124,3.9729,3.9781,4.0037,4.007,4.0172,4.0646,4.046,4.0426,4.2151,4.2455,4.2574,4.3842,4.3234,4.2422,4.2912,4.1508,4.0476,4.1965,4.3487,4.4874,4.5889,4.7665,4.9001,4.9001,4.9656,5.0293,5.0643,5.1533,5.1896,5.1067,5.1611,5.1774,5.1013,5.1629,5.1973,5.1737,5.1194,5.1574,5.3241,5.4055,5.507,5.6373,5.6917,5.7333,5.7623,5.7351,5.7333,5.7623,5.7333,5.7188,5.7188,5.7188,5.7188]},{"header":{"parameterUnit":"m.s-1","parameterCategory":1,"la1":30.6,"la2":29.2853,"lo1":-89.7004,"lo2":-87.6739,"dx":0.0162,"dy":0.0183,"nx":112,"ny":82,"refTime":"2023-02-10T18:00:00:Z","depth":0,"parameterNumber":3,"parameterNumberName":"V-component_of_WINDS"},"data":[0.0,0.0,0.0,0.0,0.0,0.0,0.0,0.0,0.0,0.0,0.0,0.0,0.0,0.0,0.0,0.0,0.0,0.0,0.0,0.0,0.0,0.0,0.0,0.0,0.0,0.0,0.0,0.0,0.0,0.0,0.0,0.0,0.0,0.0,0.0,0.0,0.0,0.0,0.0,0.0,0.0,0.0,0.0,0.0,0.0,0.0,0.0,0.0,0.0,0.0,0.0,0.0,0.0,0.0,0.0,0.0,0.0,0.0,0.0,0.0,0.0,0.0,0.0,0.0,0.0,0.0,0.0,0.0,0.0,0.0,0.0,0.0,0.0,0.0,0.0,0.0,0.0,0.0,0.0,0.0,0.0,0.0,0.0,0.0,0.0,0.0,0.0,0.0,0.0,0.0,0.0,-1.1325,-1.2875,-1.4148,-1.4925,-1.4573,-1.3724,-1.2391,0.0,0.0,0.0,0.0,0.0,0.0,0.0,0.0,0.0,0.0,0.0,0.0,0.0,0.0,0.0,0.0,0.0,0.0,0.0,0.0,0.0,0.0,0.0,0.0,0.0,0.0,0.0,0.0,0.0,0.0,0.0,0.0,0.0,0.0,0.0,0.0,0.0,0.0,0.0,0.0,0.0,0.0,0.0,0.0,0.0,0.0,0.0,0.0,0.0,0.0,0.0,0.0,0.0,0.0,0.0,0.0,0.0,0.0,0.0,0.0,0.0,0.0,0.0,0.0,0.0,0.0,0.0,0.0,0.0,0.0,0.0,0.0,0.0,0.0,0.0,0.0,0.0,0.0,0.0,0.0,0.0,0.0,0.0,0.0,0.0,0.0,0.0,0.0,0.0,0.0,0.0,0.0,0.0,0.0,0.0,0.0,0.0,0.0,0.0,0.0,0.0,0.0,0.0,0.0,-1.1108,-1.3538,-1.4386,-1.4852,-1.4987,-1.4573,-1.3724,-1.2391,0.0,0.0,0.0,0.0,0.0,0.0,0.0,0.0,0.0,0.0,0.0,0.0,0.0,0.0,0.0,0.0,0.0,0.0,0.0,0.0,0.0,0.0,0.0,0.0,0.0,0.0,0.0,0.0,0.0,0.0,0.0,0.0,0.0,0.0,0.0,0.0,0.0,0.0,0.0,0.0,0.0,0.0,0.0,0.0,0.0,0.0,0.0,0.0,0.0,0.0,0.0,0.0,0.0,0.0,0.0,0.0,0.0,0.0,0.0,0.0,0.0,0.0,0.0,0.0,0.0,0.0,0.0,0.0,0.0,0.0,0.0,0.0,0.0,0.0,0.0,0.0,0.0,0.0,0.0,0.0,0.0,0.0,0.0,0.0,0.0,0.0,0.0,0.0,0.0,0.0,0.0,0.0,0.0,0.0,0.0,0.0,0.0,0.0,0.0,0.0,0.0,0.0,0.0,-1.034,-1.154,-1.4035,-1.4273,-1.4345,-1.4604,-1.42,-1.3455,-1.237,-1.2451,0.0,0.0,0.0,0.0,0.0,0.0,0.0,0.0,0.0,0.0,0.0,0.0,0.0,0.0,0.0,0.0,0.0,0.0,0.0,0.0,0.0,0.0,0.0,0.0,0.0,0.0,0.0,0.0,0.0,0.0,0.0,0.0,0.0,0.0,0.0,0.0,0.0,0.0,0.0,0.0,0.0,0.0,0.0,0.0,0.0,0.0,0.0,0.0,0.0,0.0,0.0,0.0,0.0,0.0,0.0,0.0,0.0,0.0,0.0,0.0,0.0,0.0,0.0,0.0,0.0,0.0,0.0,0.0,0.0,0.0,0.0,0.0,0.0,0.0,0.0,0.0,0.0,0.0,0.0,0.0,0.0,0.0,0.0,0.0,0.0,0.0,0.0,0.0,0.0,0.0,0.0,0.0,0.0,0.0,0.0,0.0,0.0,0.0,0.0,0.0,0.0,0.0,-1.1271,-1.2244,-1.4107,-1.3993,-1.3921,-1.4273,-1.3879,-1.3227,-1.2359,-1.2222,0.0,0.0,0.0,0.0,0.0,0.0,0.0,0.0,0.0,0.0,0.0,0.0,0.0,0.0,0.0,0.0,0.0,0.0,0.0,0.0,0.0,0.0,0.0,0.0,0.0,0.0,0.0,0.0,0.0,0.0,0.0,0.0,0.0,0.0,0.0,0.0,0.0,0.0,0.0,0.0,0.0,0.0,0.0,0.0,0.0,0.0,0.0,0.0,0.0,0.0,0.0,0.0,0.0,0.0,0.0,0.0,0.0,0.0,0.0,0.0,0.0,0.0,0.0,0.0,0.0,0.0,0.0,0.0,0.0,0.0,0.0,0.0,0.0,0.0,0.0,0.0,0.0,0.0,0.0,0.0,0.0,0.0,0.0,0.0,0.0,0.0,0.0,0.0,0.0,0.0,0.0,0.0,0.0,0.0,0.0,0.0,0.0,0.0,0.0,0.0,0.0,0.0,-1.2368,-1.3652,-1.4242,-1.4273,-1.4273,-1.4304,-1.3879,-1.3227,-1.2359,-1.191,0.0,0.0,0.0,0.0,0.0,0.0,0.0,0.0,0.0,0.0,0.0,0.0,0.0,0.0,0.0,0.0,0.0,0.0,0.0,0.0,0.0,0.0,0.0,0.0,0.0,0.0,0.0,0.0,0.0,0.0,0.0,0.0,0.0,0.0,0.0,0.0,0.0,0.0,0.0,0.0,0.0,0.0,0.0,0.0,0.0,0.0,0.0,0.0,0.0,0.0,0.0,0.0,0.0,0.0,0.0,0.0,0.0,0.0,0.0,0.0,0.0,0.0,0.0,0.0,0.0,0.0,0.0,0.0,0.0,0.0,0.0,0.0,0.0,0.0,0.0,0.0,0.0,0.0,0.0,0.0,0.0,0.0,0.0,0.0,0.0,0.0,0.0,0.0,0.0,0.0,0.0,0.0,0.0,0.0,0.0,0.0,0.0,0.0,0.0,0.0,0.0,0.0,-1.2214,-1.3062,0.0,-1.3869,-1.382,-1.3772,-1.3666,-1.3181,-1.223,0.0,0.0,0.0,0.0,0.0,0.0,0.0,0.0,0.0,0.0,0.0,0.0,0.0,0.0,0.0,0.0,0.0,0.0,0.0,0.0,0.0,0.0,0.0,0.0,0.0,0.0,0.0,0.0,0.0,0.0,0.0,0.0,0.0,0.0,0.0,0.0,0.0,0.0,0.0,0.0,0.0,0.0,0.0,0.0,0.0,0.0,0.0,0.0,0.0,0.0,0.0,0.0,0.0,0.0,0.0,0.0,0.0,0.0,0.0,0.0,0.0,0.0,0.0,0.0,0.0,0.0,0.0,0.0,0.0,0.0,0.0,0.0,0.0,0.0,0.0,0.0,0.0,0.0,0.0,0.0,0.0,0.0,0.0,0.0,0.0,0.0,0.0,0.0,0.0,0.0,0.0,0.0,0.0,0.0,0.0,0.0,0.0,0.0,0.0,0.0,0.0,0.0,-1.1539,-1.2266,-1.2927,0.0,-1.3621,-1.3563,-1.3467,-1.3515,-1.3135,-1.2177,0.0,0.0,0.0,0.0,0.0,0.0,0.0,0.0,0.0,0.0,0.0,0.0,0.0,0.0,0.0,0.0,0.0,0.0,0.0,0.0,0.0,0.0,0.0,0.0,0.0,0.0,0.0,0.0,0.0,0.0,0.0,0.0,0.0,0.0,0.0,0.0,0.0,0.0,0.0,0.0,0.0,0.0,0.0,0.0,0.0,0.0,0.0,0.0,0.0,0.0,0.0,0.0,0.0,0.0,0.0,0.0,0.0,0.0,0.0,0.0,0.0,0.0,0.0,0.0,0.0,0.0,0.0,0.0,0.0,0.0,0.0,0.0,0.0,0.0,0.0,0.0,0.0,0.0,0.0,0.0,0.0,0.0,0.0,0.0,0.0,0.0,0.0,0.0,0.0,0.0,0.0,0.0,0.0,0.0,0.0,0.0,0.0,0.0,0.0,0.0,0.0,0.0,-1.1622,-1.2772,-1.3621,-1.3621,-1.3621,-1.3621,-1.361,-1.3467,-1.3032,0.0,0.0,0.0,0.0,0.0,0.0,0.0,0.0,0.0,0.0,0.0,0.0,0.0,0.0,0.0,0.0,0.0,0.0,0.0,0.0,0.0,0.0,0.0,0.0,0.0,0.0,0.0,0.0,0.0,0.0,0.0,0.0,0.0,0.0,0.0,0.0,0.0,0.0,0.0,0.0,0.0,0.0,0.0,0.0,0.0,0.0,0.0,0.0,0.0,0.0,0.0,0.0,0.0,0.0,0.0,0.0,0.0,0.0,0.0,0.0,0.0,0.0,0.0,0.0,0.0,0.0,0.0,0.0,0.0,0.0,0.0,0.0,0.0,0.0,0.0,0.0,0.0,0.0,0.0,0.0,0.0,0.0,0.0,0.0,0.0,0.0,0.0,0.0,0.0,0.0,0.0,0.0,0.0,0.0,0.0,0.0,0.0,0.0,0.0,0.0,0.0,0.0,0.0,0.0,-1.2969,-1.3563,-1.3467,-1.3467,-1.3382,-1.3258,-1.3228,-1.2752,-1.1479,0.0,0.0,0.0,0.0,0.0,0.0,0.0,0.0,0.0,0.0,0.0,0.0,0.0,0.0,0.0,0.0,0.0,0.0,0.0,0.0,0.0,0.0,0.0,0.0,0.0,0.0,0.0,0.0,0.0,0.0,0.0,0.0,0.0,0.0,0.0,0.0,0.0,0.0,0.0,0.0,0.0,0.0,0.0,0.0,0.0,0.0,0.0,0.0,0.0,0.0,0.0,0.0,0.0,0.0,0.0,0.0,0.0,0.0,0.0,0.0,0.0,0.0,0.0,0.0,0.0,0.0,0.0,0.0,0.0,0.0,0.0,0.0,0.0,0.0,0.0,0.0,0.0,0.0,0.0,0.0,0.0,0.0,0.0,0.0,0.0,0.0,0.0,0.0,0.0,0.0,0.0,0.0,0.0,0.0,0.0,0.0,0.0,0.0,0.0,0.0,0.0,0.0,-1.2307,-1.3051,-1.3573,-1.3409,-1.342,-1.3324,-1.3152,-1.3152,-1.2701,-1.1676,0.0,0.0,0.0,0.0,0.0,0.0,0.0,0.0,0.0,0.0,0.0,0.0,0.0,0.0,0.0,0.0,0.0,0.0,0.0,0.0,0.0,0.0,0.0,0.0,0.0,0.0,0.0,0.0,0.0,0.0,0.0,0.0,0.0,0.0,0.0,0.0,0.0,0.0,0.0,0.0,0.0,0.0,0.0,0.0,0.0,0.0,0.0,0.0,0.0,0.0,0.0,0.0,0.0,0.0,0.0,0.0,0.0,0.0,0.0,0.0,0.0,0.0,0.0,0.0,0.0,0.0,0.0,0.0,0.0,0.0,0.0,0.0,0.0,0.0,0.0,0.0,0.0,0.0,0.0,0.0,0.0,0.0,0.0,0.0,0.0,0.0,0.0,0.0,0.0,0.0,0.0,0.0,0.0,0.0,0.0,0.0,0.0,0.0,0.0,0.0,0.0,0.0,-1.2307,-1.3051,-1.3515,-1.342,-1.3372,-1.3324,-1.317,-1.3113,-1.2887,-1.2365,0.0,0.0,0.0,0.0,0.0,0.0,0.0,0.0,0.0,0.0,0.0,0.0,0.0,0.0,0.0,0.0,0.0,0.0,0.0,0.0,0.0,0.0,0.0,0.0,0.0,0.0,0.0,0.0,0.0,0.0,0.0,0.0,0.0,0.0,0.0,0.0,0.0,0.0,0.0,0.0,0.0,0.0,0.0,0.0,0.0,0.0,0.0,0.0,0.0,0.0,0.0,0.0,0.0,0.0,0.0,0.0,0.0,0.0,0.0,0.0,-0.8114,0.0,0.0,0.0,0.0,0.0,0.0,0.0,0.0,0.0,0.0,0.0,0.0,0.0,0.0,0.0,0.0,0.0,0.0,0.0,0.0,0.0,0.0,0.0,0.0,0.0,0.0,0.0,0.0,0.0,0.0,0.0,0.0,0.0,0.0,0.0,0.0,0.0,0.0,0.0,0.0,0.0,-1.2307,-1.296,-1.3409,-1.3266,-1.32,-1.3113,-1.2968,-1.2978,-1.2599,-1.1818,0.0,0.0,0.0,0.0,0.0,0.0,0.0,0.0,0.0,0.0,0.0,0.0,0.0,0.0,0.0,0.0,0.0,0.0,0.0,0.0,0.0,0.0,0.0,0.0,0.0,0.0,0.0,0.0,0.0,0.0,0.0,0.0,0.0,0.0,0.0,0.0,0.0,0.0,0.0,0.0,0.0,0.0,0.0,0.0,0.0,0.0,0.0,0.0,0.0,0.0,0.0,0.0,0.0,0.0,0.0,0.0,0.0,0.0,0.0,0.0,0.0,-0.8638,0.0,0.0,0.0,0.0,0.0,0.0,0.0,0.0,0.0,0.0,0.0,0.0,0.0,0.0,0.0,0.0,0.0,0.0,0.0,0.0,0.0,0.0,0.0,0.0,0.0,0.0,0.0,0.0,0.0,0.0,0.0,0.0,0.0,0.0,0.0,0.0,0.0,0.0,0.0,0.0,-1.2307,-1.3006,-1.342,-1.3218,-1.318,-1.3055,-1.2929,-1.2881,-1.2735,-1.2263,-1.1771,0.0,0.0,0.0,0.0,0.0,0.0,0.0,0.0,0.0,0.0,0.0,0.0,0.0,0.0,0.0,0.0,0.0,0.0,0.0,0.0,0.0,0.0,0.0,0.0,0.0,0.0,0.0,0.0,0.0,0.0,0.0,0.0,0.0,0.0,0.0,0.0,0.0,0.0,0.0,0.0,0.0,0.0,0.0,0.0,0.0,0.0,0.0,0.0,0.0,0.0,0.0,0.0,0.0,0.0,0.0,-1.1355,-1.1355,-1.1592,-1.1861,-1.019,-0.9585,-0.9721,0.0,0.0,0.0,0.0,0.0,0.0,0.0,0.0,0.0,0.0,0.0,0.0,0.0,0.0,0.0,0.0,0.0,0.0,0.0,0.0,0.0,0.0,0.0,0.0,0.0,-1.2388,-1.2565,0.0,0.0,0.0,0.0,0.0,0.0,0.0,0.0,0.0,0.0,0.0,0.0,-1.2492,-1.3207,-1.3624,-1.33,-1.329,-1.3173,-1.2939,-1.2881,-1.2881,-1.2881,-1.1813,-1.1107,0.0,0.0,0.0,0.0,0.0,0.0,0.0,0.0,0.0,0.0,0.0,0.0,0.0,0.0,0.0,0.0,0.0,0.0,0.0,0.0,0.0,0.0,0.0,0.0,0.0,0.0,0.0,0.0,0.0,0.0,0.0,0.0,-1.0332,-0.9831,0.0,0.0,0.0,0.0,0.0,0.0,0.0,0.0,0.0,0.0,0.0,0.0,0.0,0.0,-1.0613,-1.1147,-1.1632,-1.2048,-1.2451,-1.2875,-1.3258,-1.3258,-1.3289,-1.3264,-1.2293,0.0,-1.1265,-1.0585,0.0,0.0,0.0,0.0,0.0,0.0,0.0,0.0,0.0,0.0,0.0,0.0,0.0,0.0,0.0,0.0,0.0,0.0,0.0,0.0,0.0,0.0,-1.3271,-1.3691,-1.3838,-1.3867,0.0,-1.3066,-1.2228,-1.165,0.0,0.0,0.0,0.0,0.0,0.0,0.0,0.0,-1.3179,-1.3801,-1.4037,-1.367,-1.3519,-1.3322,-1.291,-1.2881,-1.2881,-1.2881,-1.2725,-1.2426,-1.2004,-1.1039,0.0,0.0,0.0,0.0,0.0,0.0,0.0,0.0,0.0,0.0,0.0,0.0,0.0,0.0,0.0,0.0,0.0,0.0,0.0,0.0,0.0,0.0,0.0,0.0,0.0,0.0,0.0,0.0,0.0,-0.9685,-0.9675,-0.9477,-0.9519,-0.9337,0.0,0.0,0.0,0.0,0.0,0.0,0.0,0.0,0.0,-1.1333,-1.1375,-1.1716,-1.2387,-1.2886,-1.3207,-1.3414,-1.3869,-1.42,-1.4397,-1.4397,-1.4397,-1.4376,-1.3981,-1.3723,-1.3356,-1.1555,-1.0409,-0.9762,0.0,0.0,0.0,0.0,0.0,-0.887,-0.9491,0.0,0.0,0.0,0.0,0.0,0.0,0.0,0.0,0.0,0.0,0.0,0.0,0.0,0.0,-1.398,-1.4077,-1.4077,-1.4077,-1.3939,-1.3609,0.0,-1.276,-1.2533,-1.1945,0.0,0.0,0.0,0.0,0.0,-1.366,-1.4132,-1.4337,-1.4044,-1.3962,-1.3841,-1.3603,-1.3584,-1.3584,-1.3584,-1.3265,-1.2819,-1.2059,-1.1336,-1.0531,0.0,0.0,0.0,0.0,0.0,0.0,0.0,0.0,0.0,0.0,0.0,0.0,0.0,0.0,0.0,0.0,0.0,0.0,0.0,0.0,0.0,0.0,0.0,0.0,0.0,0.0,0.0,0.0,-0.9561,-0.952,-0.936,-0.9647,-0.9592,0.0,0.0,0.0,0.0,0.0,0.0,-1.0787,-1.0743,-1.1375,-1.2785,-1.2827,-1.3165,-1.3962,-1.4314,-1.4542,-1.4666,-1.5132,-1.5411,-1.5525,-1.5649,-1.5701,-1.568,-1.5452,-1.5349,-1.513,-1.2466,-1.1123,-1.0615,-1.0203,-0.9867,0.0,-0.9734,-0.9611,-0.9517,-1.0541,-1.0573,-1.0189,-1.0285,0.0,-0.9501,-0.9305,0.0,0.0,0.0,0.0,-1.2503,-1.3562,0.0,-1.3936,-1.4365,-1.4408,-1.4408,-1.4408,-1.4639,-1.4615,0.0,-1.3608,-1.3283,-1.2752,0.0,0.0,0.0,0.0,-1.4031,-1.414,-1.4477,-1.4641,-1.4424,-1.4415,-1.4365,-1.4141,-1.4077,-1.4077,-1.4077,-1.3584,-1.296,-1.2245,-1.1531,-1.077,0.0,0.0,0.0,0.0,0.0,0.0,0.0,0.0,0.0,0.0,0.0,0.0,0.0,0.0,0.0,0.0,0.0,0.0,0.0,0.0,0.0,0.0,0.0,0.0,0.0,0.0,0.0,0.0,0.0,0.0,-0.976,-1.0421,0.0,0.0,0.0,0.0,-1.0249,-1.0625,-1.124,-1.2152,-1.2204,-1.2837,-1.4159,-1.42,-1.4438,-1.4925,-1.4956,-1.5183,-1.5628,-1.6094,-1.6529,-1.6894,-1.7337,-1.7533,-1.7543,-1.6684,-1.6312,-1.6141,-1.3508,-1.2344,-1.2015,-1.0311,-0.9612,-0.9585,-0.9467,-0.9687,-1.0041,-1.0107,-1.0368,-1.0504,-1.0217,-0.9894,-0.9725,-1.0561,-1.0541,0.0,0.0,-1.2183,-1.2844,-1.4328,-1.4717,-1.4834,-1.5244,-1.5342,-1.5342,-1.5342,-1.5049,-1.4648,0.0,-1.4424,-1.4424,-1.3584,0.0,0.0,-1.365,-1.3985,-1.4419,-1.4899,-1.5202,-1.5195,-1.4795,-1.4756,-1.459,-1.4116,-1.4077,-1.4077,-1.4077,-1.3539,-1.3204,-1.3132,-1.2006,-1.1225,-1.0816,-1.0339,0.0,0.0,0.0,0.0,0.0,0.0,0.0,0.0,0.0,0.0,0.0,0.0,0.0,0.0,0.0,0.0,0.0,0.0,0.0,0.0,0.0,0.0,0.0,0.0,0.0,0.0,0.0,0.0,-1.1088,-1.1827,0.0,0.0,-1.1828,-1.2048,-1.1965,-1.2668,-1.3372,-1.3993,-1.4304,-1.4831,-1.5618,-1.5639,-1.5856,-1.6255,-1.6312,-1.6539,-1.7005,-1.7171,-1.7336,-1.743,-1.7595,-1.7668,-1.7657,-1.7388,-1.7253,-1.7121,-1.5546,-1.4463,-1.3743,-1.3082,-1.2846,-1.2914,-1.2518,-1.2624,-1.2978,-1.2865,-1.2413,-1.1817,-1.1011,-1.0507,-1.0357,-1.0853,-1.1336,-1.1726,-1.2143,-1.3111,-1.4136,-1.4845,-1.53,-1.5644,-1.5801,-1.6055,-1.6182,-1.5898,-1.5937,-1.5996,-1.584,-1.5254,-1.4687,-1.4385,-1.4606,-1.4704,-1.4429,-1.4743,-1.5076,-1.5233,-1.5322,-1.5352,-1.5205,-1.5186,-1.5127,-1.4971,-1.4961,-1.4961,-1.4961,-1.4725,-1.4147,-1.309,-1.2855,-1.2222,-1.1073,-1.1049,-1.0777,0.0,0.0,0.0,0.0,0.0,0.0,0.0,0.0,0.0,0.0,0.0,0.0,0.0,0.0,0.0,0.0,0.0,0.0,0.0,0.0,0.0,0.0,0.0,0.0,0.0,0.0,-1.2131,-1.2005,-1.3031,-1.3486,-1.2882,-1.3518,-1.3966,-1.3859,-1.4573,-1.5204,-1.5659,-1.598,-1.6353,-1.6819,-1.6839,-1.6984,-1.7214,-1.7214,-1.7368,-1.7668,-1.7885,-1.7957,-1.7957,-1.8112,-1.8185,-1.8175,-1.8019,-1.7957,-1.7853,-1.7073,-1.6246,-1.5431,-1.4779,-1.4421,-1.42,-1.3915,-1.3985,-1.4285,-1.4414,-1.384,-1.2987,-1.2491,-1.202,-1.1707,-1.1927,-1.2202,-1.253,-1.3054,-1.3935,-1.4896,-1.551,-1.5971,-1.6289,-1.6289,-1.6514,-1.665,-1.6357,-1.6523,-1.6665,-1.6665,-1.6035,-1.5439,-1.5439,-1.5674,-1.5713,-1.5283,-1.5586,-1.5801,-1.5654,-1.5762,-1.5859,-1.5859,-1.5859,-1.5859,-1.5859,-1.5723,-1.5693,-1.585,-1.5153,-1.4401,-1.3563,-1.3086,-1.2419,-1.1399,-1.1611,-1.1509,-1.1077,0.0,0.0,0.0,0.0,0.0,0.0,0.0,0.0,0.0,0.0,0.0,0.0,0.0,0.0,0.0,0.0,0.0,0.0,0.0,0.0,0.0,0.0,0.0,-1.1263,-1.2352,-1.2996,-1.258,-1.4052,-1.4728,-1.3828,-1.4956,-1.5753,-1.5753,-1.6177,-1.6632,-1.7018,-1.7059,-1.7276,-1.7719,-1.7802,-1.7802,-1.7802,-1.7802,-1.774,-1.776,-1.8226,-1.8423,-1.8433,-1.8868,-1.9075,-1.9044,-1.8599,-1.8402,-1.8371,-1.7947,-1.7512,-1.7036,-1.5311,-1.4066,-1.3324,-1.3476,-1.3648,-1.3957,-1.4601,-1.4329,-1.3874,-1.4518,-1.4255,-1.3733,-1.3683,-1.3199,-1.2916,-1.4247,-1.4632,-1.4959,-1.6357,-1.6685,-1.6748,-1.6748,-1.6758,-1.6768,-1.6694,-1.6714,-1.6787,-1.6714,-1.6724,-1.6777,-1.6738,-1.6665,-1.6592,-1.6213,-1.6455,0.0,-1.6143,-1.6465,-1.6665,-1.6665,-1.6665,-1.6665,-1.6665,-1.6338,-1.6269,-1.6646,-1.4691,-1.387,-1.4533,-1.2671,-1.1799,-1.1978,-1.2036,-1.1971,-1.1971,0.0,0.0,0.0,0.0,0.0,0.0,0.0,0.0,0.0,0.0,0.0,0.0,0.0,0.0,0.0,0.0,0.0,0.0,0.0,0.0,0.0,0.0,-1.3215,-1.301,-1.4153,-1.5195,-1.567,-1.6477,-1.6881,-1.6622,-1.6943,-1.7171,-1.7171,-1.7574,-1.803,-1.8485,-1.8837,-1.9075,-1.9199,-1.9199,-1.9199,-1.9199,-1.9199,-1.9365,-1.9686,-1.9479,-1.9453,-1.9443,-1.9235,-1.9075,-1.9065,-1.894,-1.8878,-1.8868,-1.8754,-1.8441,-1.7953,-1.6884,-1.6369,-1.6281,-1.629,-1.6552,-1.6696,-1.5781,-1.5198,-1.4706,-1.3821,-1.3596,-1.3707,-1.3946,-1.4438,-1.4937,-1.5091,-1.5573,-1.6204,-1.6431,-1.6852,-1.7207,-1.7207,-1.7441,-1.7578,-1.7266,-1.7686,-1.8018,-1.7715,-1.791,-1.7745,-1.6831,-1.6665,-1.6689,-1.6562,0.0,0.0,-1.6562,-1.665,-1.6665,-1.6665,-1.6665,-1.6665,-1.6665,-1.6088,-1.5806,0.0,-1.483,-1.4095,-1.3826,-1.3254,-1.2747,-1.2387,-1.2087,-1.1971,0.0,0.0,0.0,0.0,0.0,0.0,0.0,0.0,0.0,0.0,0.0,0.0,0.0,0.0,0.0,0.0,0.0,0.0,0.0,0.0,0.0,0.0,-1.3768,-1.4882,-1.5548,-1.598,-1.6519,-1.7183,-1.7729,-1.8081,-1.8278,-1.8464,-1.8661,-1.8847,-1.9096,-1.9354,-1.9624,-1.9893,-2.0038,-2.0038,-2.0038,-2.0038,-2.0038,-2.0038,-2.0172,-2.042,-1.9975,-1.9862,-2.0027,-1.9572,-1.9354,0.0,-1.9354,-1.9251,-1.9075,-1.9075,-1.9023,0.0,0.0,0.0,0.0,0.0,-1.7098,-1.7019,-1.6733,-1.6372,-1.5901,-1.529,-1.4872,-1.4602,-1.5137,-1.5249,-1.5399,-1.5839,-1.6358,-1.6835,-1.7006,-1.7485,-1.791,-1.791,-1.8232,-1.8477,-1.8232,-1.8564,-1.8838,-1.8594,0.0,0.0,-1.7695,-1.7383,-1.7207,-1.7031,-1.7158,-1.7207,0.0,-1.7158,-1.7266,-1.7266,-1.7266,-1.7266,-1.7266,-1.6701,0.0,0.0,0.0,-1.4632,-1.3643,0.0,0.0,0.0,0.0,-1.2716,0.0,0.0,0.0,0.0,-1.2182,-1.1977,0.0,0.0,0.0,0.0,0.0,0.0,0.0,0.0,0.0,0.0,0.0,0.0,0.0,0.0,0.0,0.0,-1.5185,-1.6733,-1.8352,-1.7895,-1.7513,-1.7925,-1.8371,-1.8775,-1.9178,-1.9592,-2.0006,-2.0389,-2.042,-2.0452,-2.0503,0.0,0.0,0.0,0.0,-2.0586,-2.0586,-2.0586,-2.0586,-2.0576,-2.0131,-2.012,-2.0493,-2.0038,-1.99,-1.99,-1.99,-1.9603,-1.922,-1.922,-1.94,-1.9522,-1.9056,-1.8054,-1.6901,-1.7073,-1.6551,0.0,0.0,0.0,0.0,-1.7304,-1.6664,-1.5824,-1.6639,-1.5982,-1.5259,-1.6763,-1.7112,-1.7232,-1.7997,-1.8428,-1.8711,-1.8711,-1.9004,-1.9287,-1.9287,-1.9326,-1.9346,-1.9297,-1.9326,-1.9219,-1.8789,-1.8398,-1.8008,-1.7588,-1.7842,0.0,-1.7637,-1.7881,-1.8105,-1.8144,0.0,0.0,-1.8154,-1.7668,-1.7485,-1.785,-1.6474,-1.5089,-1.3831,-1.3367,-1.3177,-1.3177,-1.3455,-1.3748,-1.404,-1.4326,-1.4472,-1.4435,-1.2987,-1.2621,0.0,0.0,0.0,0.0,0.0,0.0,0.0,0.0,0.0,0.0,0.0,0.0,0.0,0.0,0.0,-1.5468,-1.69,-1.8364,-1.9603,-1.9713,-1.981,-1.9893,-1.9975,-2.0069,-2.0151,-2.0245,-2.0338,-2.042,-2.042,-2.0586,-2.0959,-2.0979,0.0,-2.1528,-2.1538,-2.1538,-2.1538,-2.1538,-2.1538,-2.1538,0.0,0.0,-2.0969,-2.0503,-2.0296,-2.0296,-2.0296,-2.0245,-2.0162,-2.0162,-2.0072,-1.9941,-1.9564,-1.8972,-1.8249,-1.8267,-1.7577,-1.6655,-1.6237,-1.5666,-1.4958,-1.4553,-1.4974,-1.5805,-1.6321,-1.6917,0.0,-1.8543,-1.8556,-1.8373,-1.8874,-1.9102,-1.916,-1.916,-1.9228,-1.9287,-1.9287,-1.9551,-1.9697,-1.9355,-1.9561,-1.9658,-1.9238,-1.9092,-1.8887,-1.8467,-1.8467,-1.8613,-1.8887,-1.8682,-1.8652,-1.9004,-1.9043,-1.9043,-1.9043,-1.7779,-1.7028,-1.7107,-1.564,-1.4615,-1.4395,-1.4234,-1.4187,-1.4187,-1.4253,-1.4311,-1.4377,-1.4435,-1.4472,-1.4457,-1.4143,-1.407,0.0,0.0,0.0,0.0,0.0,0.0,0.0,0.0,0.0,0.0,0.0,-1.3031,0.0,0.0,-1.6479,-1.7244,-1.8501,-1.9666,-2.0589,-2.0771,-2.0679,-2.0452,-2.042,-2.0514,-2.0741,-2.0772,-2.0866,-2.1093,-2.1114,-2.1217,-2.1445,-2.1455,-2.1569,-2.1797,-2.1807,-2.1807,-2.1807,-2.1807,-2.1807,-2.1797,-2.1331,-2.1238,-2.1445,-2.0979,-2.0772,-2.0772,-2.0772,-2.0638,-2.0441,-2.0669,-2.0627,-2.0439,-2.0515,-1.9833,-1.8773,-1.8633,-1.8206,-1.7665,-1.7315,-1.6883,-1.6519,-1.6163,-1.6028,-1.6168,-1.7433,-1.7642,-1.7712,-1.8942,-1.9131,-1.9014,-1.9228,-1.9443,-1.96,-1.96,-1.9766,-1.9922,-1.9922,-2.0088,-2.0176,-1.9971,-2.0098,-2.0107,-1.9678,-1.9785,-1.9707,-1.9062,-1.8965,-1.9043,-1.9258,-1.9102,-1.9043,-1.9268,-1.9287,-1.9287,-1.9287,-1.8535,-1.8082,-1.8082,-1.6581,-1.5674,-1.5674,-1.4925,-1.4472,-1.4472,-1.4626,-1.4706,-1.4706,-1.4867,-1.4948,-1.4948,-1.4948,-1.4779,0.0,0.0,0.0,0.0,0.0,0.0,0.0,0.0,-1.2195,-1.2818,-1.4064,-1.5024,-1.5037,-1.6909,-1.8624,-1.9009,-1.991,-2.0811,-2.1576,-2.1313,-2.0979,-2.0596,-2.0638,-2.0834,-2.1217,-2.1248,-2.1404,-2.1776,-2.1807,-2.1807,-2.1807,-2.1807,-2.1807,-2.1807,-2.1807,-2.1807,-2.1807,-2.1807,-2.1807,-2.1797,-2.1424,-2.1445,-2.1797,-2.1414,-2.1248,-2.1248,-2.1248,-2.1041,-2.0721,-2.1093,-2.11,-2.0992,-2.1267,-2.0474,-1.9162,-1.8948,-1.8757,-1.8547,-1.8547,-1.8395,-1.8323,-1.8323,-1.7515,-1.694,-1.8682,-1.8369,-1.7662,-1.9113,-1.9473,-1.9434,-1.9512,-1.9785,-2.0039,-2.0039,-2.0312,-2.0566,-2.0566,-2.0566,-2.0566,-2.0566,-2.0566,-2.0449,-2.0098,-2.0332,-2.0303,-1.9521,-1.9404,-1.9443,-1.9521,-1.9463,-1.9443,-1.9521,-1.9541,-1.9457,-1.9309,-1.9309,-1.9235,-1.9077,-1.7698,-1.686,-1.686,-1.542,-1.4655,-1.4655,-1.4904,-1.5035,-1.5035,-1.5299,-1.5431,-1.5431,-1.5431,-1.5153,-1.0487,-1.0308,0.0,-1.1002,-1.1464,-1.2378,0.0,0.0,-1.4827,-1.6095,-1.7166,-1.7696,-1.7323,-1.8848,-2.0165,-2.035,-2.0864,-2.1576,-2.2392,-2.1744,-2.1167,-2.1261,-2.1468,-2.1673,-2.1725,-2.1725,-2.1745,-2.1797,-2.1807,-2.1807,-2.1807,-2.1807,-2.1807,-2.1807,-2.1807,-2.1807,-2.1807,-2.1807,-2.1807,-2.1807,-2.1756,-2.1756,-2.1807,-2.1756,-2.1725,-2.1725,-2.1725,-2.1694,-2.1652,-2.1704,-2.1583,-2.14,-2.1063,-2.0585,-2.0064,-2.0064,-1.9374,-1.8469,-1.8331,-1.7787,-1.7173,-1.7173,-1.7564,-1.8109,-1.8655,-1.891,-1.9222,-2.0205,-2.0137,-1.9932,-2.0322,-2.0459,-2.0498,-2.0498,-2.0527,-2.0566,-2.0566,-2.0566,-2.0566,-2.0566,-2.0566,-2.0547,-2.0498,-2.0537,-2.04,-1.9912,-1.9844,-1.998,-2.0371,-2.0078,-1.999,-2.0381,-2.042,-2.011,-1.9399,-1.9321,-1.8997,-1.8196,-1.7227,-1.6742,-1.6742,-1.5793,-1.5321,-1.5321,-1.5357,-1.5372,-1.5372,-1.5416,-1.5431,-1.5431,-1.5431,-1.5387,-1.2313,0.0,0.0,0.0,-1.3411,-1.454,-1.6311,-1.6662,-1.7048,-1.8544,-1.9047,-1.936,-1.9805,-2.0303,-2.1035,0.0,-2.1925,-2.1837,-2.2114,-2.1597,-2.1063,-2.0532,-2.1042,-2.1404,-2.1404,-2.1652,-2.1807,-2.1807,-2.1807,-2.1807,-2.1807,-2.1807,-2.1807,-2.1807,-2.1807,-2.1807,-2.1807,-2.1807,-2.1807,-2.1807,-2.1807,-2.1807,-2.1807,-2.1807,-2.1807,-2.1807,-2.1807,-2.1807,-2.1807,-2.1807,-2.1731,-2.1634,-2.1525,-2.1292,-2.11,-2.0452,-1.9785,-1.9276,-1.9201,-1.8958,-1.8723,-1.8723,-1.8581,-1.8598,-1.9544,-1.9226,-1.8852,-2.0227,-2.012,-1.9714,-2.044,-2.0762,-2.0957,-2.0957,-2.1152,-2.126,-2.1006,-2.0957,-2.0957,-2.0957,-2.0742,-2.0644,-2.0908,-2.0742,-2.0508,-2.0322,-2.0293,-2.0361,-2.0537,-2.041,-2.0361,-2.0547,-2.0566,-2.0489,-2.0089,-2.0089,-1.9923,-1.952,-1.8238,-1.7432,-1.7432,-1.6154,-1.5431,-1.5431,-1.5431,-1.5431,-1.5431,-1.5431,-1.5431,-1.5431,-1.5431,-1.5431,-1.346,0.0,0.0,-1.4255,-1.5504,-1.697,-1.8089,-1.885,-1.9542,-2.0459,-2.0781,-2.0984,-2.1085,-2.1264,0.0,-2.2466,-2.2237,-2.198,-2.2053,-2.1466,-2.0849,-2.0244,-2.0435,-2.0648,-2.0907,-2.1455,-2.1807,-2.1807,-2.1807,-2.1807,-2.1807,-2.1807,-2.1807,-2.1807,-2.1807,-2.1807,-2.1807,-2.1807,-2.1807,-2.1807,-2.1807,-2.1807,-2.1807,-2.1807,-2.1807,-2.1807,-2.1807,-2.1807,-2.1807,-2.1807,-2.1807,-2.1807,-2.1807,-2.1807,-2.1614,-2.0747,-2.0401,-2.0249,-2.0088,-2.0088,-2.0088,-2.0088,-1.9707,-1.9303,-2.0314,-1.9678,-1.8957,-2.0245,-2.0253,-1.9953,-2.0595,-2.0986,-2.126,-2.1387,-2.1562,-2.165,-2.1455,-2.1416,-2.1416,-2.1416,-2.1152,-2.1035,-2.1357,-2.1143,-2.0928,-2.0928,-2.0928,-2.084,-2.0596,-2.0566,-2.0566,-2.0566,-2.0566,-2.0566,-2.0566,-2.0566,-2.0566,-2.0566,-1.9204,-1.8238,-1.7997,-1.655,-1.5665,-1.5431,-1.5431,-1.5431,-1.5431,-1.5431,-1.5431,-1.5431,-1.5431,-1.5431,0.0,0.0,-1.4944,-1.5581,-1.7622,-1.9553,-1.994,-2.155,-2.2657,-2.1751,-2.2649,-2.2869,-2.0587,-2.1442,-2.2207,-2.1173,-2.1528,-2.2197,-2.2831,-2.1472,-2.0475,-2.0973,-2.0058,-1.9625,0.0,-2.1269,-2.1807,-2.1807,-2.1807,-2.1807,-2.1807,-2.1807,-2.1807,-2.1807,-2.1807,-2.1807,-2.1807,-2.1807,-2.1807,-2.1807,-2.1807,-2.1807,-2.1807,-2.1807,-2.1807,-2.1807,-2.1807,-2.1807,-2.1807,-2.1807,-2.1807,-2.1807,-2.1807,-2.1655,-2.1502,-2.1272,-2.1185,-2.1108,-2.0702,-2.0547,-2.0547,-2.0547,-2.0547,-2.0547,-2.0566,-2.0566,-2.0557,-2.0566,-2.0879,-2.1131,-2.1131,-2.1221,-2.1338,-2.1768,-2.1553,-2.1367,-2.1777,-2.1865,-2.1865,-2.1865,-2.1855,-2.1846,-2.1865,-2.1855,-2.1846,-2.1846,-2.1846,-2.1533,-2.0674,-2.0566,-2.0566,-2.0566,-2.0566,-2.0566,-2.0566,-2.0566,-2.0566,-2.0566,-1.9775,-1.8895,-1.7997,-1.7107,-1.6221,-1.5431,-1.5431,-1.5431,-1.5431,-1.5431,-1.5431,-1.5431,-1.5431,-1.5431,0.0,0.0,-1.8331,-1.9361,-2.076,-2.2265,-2.3513,-2.3292,-2.2995,-2.3454,-2.2395,-2.1302,-2.1376,-2.0646,-2.035,-2.1441,-2.1807,-2.1845,-2.1457,-2.2274,-2.2117,-1.9792,-2.0793,0.0,0.0,0.0,0.0,-2.1787,-2.2087,-2.2263,-2.2263,-2.2553,-2.2584,-2.2273,-2.2263,-2.2263,-2.2263,-2.1963,-2.1963,-2.2263,-2.1952,-2.1807,-2.1807,-2.1807,-2.1807,-2.1807,-2.1807,-2.1807,-2.1807,-2.1807,-2.1807,-2.1807,-2.1807,-2.1731,-2.1655,-2.1512,-2.1436,-2.1349,-2.0799,-2.0566,-2.0566,-2.0566,-2.0762,-2.1016,-2.1016,-2.079,-2.0756,-2.1273,-2.1125,-2.0983,-2.1496,-2.1875,-2.2119,-2.2266,-2.2402,-2.2461,-2.2324,-2.2305,-2.2305,-2.2305,-2.207,-2.1973,-2.2256,-2.207,-2.1885,-2.1885,-2.1885,-2.1777,-2.1475,-2.1445,-2.1328,-2.1045,-2.1016,-2.0889,-2.0596,-2.0566,-2.0566,-2.0566,-1.9775,-1.9143,-1.8895,-1.7504,-1.6535,-1.6304,-1.5665,-1.5431,-1.5431,-1.5431,-1.5431,-1.5431,-1.5431,-1.5431,0.0,-1.9007,-2.0665,-2.2018,-2.3203,-2.4255,-2.5078,-2.4341,-2.3604,-2.3838,-2.2127,-2.0712,-2.1057,-2.0143,-1.9627,-2.0441,-2.1049,-2.1319,-2.1115,-2.2073,-2.2151,-2.051,-2.1459,0.0,0.0,0.0,0.0,-2.1787,-2.2232,-2.2501,-2.2501,-2.2936,-2.3049,-2.2749,-2.2739,-2.2739,-2.2739,-2.2449,-2.2366,-2.249,-2.2025,-2.1807,-2.1807,-2.1807,-2.1807,-2.1807,-2.1807,-2.1807,-2.1807,-2.1807,-2.1807,-2.1807,-2.1807,-2.1807,-2.1807,-2.1578,-2.1502,-2.1425,-2.0886,-2.0731,-2.0731,-2.0644,-2.0869,-2.123,-2.123,-2.1115,-2.1191,-2.1709,-2.1556,-2.1409,-2.1932,-2.2305,-2.2549,-2.2705,-2.2822,-2.2881,-2.2764,-2.2734,-2.2734,-2.2734,-2.2519,-2.2422,-2.2685,-2.251,-2.2334,-2.2334,-2.2334,-2.2227,-2.1924,-2.1885,-2.1777,-2.1494,-2.1465,-2.1348,-2.1064,-2.0898,-2.0722,-2.0387,-1.9692,-1.9054,-1.8407,-1.7269,-1.6535,-1.6221,-1.5665,-1.5431,-1.5431,-1.5431,-1.5431,-1.5431,-1.5431,-1.5489,-1.932,-2.074,-2.2006,-2.353,-2.4843,-2.5507,-2.465,-2.4653,-2.4405,-2.2959,-2.1918,-2.0939,0.0,0.0,-1.9858,-1.8336,-1.9397,-2.0819,-2.1868,-2.1148,-2.1112,0.0,0.0,0.0,0.0,0.0,0.0,-2.188,0.0,-2.2542,-2.2563,-2.3008,-2.3246,-2.3225,-2.3225,-2.3225,-2.3225,-2.3225,-2.2987,-2.2532,-2.2066,-2.1849,-2.1849,-2.1818,-2.1807,-2.1807,-2.1807,-2.1807,-2.1807,-2.1807,-2.1807,-2.1807,-2.1807,-2.1807,-2.1807,-2.1578,-2.1512,-2.1436,-2.1061,-2.0906,-2.0829,-2.0683,-2.0898,-2.1269,-2.1289,-2.1602,-2.1953,-2.1953,-2.2236,-2.2549,-2.2549,-2.2549,-2.2646,-2.3047,-2.2832,-2.2656,-2.3057,-2.3135,-2.3135,-2.3135,-2.3135,-2.3135,-2.3135,-2.3135,-2.3135,-2.3135,-2.3135,-2.2852,-2.2051,-2.1953,-2.1943,-2.1924,-2.1924,-2.1904,-2.1885,-2.1484,-2.0818,-2.0061,-1.962,-1.8665,-1.6862,-1.6796,-1.6402,-1.5506,-1.5431,-1.5431,-1.5431,-1.5431,-1.5431,-1.5431,-1.5445,-1.5621,-2.1329,-2.3166,-2.4864,-2.573,-2.622,-2.6285,-2.5602,-2.4151,-2.2689,-2.1894,-2.0159,-1.8734,0.0,0.0,0.0,-1.9221,-2.107,0.0,-2.243,-2.4114,0.0,0.0,0.0,-2.383,-2.2391,-2.2877,0.0,0.0,-2.2946,-2.3163,-2.3505,-2.395,-2.4043,-2.3712,-2.3701,-2.3701,-2.3701,-2.3701,-2.3474,-2.3008,-2.2542,-2.2325,-2.2304,-2.1963,-2.1807,-2.1807,-2.1807,-2.1807,-2.1807,-2.1807,-2.1807,-2.1807,-2.1807,-2.1807,-2.1807,-2.1731,-2.1731,-2.1655,-2.1425,-2.1128,-2.0888,-2.1046,-2.1357,-2.1777,-2.209,-2.248,-2.2822,-2.2822,-2.2891,-2.2978,-2.2978,-2.2978,-2.3008,-2.3115,-2.3057,-2.3008,-2.3115,-2.3135,-2.3135,-2.3135,-2.3135,-2.3135,-2.3135,-2.3135,-2.3135,-2.3135,-2.3135,-2.3057,-2.2852,-2.2822,-2.2705,-2.2383,-2.2353,-2.2227,-2.1914,-2.1484,-2.115,-2.0899,-2.0803,-2.0104,-1.8665,-1.8263,-1.7532,-1.6386,-1.5748,-1.5431,-1.5431,-1.5431,-1.5431,-1.5431,-1.5679,-1.5833,-2.3433,-2.5014,-2.6334,-2.6909,-2.6857,-2.6399,-2.5315,-2.3423,-2.1675,-2.0856,-1.9032,0.0,0.0,0.0,0.0,0.0,0.0,0.0,-2.32,-2.4865,-2.5603,0.0,-2.5124,0.0,-2.3229,-2.3919,-2.4196,0.0,0.0,-2.3598,-2.3867,-2.4302,-2.4426,-2.4178,-2.4167,-2.4167,-2.4167,-2.3971,-2.3743,-2.3484,-2.2811,-2.2604,-2.278,-2.2108,-2.1921,-2.2097,0.0,-2.1807,-2.1828,-2.2025,-2.2108,-2.2128,-2.2335,-2.2418,-2.2418,-2.2418,-2.2418,-2.2329,-2.2015,-2.1788,-2.1531,-2.1155,-2.133,-2.168,-2.2109,-2.2529,-2.29,-2.3086,-2.3135,-2.3135,-2.3135,-2.3135,-2.3135,-2.3135,-2.3135,-2.3135,-2.3135,-2.3135,-2.3193,-2.3389,-2.3428,-2.3486,-2.3672,-2.3545,-2.3428,-2.3428,-2.3262,-2.3135,-2.3135,-2.3135,-2.3047,-2.2812,-2.2783,-2.2695,-2.2461,-2.2041,-2.1622,-2.1189,-2.1028,-2.0316,-1.9075,-1.8513,-1.7869,-1.6937,-1.6177,-1.584,-1.584,-1.584,-1.584,-1.5848,-1.603,-1.6191,-2.5354,-2.6347,-2.6883,-2.7314,-2.6922,-2.6007,-2.4282,-2.2442,-2.0843,-1.9794,0.0,0.0,-1.787,0.0,-1.8734,-1.8579,0.0,-2.2289,-2.4075,-2.4759,-2.5456,-2.6605,-2.6288,-2.5469,-2.4272,-2.4908,-2.5066,-2.4283,-2.42,-2.4127,-2.3971,-2.4333,-2.454,-2.454,-2.454,-2.454,-2.454,-2.4157,-2.3971,-2.396,-2.3091,-2.2894,-2.3246,-2.2387,-2.217,-2.248,0.0,0.0,-2.1932,-2.2397,-2.2594,-2.2625,-2.3029,-2.3184,-2.3184,-2.3184,-2.3184,-2.3103,-2.2686,-2.2605,-2.2412,-2.1471,-2.1263,-2.1484,-2.1924,-2.2305,-2.2676,-2.3037,-2.3135,-2.3135,-2.3135,-2.3135,-2.3135,-2.3135,-2.3135,-2.3135,-2.3135,-2.3184,-2.335,-2.3789,-2.3877,-2.3984,-2.4355,-2.4111,-2.3877,-2.3877,-2.3506,-2.3242,-2.3301,-2.3213,-2.3135,-2.3135,-2.3135,-2.3135,-2.3135,-2.2754,-2.2159,-2.1444,-2.1024,-2.0225,-1.8889,-1.8385,-1.7816,-1.7302,-1.6737,-1.6367,-1.6367,-1.6367,-1.6367,-1.6367,-1.6411,-1.6587,-2.6151,-2.6935,-2.7288,-2.6922,-2.6033,-2.4818,-2.3093,-2.0939,0.0,0.0,0.0,-1.6725,-1.7264,0.0,0.0,-2.0077,0.0,0.0,0.0,0.0,-2.6541,0.0,0.0,0.0,0.0,0.0,0.0,0.0,0.0,0.0,-2.4426,-2.4498,-2.454,-2.454,-2.454,-2.454,-2.454,-2.4467,-2.4426,-2.4416,-2.3888,-2.3681,-2.3743,-2.3194,-2.278,-2.2511,0.0,0.0,-2.2418,-2.2884,-2.307,-2.308,-2.3153,-2.3184,-2.3184,-2.3184,-2.3184,-2.3194,-2.3103,-2.2941,-2.2737,-2.2359,-2.2236,-2.2373,-2.2793,-2.2969,-2.3047,-2.3115,-2.3135,-2.3135,-2.3135,-2.3135,-2.3135,-2.3135,-2.3135,-2.3135,-2.3135,-2.3418,-2.3799,-2.4228,-2.4307,-2.4336,-2.4404,-2.4355,-2.4307,-2.4307,-2.3945,-2.3799,-2.415,-2.3574,-2.3135,-2.3135,-2.3135,-2.3135,-2.3135,-2.2754,-2.2425,-2.2244,-2.2177,-2.1598,-2.0318,-1.973,-1.8879,-1.7738,-1.6858,-1.6367,-1.6367,-1.6367,-1.6367,-1.6374,-1.6645,-1.6799,-2.636,-2.7092,-2.7392,-2.6817,-2.5589,-2.3995,-2.1956,0.0,0.0,0.0,0.0,-1.6558,-1.7094,0.0,0.0,0.0,0.0,0.0,0.0,0.0,0.0,0.0,0.0,0.0,0.0,0.0,0.0,0.0,0.0,0.0,-2.454,-2.454,-2.454,-2.454,-2.454,-2.454,-2.454,-2.454,-2.454,-2.454,-2.4084,-2.4002,-2.4198,-2.3505,-2.3194,-2.3215,0.0,0.0,-2.2894,-2.336,-2.3546,-2.3567,-2.3795,-2.3888,-2.3888,-2.3888,-2.3888,-2.3888,-2.3731,-2.3647,-2.351,-2.3288,-2.2794,-2.2424,-2.2685,-2.2812,-2.2861,-2.3076,-2.3135,-2.3135,-2.3135,-2.3135,-2.3135,-2.3135,-2.331,-2.3535,-2.376,-2.3965,-2.4238,-2.4668,-2.4756,-2.4834,-2.5059,-2.4912,-2.4756,-2.4756,-2.4385,-2.4189,-2.4394,-2.4062,-2.3799,-2.3799,-2.3799,-2.3799,-2.3799,-2.3623,-2.3506,-2.3506,-2.2952,-2.2307,-2.1456,-2.0172,-1.91,-1.8205,-1.7311,-1.6872,-1.6872,-1.6872,-1.6872,-1.6872,-1.7026,-1.7099,-2.6334,-2.7092,-2.7366,-2.6661,-2.5197,-2.3315,-2.1053,-1.9054,0.0,0.0,0.0,0.0,0.0,0.0,0.0,0.0,0.0,0.0,0.0,0.0,0.0,0.0,0.0,0.0,0.0,0.0,0.0,0.0,0.0,0.0,0.0,-2.454,-2.454,-2.454,-2.454,-2.454,-2.454,-2.454,-2.454,-2.454,-2.4188,-2.4198,-2.4519,-2.3805,-2.3619,-2.3867,0.0,0.0,0.0,-2.3826,-2.4022,-2.4053,-2.4405,-2.454,-2.454,-2.454,-2.454,-2.4454,-2.4292,-2.4292,-2.4196,-2.3927,-2.3293,-2.2552,-2.2634,-2.2646,-2.2715,-2.3047,-2.3135,-2.3135,-2.3135,-2.3135,-2.3164,-2.3262,-2.3613,-2.4043,-2.4463,-2.456,-2.4687,-2.5127,-2.5137,-2.5176,-2.5527,-2.5225,-2.4961,-2.5059,-2.4619,-2.4346,-2.4531,-2.4394,-2.4355,-2.4531,-2.4473,-2.4414,-2.4414,-2.4414,-2.4322,-2.4034,-2.3271,-2.2562,-2.1976,-2.037,-1.917,-1.8729,-1.789,-1.7399,-1.7326,-1.7326,-1.7326,-1.7326,-1.7326,-1.7326,-2.6229,-2.7092,-2.7262,-2.6177,-2.4596,-2.2701,-2.0401,0.0,0.0,0.0,0.0,0.0,0.0,0.0,0.0,0.0,0.0,0.0,0.0,0.0,0.0,0.0,0.0,0.0,0.0,0.0,0.0,0.0,0.0,0.0,0.0,-2.454,-2.454,-2.454,-2.454,-2.454,-2.454,-2.454,-2.454,-2.454,-2.4498,-2.4498,-2.454,-2.4457,-2.4219,-2.3898,0.0,0.0,0.0,-2.4291,-2.4478,-2.4488,-2.4529,-2.454,-2.454,-2.454,-2.454,-2.454,-2.4454,-2.4454,-2.4454,-2.4196,-2.38,-2.3384,-2.3424,-2.326,-2.3086,-2.3125,-2.3135,-2.3135,-2.3135,-2.3135,-2.3242,-2.3633,-2.4053,-2.4473,-2.4912,-2.501,-2.5146,-2.5586,-2.5352,-2.5078,-2.5127,-2.4766,-2.4609,-2.501,-2.4375,-2.4131,-2.4912,-2.4326,-2.4141,-2.4922,-2.4648,-2.4414,-2.4414,-2.4414,-2.3942,-2.299,-2.2887,-2.2303,-2.1319,-2.0272,-1.963,-1.9272,-1.8236,-1.7625,-1.7326,-1.7326,-1.7326,-1.7326,-1.7326,-1.7326,-2.5153,-2.6308,-2.6817,-2.602,-2.3995,-2.1668,-1.9708,0.0,0.0,0.0,-1.567,-1.584,-1.699,0.0,0.0,0.0,0.0,0.0,0.0,0.0,0.0,0.0,0.0,0.0,0.0,0.0,0.0,0.0,0.0,0.0,0.0,-2.454,-2.454,-2.454,-2.454,-2.454,-2.454,-2.454,-2.454,-2.454,-2.454,-2.454,-2.454,-2.454,-2.4447,-2.4291,0.0,0.0,0.0,-2.4467,-2.454,-2.454,-2.454,-2.454,-2.454,-2.454,-2.454,-2.454,-2.454,-2.454,-2.4454,-2.4368,-2.4024,-2.3667,-2.3503,-2.3319,-2.3135,-2.3135,-2.3135,-2.3203,-2.3467,-2.3721,-2.4014,-2.4453,-2.4687,-2.4853,-2.5029,-2.5283,-2.5439,-2.5352,-2.541,-2.5469,-2.5469,-2.5332,-2.5176,-2.5088,-2.501,-2.4893,-2.4697,-2.4609,-2.459,-2.4668,-2.4756,-2.4805,-2.4805,-2.5059,-2.4898,-2.424,-2.3184,-2.2432,-2.2047,-2.0166,-1.9124,-1.8988,-1.84,-1.7947,-1.7618,-1.7618,-1.7523,-1.7333,-1.753,-1.7618,-2.352,-2.5101,-2.6033,-2.5458,-2.3263,-2.0806,0.0,0.0,0.0,-1.5369,-1.5487,-1.584,-1.699,-1.7199,0.0,0.0,0.0,0.0,0.0,0.0,0.0,0.0,0.0,0.0,0.0,0.0,0.0,0.0,0.0,0.0,0.0,-2.454,-2.454,-2.454,-2.454,-2.454,-2.454,-2.454,-2.454,-2.454,-2.454,-2.454,-2.454,-2.454,-2.454,0.0,0.0,0.0,0.0,-2.454,-2.454,-2.454,-2.454,-2.454,-2.454,-2.454,-2.454,-2.454,-2.454,-2.454,-2.454,-2.454,-2.4186,-2.3754,-2.3667,-2.3319,-2.3135,-2.3135,-2.3232,-2.3398,-2.3711,-2.4199,-2.4687,-2.5,-2.5166,-2.5264,-2.5264,-2.5518,-2.5644,-2.5322,-2.541,-2.5537,-2.5537,-2.543,-2.5283,-2.5098,-2.5225,-2.5166,-2.4678,-2.4766,-2.4805,-2.4629,-2.4883,-2.4915,-2.4496,-2.4966,-2.4967,-2.4192,-2.2965,-2.2272,-2.1979,-2.0046,-1.8884,-1.8789,-1.8467,-1.8138,-1.7816,-1.7721,-1.7604,-1.7479,-1.7706,-1.7867,-2.1416,-2.328,-2.4844,-2.4282,-2.2387,-2.0267,0.0,0.0,0.0,0.0,-1.5487,-1.584,-1.699,-1.7199,-1.7578,-1.8715,0.0,0.0,0.0,0.0,0.0,0.0,0.0,0.0,0.0,0.0,0.0,0.0,0.0,0.0,0.0,0.0,-2.454,-2.454,-2.454,-2.454,-2.454,-2.454,-2.454,-2.454,-2.454,-2.454,-2.454,-2.454,0.0,0.0,0.0,0.0,0.0,-2.454,-2.454,-2.454,-2.454,-2.454,-2.454,-2.454,-2.454,-2.454,-2.454,-2.454,-2.454,-2.454,-2.4186,-2.3841,-2.3841,-2.3493,-2.3135,-2.3135,-2.3447,-2.3779,-2.3789,-2.4424,-2.5059,-2.5068,-2.541,-2.5732,-2.5732,-2.5732,-2.5742,-2.5732,-2.5371,-2.5078,-2.5078,-2.4717,-2.458,-2.5,-2.4707,-2.458,-2.501,-2.4687,-2.459,-2.501,-2.5068,-2.4506,-2.3121,-2.3858,-2.3739,-2.2088,-2.1936,-2.162,-2.0971,-1.9872,-1.9118,-1.8796,-1.8467,-1.8138,-1.7816,-1.7494,-1.7501,-1.7808,-1.7816,-1.7991,-1.9935,-2.0904,-2.1446,-2.1262,-1.9769,-1.8061,-1.7146,0.0,0.0,0.0,-1.5199,-1.5735,-1.6506,-1.695,-1.7578,-1.8715,-1.8911,0.0,0.0,0.0,0.0,0.0,0.0,0.0,0.0,0.0,0.0,0.0,0.0,0.0,0.0,0.0,-2.454,-2.454,-2.454,-2.454,-2.454,-2.454,-2.454,-2.454,-2.454,-2.454,-2.454,-2.454,0.0,0.0,0.0,0.0,0.0,-2.454,-2.454,-2.454,-2.454,-2.454,-2.454,-2.454,-2.454,-2.454,-2.454,-2.454,-2.454,-2.454,-2.4282,-2.4024,-2.3841,-2.3493,-2.3203,-2.3496,-2.4102,-2.4658,-2.4658,-2.4863,-2.5146,-2.5449,-2.54,-2.5283,-2.5283,-2.5518,-2.5644,-2.5342,-2.541,-2.5527,-2.5527,-2.541,-2.5264,-2.5098,-2.5215,-2.5156,-2.4678,-2.4756,-2.4805,-2.4639,-2.4619,-2.4594,-2.4458,-2.4946,-2.4822,-2.3683,-2.3249,-2.2752,-2.2215,-2.0565,-1.9636,-1.9535,-1.8745,-1.8138,-1.7816,-1.7706,-1.783,-1.8145,-1.8145,-1.8445,0.0,-1.8658,-1.9008,-1.9219,-1.8083,0.0,0.0,0.0,0.0,0.0,0.0,0.0,-1.6284,-1.6833,-1.7512,-1.8453,-1.8767,0.0,0.0,0.0,0.0,0.0,0.0,0.0,0.0,0.0,0.0,0.0,0.0,0.0,0.0,0.0,-2.454,-2.454,-2.454,-2.454,-2.454,-2.454,-2.454,-2.454,-2.454,-2.454,-2.454,0.0,0.0,0.0,0.0,0.0,0.0,-2.454,-2.454,-2.454,-2.454,-2.454,-2.454,-2.454,-2.454,-2.454,-2.454,-2.454,-2.454,-2.454,-2.4395,-2.4247,-2.3804,-2.3525,-2.3477,-2.3906,-2.4531,-2.5029,-2.4863,-2.4941,-2.5137,-2.542,-2.5273,-2.5117,-2.5283,-2.5537,-2.5654,-2.5371,-2.5547,-2.5742,-2.5742,-2.5742,-2.5644,-2.5361,-2.5557,-2.5537,-2.498,-2.5156,-2.5215,-2.4941,-2.4912,-2.5019,-2.5293,-2.4871,-2.4288,-2.3522,-2.3162,-2.2964,-2.3249,-2.1176,-2.0043,-2.0043,-1.8724,-1.8021,-1.7816,-1.7816,-1.7918,-1.8116,-1.8247,-1.8584,0.0,0.0,0.0,0.0,0.0,0.0,0.0,0.0,0.0,0.0,0.0,0.0,-1.6284,-1.6872,-1.7473,-1.8114,-1.8675,0.0,0.0,0.0,0.0,0.0,0.0,0.0,0.0,0.0,0.0,0.0,0.0,0.0,0.0,0.0,0.0,-2.454,-2.454,-2.454,-2.454,-2.454,-2.454,-2.454,-2.454,-2.454,-2.454,0.0,0.0,0.0,0.0,0.0,0.0,-2.454,-2.454,-2.454,-2.454,-2.454,-2.454,-2.454,-2.454,-2.454,-2.454,-2.454,-2.455,-2.4581,-2.4523,-2.4355,-2.3829,-2.3742,-2.3965,-2.4355,-2.4775,-2.501,-2.458,-2.4766,-2.5068,-2.5068,-2.5068,-2.5195,-2.5644,-2.5742,-2.5742,-2.5742,-2.5742,-2.5742,-2.5742,-2.5742,-2.5742,-2.5742,-2.5742,-2.5742,-2.5742,-2.5742,-2.5742,-2.5742,-2.5635,-2.5635,-2.5635,-2.4002,-2.2736,-2.2292,-2.2123,-2.2663,-2.3996,-2.1768,-2.0404,-2.0281,-1.8671,-1.7779,-1.7779,-1.7779,-1.7794,-1.7823,-1.813,-1.8445,0.0,0.0,0.0,0.0,0.0,0.0,0.0,0.0,0.0,0.0,0.0,0.0,-1.6284,-1.7212,-1.8218,-1.9237,0.0,0.0,0.0,0.0,0.0,0.0,0.0,0.0,0.0,0.0,0.0,0.0,0.0,0.0,0.0,0.0,0.0,-2.454,-2.454,-2.454,-2.454,-2.454,-2.454,-2.454,-2.454,-2.454,-2.454,0.0,0.0,0.0,0.0,0.0,0.0,-2.454,-2.454,-2.454,-2.454,-2.454,-2.454,-2.454,-2.454,-2.454,-2.454,-2.454,-2.4602,-2.4954,-2.4788,-2.4615,-2.5097,-2.506,-2.4785,-2.4883,-2.5234,-2.5478,-2.5029,-2.499,-2.5068,-2.5068,-2.5068,-2.5195,-2.5644,-2.5742,-2.5742,-2.5742,-2.5742,-2.5742,-2.5742,-2.5742,-2.5742,-2.5742,-2.5742,-2.5742,-2.5742,-2.5742,-2.5742,-2.5742,-2.5011,-2.4501,-2.4501,-2.484,-2.4833,-2.4393,-2.4383,-2.3984,-2.318,-2.183,-2.0699,-1.9566,-1.8108,-1.7443,-1.7443,-1.7443,-1.7574,-1.7816,-1.7889,-1.8101,0.0,0.0,0.0,0.0,0.0,0.0,0.0,0.0,0.0,0.0,0.0,0.0,0.0,0.0,0.0,0.0,0.0,0.0,0.0,0.0,0.0,0.0,0.0,0.0,0.0,0.0,0.0,0.0,0.0,0.0,0.0,0.0,0.0,0.0,-2.454,-2.454,-2.454,-2.454,-2.454,-2.454,-2.454,-2.454,-2.454,0.0,0.0,0.0,0.0,0.0,-2.454,-2.454,-2.454,-2.454,-2.454,-2.454,-2.454,-2.454,-2.454,-2.454,-2.454,-2.4674,-2.4774,-2.4728,-2.4893,-2.5168,-2.5245,-2.5332,-2.5371,-2.5371,-2.54,-2.5371,-2.5127,-2.4922,-2.4814,-2.5019,-2.5068,-2.5195,-2.5644,-2.5742,-2.5742,-2.5742,-2.5742,-2.5742,-2.5742,-2.5742,-2.5742,-2.5742,-2.5908,-2.6035,-2.6035,-2.5631,-2.5291,-2.5462,-2.4217,-2.3664,-2.4254,-2.4712,-2.4916,-2.4678,-2.4659,-2.4265,-2.3446,-2.2294,-2.0691,-1.867,-1.8074,-1.7699,-1.7552,-1.7699,-1.7786,-1.7816,-1.7816,-1.7911,0.0,0.0,0.0,0.0,0.0,0.0,0.0,0.0,0.0,0.0,0.0,0.0,0.0,0.0,0.0,0.0,0.0,0.0,0.0,0.0,0.0,0.0,0.0,0.0,0.0,0.0,0.0,0.0,0.0,0.0,0.0,0.0,0.0,0.0,-2.4509,-2.4509,-2.4436,-2.4509,-2.454,-2.454,-2.454,-2.454,-2.454,-2.454,0.0,0.0,0.0,0.0,-2.454,-2.454,-2.454,-2.454,-2.454,-2.454,-2.454,-2.454,-2.454,-2.454,-2.454,-2.484,-2.5093,-2.4589,-2.5127,-2.5772,-2.5162,-2.5326,-2.5732,-2.5732,-2.5459,-2.5156,-2.5088,-2.4844,-2.4697,-2.5,-2.5117,-2.5273,-2.5654,-2.5742,-2.5742,-2.5742,-2.5742,-2.5742,-2.5742,-2.5742,-2.5762,-2.583,-2.6152,-2.6406,-2.6475,-2.555,-2.4941,-2.5149,-2.3604,-2.3112,-2.4463,-2.4326,-2.4187,-2.4295,-2.4196,-2.3989,-2.3592,-2.2223,-2.0361,-1.7977,-1.8189,-1.8167,-1.7889,-1.8167,-1.816,-1.7889,-1.7889,-1.7889,0.0,0.0,0.0,0.0,0.0,0.0,0.0,0.0,0.0,0.0,0.0,0.0,0.0,0.0,0.0,0.0,0.0,0.0,0.0,0.0,0.0,0.0,0.0,0.0,0.0,0.0,0.0,0.0,0.0,0.0,0.0,0.0,0.0,0.0,0.0,-2.4364,-2.3981,-2.4353,-2.454,-2.454,-2.454,-2.454,-2.454,-2.454,-2.454,0.0,0.0,0.0,-2.454,-2.454,-2.454,-2.454,-2.454,-2.454,-2.454,-2.454,-2.454,-2.454,-2.454,-2.484,-2.5285,-2.5575,-2.591,-2.6184,-2.6205,-2.6098,-2.6004,-2.5732,-2.5684,-2.5547,-2.5166,-2.5303,-2.5449,-2.5146,-2.5361,-2.5654,-2.5723,-2.5742,-2.5742,-2.5742,-2.5742,-2.5742,-2.5742,-2.5742,-2.5859,-2.623,-2.6348,-2.6514,-2.6875,-2.5844,-2.5121,-2.5176,-2.3841,-2.3399,-2.449,-2.4326,-2.4501,-2.543,-2.4599,-2.3294,-2.1489,-2.0054,-1.9134,-1.8642,-1.8416,-1.8277,-1.8225,-1.8277,-1.8277,-1.8225,-1.8225,-1.8225,0.0,0.0,0.0,0.0,0.0,0.0,0.0,0.0,0.0,0.0,0.0,0.0,0.0,0.0,0.0,0.0,0.0,0.0,0.0,0.0,0.0,0.0,0.0,0.0,0.0,0.0,0.0,0.0,0.0,0.0,0.0,0.0,0.0,0.0,0.0,0.0,-2.3505,-2.3712,-2.4053,-2.454,-2.454,-2.454,-2.454,-2.454,-2.454,0.0,0.0,-2.454,-2.454,-2.454,-2.454,-2.454,-2.454,-2.454,-2.4571,-2.4819,-2.4912,-2.4943,-2.5181,-2.5564,-2.5989,-2.6013,-2.631,-2.653,-2.633,-2.6038,-2.5803,-2.5664,-2.5566,-2.5381,-2.542,-2.54,-2.5381,-2.542,-2.5586,-2.5742,-2.5742,-2.5742,-2.5742,-2.5742,-2.5928,-2.6084,-2.6084,-2.6279,-2.6494,-2.6699,-2.6924,-2.7148,-2.7344,-2.5848,-2.4739,-2.4942,-2.2674,-2.2006,-2.386,-2.303,-2.3094,-2.4707,-2.3791,-2.2484,-2.0987,-1.9728,-1.8964,-1.8789,-1.8811,-1.8738,-1.8562,-1.8738,-1.8738,-1.8562,-1.8562,-1.8474,-1.4011,0.0,0.0,0.0,0.0,0.0,0.0,0.0,0.0,0.0,0.0,0.0,0.0,0.0,0.0,0.0,0.0,0.0,0.0,0.0,0.0,0.0,0.0,0.0,0.0,0.0,0.0,0.0,0.0,0.0,0.0,0.0,0.0,0.0,0.0,0.0,-2.3029,-2.3132,-2.3536,-2.4229,-2.4333,-2.4385,-2.4385,-2.4498,-2.454,-2.454,-2.454,-2.454,-2.454,-2.454,-2.454,-2.454,-2.454,-2.4612,-2.4747,-2.5099,-2.5295,-2.543,-2.5761,-2.6185,-2.6579,-2.6393,-2.6617,-2.689,-2.64,-2.5899,-2.5555,-2.5712,-2.541,-2.5176,-2.5625,-2.5478,-2.5312,-2.5654,-2.5742,-2.5742,-2.5742,-2.5742,-2.5742,-2.5742,-2.6094,-2.6387,-2.6387,-2.6738,-2.7051,-2.7148,-2.7451,-2.7695,-2.7803,-2.5836,-2.4485,-2.4573,-2.1945,-2.116,-2.3453,-2.2417,-2.2291,-2.3692,-2.3073,-2.202,-2.0703,-1.9896,-1.9235,-1.8913,-1.9147,-1.9155,-1.8906,-1.9155,-1.9147,-1.8906,-1.8906,-1.8767,-1.4136,-1.4413,0.0,0.0,0.0,0.0,0.0,0.0,0.0,0.0,0.0,0.0,0.0,0.0,0.0,0.0,0.0,0.0,0.0,0.0,0.0,0.0,0.0,0.0,0.0,0.0,0.0,0.0,0.0,0.0,0.0,0.0,0.0,0.0,0.0,0.0,-2.2553,-2.2977,-2.3215,-2.3287,-2.3722,-2.3929,-2.3939,-2.4353,-2.454,-2.454,-2.454,-2.454,-2.454,-2.454,-2.454,-2.454,-2.454,-2.4809,-2.5181,-2.5223,-2.5482,-2.5834,-2.5865,-2.6185,-2.6568,-2.6568,-2.6889,-2.7167,-2.6592,-2.6184,-2.5734,-2.5702,-2.541,-2.5176,-2.5625,-2.5713,-2.5693,-2.5732,-2.5742,-2.5742,-2.5742,-2.5742,-2.5742,-2.5742,-2.6094,-2.6387,-2.6387,-2.6738,-2.7148,-2.7559,-2.7646,-2.7803,-2.8193,-2.6127,-2.4564,-2.4356,-2.2765,-2.2258,-2.3936,-2.3926,-2.3484,-2.2693,-2.2818,-2.1988,-1.9931,-1.9832,-1.9579,-1.925,-1.9264,-1.9264,-1.9242,-1.9264,-1.9264,-1.9242,-1.9242,-1.9228,-1.3423,-1.4126,0.0,0.0,0.0,0.0,0.0,0.0,0.0,0.0,0.0,0.0,0.0,0.0,0.0,0.0,0.0,0.0,0.0,0.0,0.0,0.0,0.0,0.0,0.0,0.0,0.0,0.0,0.0,0.0,0.0,0.0,0.0,0.0,0.0,0.0,0.0,-2.2242,-2.2325,-2.2335,-2.3091,-2.3598,-2.3888,-2.4053,-2.4281,-2.454,-2.454,-2.454,-2.454,-2.454,-2.454,-2.454,-2.454,-2.483,-2.5264,-2.5533,-2.5916,-2.6351,-2.6641,-2.6848,-2.7003,-2.7003,-2.7117,-2.7167,-2.6688,-2.6184,-2.5829,-2.5712,-2.541,-2.5176,-2.5625,-2.5742,-2.5742,-2.5742,-2.5742,-2.5742,-2.5742,-2.5742,-2.582,-2.6094,-2.6484,-2.6865,-2.7139,-2.7529,-2.7861,-2.8027,-2.8057,-2.8115,-2.8271,-2.6173,-2.4667,-2.453,-2.2904,-2.1814,-2.1658,-2.2554,-2.2588,-2.1501,-2.1579,-2.098,-1.956,-1.9462,-1.9403,-1.9279,-1.9279,-1.9279,-1.9279,-1.9477,-1.9579,-1.9586,-1.9784,-1.9872,-1.3236,-1.3914,0.0,0.0,0.0,0.0,0.0,0.0,0.0,0.0,0.0,0.0,0.0,0.0,0.0,0.0,0.0,0.0,0.0,0.0,0.0,0.0,0.0,0.0,0.0,0.0,0.0,0.0,0.0,0.0,0.0,0.0,0.0,0.0,0.0,0.0,0.0,-2.1807,-2.1807,-2.1818,-2.2449,-2.2987,-2.3443,-2.3598,-2.3908,-2.4333,-2.4333,-2.4405,-2.454,-2.454,-2.454,-2.454,-2.454,-2.4912,-2.5471,-2.5771,-2.6258,-2.6837,-2.7148,-2.7262,-2.7262,-2.7262,-2.7262,-2.7081,-2.6592,-2.6089,-2.5734,-2.5712,-2.541,-2.5176,-2.5625,-2.5742,-2.5742,-2.5742,-2.5742,-2.5742,-2.5742,-2.5742,-2.5869,-2.6309,-2.6621,-2.6953,-2.7393,-2.7812,-2.8096,-2.8096,-2.8203,-2.8242,-2.8115,-2.6091,-2.4352,-2.3579,-2.2485,-2.1503,-2.0768,-2.1691,-2.1933,-2.1061,-2.078,-2.0399,-1.9579,-1.9484,-1.9433,-1.9433,-1.9433,-1.9477,-1.9579,-1.9806,-1.9916,-1.9916,-2.0135,-2.0237,-1.3782,0.0,0.0,0.0,0.0,0.0,0.0,0.0,0.0,0.0,0.0,0.0,0.0,0.0,0.0,0.0,0.0,0.0,0.0,0.0,0.0,0.0,0.0,0.0,0.0,0.0,0.0,0.0,0.0,0.0,0.0,0.0,0.0,0.0,0.0,0.0,0.0,-2.1807,-2.1807,-2.1807,-2.1807,-2.2056,-2.2511,-2.2977,-2.3432,-2.3877,-2.3877,-2.4136,-2.454,-2.454,-2.454,-2.454,-2.454,-2.5088,-2.5875,-2.5875,-2.6465,-2.7262,-2.7262,-2.7262,-2.7262,-2.7262,-2.7081,-2.6805,-2.6602,-2.5994,-2.5555,-2.5615,-2.542,-2.5176,-2.5625,-2.5742,-2.5742,-2.5742,-2.5742,-2.5742,-2.5742,-2.5742,-2.5869,-2.6309,-2.6387,-2.6523,-2.6943,-2.7373,-2.7656,-2.7666,-2.8018,-2.8135,-2.7715,-2.5928,-2.3706,-2.0974,-2.1393,-2.1826,-2.1826,-2.1826,-2.1818,-2.1826,-2.0768,-2.0237,-2.023,-1.993,-1.9769,-1.9762,-1.9769,-1.9923,-2.0237,-2.0237,-2.0237,-2.0237,-2.0245,-2.0245,-1.2733,0.0,0.0,0.0,0.0,0.0,0.0,0.0,0.0,0.0,0.0,0.0,0.0,0.0,0.0,0.0,0.0,0.0,0.0,0.0,0.0,0.0,0.0,0.0,0.0,0.0,0.0,0.0,0.0,0.0,0.0,0.0,0.0,0.0,0.0,0.0,0.0,0.0,-2.1807,-2.1807,-2.1807,-2.2056,-2.2501,-2.2635,-2.3132,-2.3877,-2.3877,-2.4136,-2.454,-2.454,-2.454,-2.454,-2.454,-2.5088,-2.5875,-2.5875,-2.6465,-2.7262,-2.7262,-2.7262,-2.7262,-2.7262,-2.7081,-2.6805,-2.6602,-2.6204,-2.5942,-2.5693,-2.5644,-2.5566,-2.5703,-2.5742,-2.5742,-2.5742,-2.5742,-2.5742,-2.5742,-2.5742,-2.5869,-2.6309,-2.6387,-2.6523,-2.6943,-2.7119,-2.7314,-2.7617,-2.751,-2.7139,-2.6558,-2.474,-2.3151,-2.2391,-2.1532,-2.11,-2.1339,-2.0928,-2.0861,-2.1324,-2.0597,-2.0135,-1.9916,-2.0025,-1.9989,-1.9769,-1.9981,-2.0142,-2.0237,-2.0464,-2.0574,-2.0589,-2.0808,-2.0918,0.0,0.0,0.0,0.0,0.0,0.0,0.0,0.0,0.0,0.0,0.0,0.0,0.0,0.0,0.0,0.0,0.0,0.0,0.0,0.0,0.0,0.0,0.0,0.0,0.0,0.0,0.0,0.0,0.0,0.0,0.0,0.0,0.0,0.0,0.0,0.0,0.0,0.0,0.0,-2.1807,-2.1807,-2.1952,-2.2221,-2.2221,-2.2625,-2.335,-2.3722,-2.4136,-2.454,-2.454,-2.454,-2.454,-2.454,-2.5088,-2.5875,-2.5875,-2.6465,-2.7262,-2.7262,-2.7262,-2.7262,-2.7262,-2.7071,-2.6699,-2.6506,-2.6207,-2.5917,-2.5732,-2.5742,-2.5742,-2.5742,-2.5742,-2.5742,-2.5742,-2.5742,-2.5742,-2.5742,-2.5742,-2.5869,-2.6309,-2.625,-2.6318,-2.6914,-2.6875,-2.6914,-2.7344,-2.6747,-2.6258,-2.6203,-2.415,-2.2823,-2.2966,-2.1692,-2.0998,-2.1196,-2.0728,-2.0655,-2.1181,-2.072,-2.0347,-2.015,-2.0201,-2.0208,-2.015,-2.0333,-2.0494,-2.0625,-2.0691,-2.072,-2.0728,-2.0925,-2.1013,0.0,0.0,0.0,0.0,0.0,0.0,0.0,0.0,0.0,0.0,0.0,0.0,0.0,0.0,0.0,0.0,0.0,0.0,0.0,0.0,0.0,0.0,0.0,0.0,0.0,0.0,0.0,0.0,0.0,0.0,0.0,0.0,0.0,0.0,0.0,0.0,0.0,0.0,0.0,0.0,-2.1787,-2.1807,-2.1807,-2.1807,-2.2056,-2.2542,-2.3432,-2.4074,-2.4478,-2.4478,-2.4509,-2.454,-2.454,-2.5068,-2.5823,-2.5865,-2.6434,-2.72,-2.7251,-2.7262,-2.7262,-2.7262,-2.6976,-2.6496,-2.6496,-2.612,-2.5742,-2.5742,-2.5742,-2.5742,-2.5742,-2.5742,-2.5742,-2.5742,-2.5742,-2.5742,-2.5742,-2.5742,-2.5859,-2.625,-2.6006,-2.5986,-2.6768,-2.6582,-2.6475,-2.6894,-2.5844,-2.54,-2.638,-2.3998,-2.2395,-2.2895,-2.1858,-2.1196,-2.1167,-2.0918,-2.0896,-2.1189,-2.0933,-2.0757,-2.072,-2.0464,-2.045,-2.072,-2.075,-2.0911,-2.1211,-2.0881,-2.072,-2.072,-2.0691,-2.0676,0.0,0.0,0.0,0.0,0.0,0.0,0.0,0.0,0.0,0.0,0.0,0.0,0.0,0.0,0.0,0.0,0.0,0.0,0.0,0.0,0.0,0.0,0.0,0.0,0.0,0.0,0.0,0.0,0.0,0.0,0.0,0.0,0.0,0.0,0.0,0.0,-2.1259,-2.1269,-2.1269,0.0,-2.1631,-2.1807,-2.1807,-2.1807,-2.2056,-2.2532,-2.3091,-2.3598,-2.4022,-2.4022,-2.4229,-2.454,-2.454,-2.4881,-2.5409,-2.5751,-2.6237,-2.6765,-2.7138,-2.7262,-2.7262,-2.7262,-2.6976,-2.6496,-2.6496,-2.612,-2.5742,-2.5742,-2.5742,-2.5742,-2.5742,-2.5742,-2.5742,-2.5742,-2.5742,-2.5742,-2.5742,-2.5742,-2.5762,-2.5859,-2.5801,-2.5791,-2.5986,-2.5937,-2.6025,-2.6465,-2.5277,-2.4764,-2.5925,-2.33,-2.1692,-2.2474,-2.1715,-2.1101,-2.0852,-2.0998,-2.1137,-2.1203,-2.1145,-2.0991,-2.0735,-2.0903,-2.0911,-2.0728,-2.0976,-2.1137,-2.1211,-2.0881,-2.072,-2.0713,-2.0457,-2.034,0.0,0.0,0.0,0.0,0.0,0.0,0.0,0.0,0.0,0.0,0.0,0.0,0.0,0.0,0.0,0.0,0.0,0.0,0.0,0.0,0.0,0.0,0.0,0.0,0.0,0.0,0.0,0.0,0.0,0.0,0.0,0.0,0.0,0.0,0.0,0.0,-2.0783,-2.1,-2.1114,-2.1124,-2.159,-2.1807,-2.1807,-2.1807,-2.2056,-2.2511,-2.2749,-2.3246,-2.3877,-2.3877,-2.4136,-2.454,-2.454,-2.483,-2.5254,-2.5482,-2.5989,-2.6599,-2.6848,-2.6931,-2.6962,-2.7189,-2.6832,-2.6215,-2.6436,-2.612,-2.5742,-2.5742,-2.5742,-2.5742,-2.5742,-2.5576,-2.542,-2.542,-2.5586,-2.5742,-2.5742,-2.5742,-2.5742,-2.5742,-2.5742,-2.5801,-2.6016,-2.6211,-2.6426,-2.665,-2.5204,-2.4511,-2.5718,-2.3102,-2.1586,-2.2609,-2.1768,-2.1137,-2.0969,-2.0969,-2.1042,-2.1203,-2.1064,-2.0969,-2.0955,-2.1123,-2.0984,-2.0501,-2.0962,-2.113,-2.0976,-2.0647,-2.0567,-2.0713,-2.0384,-2.0237,0.0,0.0,0.0,0.0,0.0,0.0,0.0,0.0,0.0,0.0,0.0,0.0,0.0,0.0,0.0,0.0,0.0,0.0,0.0,0.0,0.0,0.0,0.0,0.0,0.0,0.0,0.0,0.0,0.0,0.0,0.0,0.0,0.0,0.0,0.0,-2.0182,-2.042,-2.0648,-2.0876,-2.1124,-2.159,-2.1766,-2.1683,-2.1766,-2.2014,-2.2377,-2.2377,-2.2853,-2.365,-2.3732,-2.4022,-2.4436,-2.4509,-2.4778,-2.513,-2.5202,-2.5699,-2.6351,-2.6423,-2.6496,-2.663,-2.7013,-2.6658,-2.6013,-2.6386,-2.612,-2.5742,-2.5742,-2.5684,-2.5625,-2.5625,-2.5293,-2.4951,-2.4951,-2.5303,-2.5625,-2.5625,-2.5684,-2.5742,-2.5742,-2.5801,-2.5967,-2.6328,-2.6738,-2.6939,-2.6801,-2.527,-2.4421,-2.5263,-2.2919,-2.1517,-2.2453,-2.1729,-2.1189,-2.113,-2.0933,-2.0918,-2.1196,-2.0955,-2.0903,-2.1115,-2.1123,-2.0823,-2.0164,-2.0852,-2.105,-2.072,-2.045,-2.0428,-2.0633,-2.0362,-2.0237,0.0,0.0,0.0,0.0,0.0,0.0,0.0,0.0,0.0,0.0,0.0,0.0,0.0,0.0,0.0,0.0,0.0,0.0,0.0,0.0,0.0,0.0,0.0,0.0,0.0,0.0,0.0,0.0,0.0,0.0,0.0,0.0,-1.9375,-1.99,-1.9075,0.0,-2.041,-1.9706,-1.9934,-2.1124,-2.159,-2.16,-2.1217,-2.1621,-2.1838,-2.1901,-2.1901,-2.2201,-2.2708,-2.3111,-2.3546,-2.4002,-2.4385,-2.4581,-2.4674,-2.5078,-2.5306,-2.5461,-2.5844,-2.6237,-2.6579,-2.6641,-2.6513,-2.6416,-2.6476,-2.612,-2.5742,-2.5742,-2.5459,-2.5156,-2.5156,-2.4834,-2.4502,-2.4502,-2.4844,-2.5156,-2.5156,-2.5459,-2.5742,-2.5742,-2.6045,-2.6318,-2.6377,-2.6738,-2.6821,-2.6129,-2.4907,-2.3972,-2.3422,-2.207,-2.1101,-2.1033,-2.1156,-2.1094,-2.0808,-2.1006,-2.1167,-2.1203,-2.1167,-2.1035,-2.0794,-2.0786,-2.0486,-1.9835,-2.0742,-2.105,-2.072,-2.0676,-2.0537,-2.0303,-2.0259,-2.0237,0.0,0.0,0.0,0.0,0.0,0.0,0.0,0.0,0.0,0.0,0.0,0.0,0.0,0.0,0.0,0.0,0.0,0.0,0.0,0.0,0.0,0.0,0.0,0.0,0.0,0.0,0.0,0.0,0.0,0.0,0.0,-1.9075,-1.9158,-1.9432,-1.8723,0.0,-1.9272,-1.8889,-1.9251,-2.0369,-2.1073,-2.1311,-2.1135,-2.159,-2.1807,-2.1807,-2.1807,-2.2066,-2.2511,-2.2718,-2.3225,-2.3898,-2.4095,-2.4322,-2.4571,-2.4767,-2.5006,-2.5254,-2.5451,-2.5647,-2.5896,-2.6403,-2.6166,-2.5842,-2.6345,-2.612,-2.5742,-2.5742,-2.541,-2.5068,-2.5068,-2.457,-2.4121,-2.4365,-2.456,-2.4775,-2.501,-2.542,-2.5742,-2.5742,-2.5889,-2.6182,-2.665,-2.6894,-2.6953,-2.695,-2.5451,-2.4251,-2.3668,-2.2197,-2.1152,-2.1013,-2.1123,-2.1152,-2.1006,-2.113,-2.1211,-2.1211,-2.1211,-2.1145,-2.1006,-2.0823,-2.0676,-2.0574,-2.0815,-2.0772,-2.045,-2.0633,-2.0742,-2.0779,-2.0596,-2.0508,0.0,0.0,0.0,0.0,0.0,0.0,0.0,0.0,0.0,0.0,0.0,0.0,0.0,0.0,0.0,0.0,0.0,0.0,0.0,0.0,0.0,0.0,0.0,0.0,0.0,0.0,0.0,0.0,0.0,0.0,-1.8889,-1.9013,-1.9079,-1.8899,-1.8454,-1.8268,-1.8382,-1.8495,-1.8847,-1.9495,-2.0452,-2.0938,-2.0959,-2.1538,-2.1807,-2.1807,-2.1807,-2.2004,-2.2325,-2.2449,-2.2977,-2.3712,-2.3836,-2.4146,-2.454,-2.454,-2.4757,-2.5057,-2.5057,-2.5202,-2.5502,-2.6175,-2.5951,-2.5621,-2.6295,-2.612,-2.5742,-2.5742,-2.541,-2.5068,-2.5068,-2.4434,-2.3896,-2.4316,-2.4414,-2.457,-2.5117,-2.5508,-2.5742,-2.5742,-2.5908,-2.6269,-2.6904,-2.7197,-2.7234,-2.7007,-2.5648,-2.4404,-2.3483,-2.2045,-2.1181,-2.1094,-2.1086,-2.105,-2.0969,-2.1035,-2.105,-2.0969,-2.1115,-2.1211,-2.1211,-2.0896,-2.0874,-2.1203,-2.0969,-2.0684,-2.0362,-2.0603,-2.0852,-2.1086,-2.0918,-2.0845,0.0,0.0,0.0,0.0,0.0,0.0,0.0,0.0,0.0,0.0,0.0,0.0,0.0,0.0,0.0,0.0,0.0,0.0,0.0,0.0,0.0,0.0,0.0,0.0,0.0,0.0,0.0,0.0,0.0,0.0,-1.8413,-1.8837,-1.8868,-1.8433,-1.7988,-1.7968,-1.8371,-1.8816,-1.8837,-1.8464,-1.982,-2.0462,-2.0493,-2.1393,-2.1807,-2.1807,-2.1807,-2.1818,-2.188,-2.2315,-2.278,-2.3267,-2.3712,-2.4146,-2.454,-2.454,-2.456,-2.4581,-2.4581,-2.513,-2.5854,-2.5896,-2.6125,-2.6436,-2.6486,-2.612,-2.5742,-2.5742,-2.541,-2.5068,-2.5068,-2.4434,-2.3896,-2.4316,-2.4414,-2.4648,-2.5518,-2.5723,-2.5742,-2.5742,-2.6396,-2.6963,-2.7012,-2.7685,-2.7454,-2.5252,-2.482,-2.3838,-2.1631,-2.131,-2.1094,-2.0779,-2.075,-2.0625,-2.0311,-2.0567,-2.0618,-2.0303,-2.0867,-2.1211,-2.1211,-2.0896,-2.0874,-2.1203,-2.1196,-2.102,-2.0698,-2.0713,-2.0728,-2.0757,-2.105,-2.1181,0.0,0.0,0.0,0.0,0.0,0.0,0.0,0.0,0.0,0.0,0.0,0.0,0.0,0.0,0.0,0.0,0.0,0.0,0.0,0.0,0.0,0.0,0.0,0.0,0.0,0.0,0.0,0.0,0.0,0.0,-1.8361,-1.8537,-1.8547,-1.8382,-1.7957,-1.7522,-1.7098,-1.7543,-1.7688,-1.7543,-1.921,-1.9996,-2.0038,-2.1248,-2.1807,-2.1807,-2.1807,-2.1807,-2.1818,-2.1983,-2.2325,-2.276,-2.2925,-2.3453,-2.4115,-2.4115,-2.4291,-2.454,-2.454,-2.4747,-2.5032,-2.5519,-2.5656,-2.5648,-2.6124,-2.6014,-2.5742,-2.5742,-2.541,-2.5068,-2.5068,-2.4629,-2.4297,-2.4727,-2.5059,-2.5352,-2.5664,-2.5742,-2.582,-2.6103,-2.6406,-2.6787,-2.7334,-2.7685,-2.7429,-2.6036,-2.5177,-2.4181,-2.2539,-2.1653,-2.1167,-2.105,-2.0852,-2.0676,-2.0559,-2.0464,-2.0362,-2.0245,-2.0655,-2.0896,-2.0896,-2.0786,-2.0976,-2.1511,-2.1115,-2.0837,-2.072,-2.1145,-2.124,-2.1035,-2.1159,-2.1211,0.0,0.0,0.0,0.0,0.0,0.0,0.0,0.0,0.0,0.0,0.0,0.0,0.0,0.0,0.0,0.0,0.0,0.0,0.0,0.0,0.0,0.0,0.0,0.0,0.0,0.0,0.0,0.0,0.0,0.0,-1.7905,-1.8081,-1.8164,-1.8164,-1.7585,-1.6995,-1.6384,-1.6674,-1.6901,-1.6997,-1.8578,-1.9526,-1.9869,-2.1021,-2.1662,-2.1807,-2.1807,-2.1807,-2.1807,-2.1807,-2.2076,-2.2501,-2.2501,-2.306,-2.3877,-2.3877,-2.4157,-2.454,-2.454,-2.4643,-2.4805,-2.5298,-2.5452,-2.5428,-2.5968,-2.5917,-2.5742,-2.5742,-2.5527,-2.5293,-2.5293,-2.4971,-2.4707,-2.5,-2.5293,-2.5557,-2.5703,-2.5742,-2.5869,-2.6309,-2.6504,-2.6826,-2.7539,-2.7783,-2.7535,-2.6599,-2.5507,-2.4292,-2.3199,-2.1888,-2.1006,-2.0896,-2.0589,-2.0355,-2.0245,-2.0237,-2.0142,-1.993,-2.042,-2.072,-2.072,-2.072,-2.1079,-2.1847,-2.143,-2.1159,-2.105,-2.1489,-2.1642,-2.154,-2.154,-2.154,0.0,0.0,0.0,0.0,0.0,0.0,0.0,0.0,0.0,0.0,0.0,0.0,0.0,0.0,0.0,0.0,0.0,0.0,0.0,0.0,0.0,0.0,0.0,0.0,0.0,0.0,0.0,0.0,0.0,-1.6539,-1.6935,-1.7399,-1.7657,-1.7668,-1.685,-1.6384,-1.6384,-1.6384,-1.6601,-1.6997,-1.7947,-1.8868,-1.9858,-2.07,-2.1373,-2.1807,-2.1807,-2.1807,-2.1807,-2.1807,-2.2066,-2.248,-2.248,-2.3039,-2.3836,-2.3857,-2.4136,-2.4519,-2.454,-2.484,-2.5197,-2.539,-2.5645,-2.5799,-2.6058,-2.5917,-2.5742,-2.5742,-2.5742,-2.5742,-2.5742,-2.54,-2.5068,-2.5088,-2.5078,-2.5195,-2.5644,-2.5752,-2.5889,-2.6328,-2.6738,-2.7158,-2.7607,-2.8027,-2.7853,-2.6636,-2.5507,-2.4292,-2.3199,-2.1691,-2.0603,-2.0281,-1.9959,-1.963,-1.9316,-1.9857,-1.9945,-1.933,-2.0186,-2.0713,-2.072,-2.0728,-2.1196,-2.2162,-2.2184,-2.2037,-2.1737,-2.173,-2.1876,-2.2169,-2.2184,-2.2184,-1.363,0.0,0.0,0.0,0.0,0.0,0.0,0.0,0.0,0.0,0.0,0.0,0.0,0.0,0.0,0.0,0.0,0.0,0.0,0.0,0.0,0.0,0.0,0.0,0.0,0.0,0.0,0.0,0.0,-1.5722,-1.6519,-1.6984,-1.7327,-1.7657,-1.685,-1.6384,-1.6384,-1.6384,-1.6601,-1.6997,-1.7947,-1.8868,-1.9858,-2.07,-2.1373,-2.1807,-2.1807,-2.1807,-2.1807,-2.1807,-2.188,-2.1994,-2.1994,-2.2356,-2.2915,-2.3256,-2.367,-2.4105,-2.4426,-2.4623,-2.4774,-2.5098,-2.5249,-2.5398,-2.569,-2.5732,-2.5742,-2.5742,-2.5742,-2.5742,-2.5742,-2.54,-2.5146,-2.5478,-2.5303,-2.5195,-2.5644,-2.5986,-2.6328,-2.6758,-2.6934,-2.7246,-2.7988,-2.8213,-2.7853,-2.6636,-2.5507,-2.4292,-2.3199,-2.1691,-2.0684,-2.0596,-2.0091,-1.9725,-1.9638,-1.9572,-1.9564,-1.9623,-2.0098,-2.0479,-2.0713,-2.0947,-2.1423,-2.2169,-2.2184,-2.2359,-2.2718,-2.2484,-2.2176,-2.184,-2.2074,-2.2184,0.0,0.0,0.0,0.0,0.0,0.0,0.0,0.0,0.0,0.0,0.0,0.0,0.0,0.0,0.0,0.0,0.0,0.0,0.0,0.0,0.0,0.0,0.0,0.0,0.0,0.0,0.0,0.0,-1.4604,-1.5194,-1.6322,-1.6984,-1.7399,-1.7668,-1.7036,-1.657,-1.6384,-1.6384,-1.6508,-1.6777,-1.7678,-1.8589,-1.9567,-2.041,-2.1186,-2.1807,-2.1807,-2.1807,-2.1807,-2.1807,-2.1807,-2.1807,-2.1807,-2.2087,-2.2553,-2.3018,-2.3484,-2.395,-2.4385,-2.454,-2.4567,-2.4834,-2.5007,-2.5197,-2.5435,-2.5586,-2.5742,-2.5742,-2.5742,-2.5742,-2.5742,-2.5264,-2.4912,-2.5352,-2.5117,-2.4922,-2.5361,-2.5947,-2.6514,-2.6934,-2.7168,-2.75,-2.8174,-2.8291,-2.7853,-2.6636,-2.5507,-2.4233,-2.2991,-2.1478,-2.0472,-2.0333,-1.9864,-1.9616,-1.9755,-1.9711,-1.9755,-1.9945,-2.0259,-2.0523,-2.0713,-2.0903,-2.1379,-2.2169,-2.2184,-2.2491,-2.3106,-2.2915,-2.2637,-2.2293,-2.2476,-2.2571,0.0,0.0,0.0,0.0,0.0,0.0,-1.3411,-1.3764,-1.3883,0.0,0.0,0.0,0.0,0.0,0.0,0.0,0.0,0.0,0.0,0.0,0.0,0.0,0.0,0.0,0.0,0.0,0.0,-1.3652,-1.4097,-1.4966,-1.6312,-1.714,-1.7626,-1.7729,-1.7172,-1.6777,-1.6384,-1.6425,-1.6456,-1.6467,-1.7378,-1.8278,-1.9178,-2.0027,-2.0928,-2.1807,-2.1807,-2.1807,-2.1807,-2.1807,-2.1807,-2.1807,-2.1807,-2.2056,-2.248,-2.2946,-2.3401,-2.3867,-2.4312,-2.4498,-2.4526,-2.4717,-2.4946,-2.5087,-2.5288,-2.5533,-2.5674,-2.5723,-2.5742,-2.5742,-2.5742,-2.5078,-2.4531,-2.4961,-2.4736,-2.4531,-2.4971,-2.5801,-2.6572,-2.6943,-2.7373,-2.7803,-2.8223,-2.8184,-2.7736,-2.6636,-2.5397,-2.4038,-2.271,-2.1182,-2.0113,-1.9798,-1.9469,-1.9396,-1.9689,-1.9996,-2.0194,-2.023,-2.0545,-2.0742,-2.0772,-2.0779,-2.1218,-2.2162,-2.225,-2.2557,-2.3106,-2.3069,-2.3069,-2.3106,-2.3106,-2.3106,0.0,0.0,0.0,0.0,0.0,0.0,-1.2233,-1.256,-1.2783,0.0,0.0,0.0,0.0,0.0,0.0,0.0,0.0,0.0,0.0,0.0,0.0,0.0,0.0,0.0,0.0,0.0,-1.3714,-1.3621,-1.4386,-1.5308,-1.6322,-1.655,-1.6974,-1.7709,-1.6933,-1.6467,-1.6384,-1.6736,-1.6853,-1.6863,-1.7823,-1.8733,-1.9644,-2.0182,-2.0928,-2.1807,-2.1807,-2.1807,-2.1807,-2.1807,-2.1807,-2.1807,-2.1807,-2.1859,-2.1994,-2.2459,-2.2925,-2.3391,-2.3846,-2.424,-2.4526,-2.4717,-2.4743,-2.4696,-2.5198,-2.5307,-2.5273,-2.5635,-2.5742,-2.5742,-2.5742,-2.5078,-2.4531,-2.4961,-2.4736,-2.4531,-2.4971,-2.6025,-2.6914,-2.6992,-2.7373,-2.7803,-2.8223,-2.752,-2.6744,-2.6527,-2.4642,-2.3182,-2.2608,-2.1182,-2.0113,-1.9798,-1.9469,-1.9301,-1.9367,-1.9667,-1.9967,-2.0223,-2.0545,-2.0837,-2.1101,-2.1115,-2.1452,-2.2169,-2.2674,-2.2988,-2.3106,-2.2842,-2.2857,-2.3106,-2.3106,-2.3106,0.0,0.0,0.0,-1.1463,0.0,0.0,0.0,-1.1947,-1.2146,0.0,0.0,0.0,0.0,0.0,0.0,0.0,0.0,0.0,0.0,0.0,0.0,0.0,0.0,0.0,0.0,0.0,-1.3621,-1.3621,-1.4262,-1.5059,-1.598,-1.6467,-1.6922,-1.7317,-1.7378,-1.716,-1.6715,-1.716,-1.7327,-1.7337,-1.8299,-1.9085,-1.9858,-2.0462,-2.1145,-2.1807,-2.1807,-2.1807,-2.1807,-2.1807,-2.1807,-2.1807,-2.1807,-2.1807,-2.1859,-2.2325,-2.2791,-2.3256,-2.3712,-2.4167,-2.4495,-2.4461,-2.451,-2.4496,-2.4663,-2.4913,-2.5166,-2.5605,-2.5742,-2.5742,-2.5742,-2.5078,-2.4473,-2.4687,-2.4414,-2.4277,-2.4932,-2.5928,-2.6826,-2.7256,-2.7685,-2.8047,-2.8262,-2.7295,-2.63,-2.5735,-2.4078,-2.2568,-2.1509,-2.0654,-2.0113,-1.9798,-1.9616,-1.9645,-1.9974,-2.015,-2.0377,-2.0706,-2.0874,-2.1035,-2.1203,-2.1211,-2.1518,-2.2169,-2.2791,-2.3106,-2.3106,-2.2945,-2.2952,-2.3106,-2.3106,-2.3106,0.0,0.0,0.0,0.0,0.0,-1.1138,0.0,0.0,0.0,-1.1965,0.0,0.0,0.0,0.0,0.0,0.0,0.0,0.0,0.0,0.0,0.0,0.0,0.0,0.0,0.0,0.0,-1.3517,-1.361,-1.3962,-1.4614,-1.5639,-1.6384,-1.6842,-1.7111,-1.7792,-1.7823,-1.7121,-1.7626,-1.7812,-1.7688,-1.8733,-1.9396,-1.9858,-2.07,-2.1373,-2.1807,-2.1807,-2.1807,-2.1807,-2.1807,-2.1807,-2.1807,-2.1807,-2.1807,-2.1849,-2.2232,-2.2708,-2.3246,-2.3619,-2.4095,-2.4464,-2.4282,-2.4328,-2.4436,-2.4237,-2.4638,-2.5166,-2.5605,-2.5742,-2.5742,-2.5742,-2.5078,-2.4414,-2.4414,-2.4092,-2.4004,-2.4775,-2.5703,-2.6611,-2.7393,-2.7949,-2.8291,-2.8291,-2.7079,-2.5845,-2.4837,-2.3519,-2.2066,-2.042,-2.0296,-2.0186,-1.9806,-1.982,-2.004,-2.0501,-2.0647,-2.0808,-2.1013,-2.1137,-2.1211,-2.1211,-2.1328,-2.1672,-2.2257,-2.282,-2.3106,-2.3106,-2.3106,-2.3106,-2.3106,-2.3106,-2.3106,0.0,0.0,0.0,0.0,-1.1006,0.0,0.0,0.0,-1.1012,-1.1064,0.0,0.0,0.0,0.0,0.0,0.0,0.0,0.0,0.0,0.0,0.0,0.0,0.0,0.0,0.0,0.0,0.0,-1.3589,-1.3662,-1.4273,-1.5618,-1.5784,-1.6394,-1.7554,-1.7296,-1.7286,-1.7595,-1.8092,-1.8112,-1.775,-1.9054,-1.9775,-1.9858,-2.07,-2.1373,-2.1807,-2.1807,-2.1807,-2.1807,-2.1807,-2.1807,-2.1807,-2.1807,-2.1807,-2.1818,-2.1859,-2.2439,-2.3194,-2.3246,-2.3659,-2.4206,-2.4206,-2.4152,-2.4207,-2.432,-2.4687,-2.5166,-2.5605,-2.5742,-2.5742,-2.5742,-2.5078,-2.4414,-2.4414,-2.4092,-2.3916,-2.4394,-2.5488,-2.6523,-2.7002,-2.7744,-2.8291,-2.8291,-2.6391,-2.4837,-2.4718,-2.2862,-2.1082,-2.0318,-2.0486,-2.0435,-1.9828,-2.0018,-2.0098,-1.9894,-2.0391,-2.0611,-2.0362,-2.0889,-2.1211,-2.1211,-2.1767,-2.2228,-2.2564,-2.2923,-2.3106,-2.3106,-2.3106,-2.3106,-2.3106,-2.3106,-2.3106,0.0,0.0,0.0,0.0,0.0,0.0,0.0,0.0,-1.0891,0.0,0.0,0.0,0.0,0.0,0.0,0.0,0.0,0.0,0.0,0.0,0.0,0.0,0.0,0.0,0.0,0.0,0.0,0.0,0.0,-1.4107,-1.5225,-1.5546,-1.6198,-1.7234,-1.7647,-1.7916,-1.8102,-1.8557,-1.8692,-1.8526,-1.9624,-2.0151,-2.0182,-2.1104,-2.1621,-2.1807,-2.1807,-2.1807,-2.1807,-2.1807,-2.1807,-2.1807,-2.1807,-2.1807,-2.1807,-2.1807,-2.2387,-2.3184,-2.3184,-2.3618,-2.412,-2.3851,-2.371,-2.3624,-2.4209,-2.4375,-2.4521,-2.5469,-2.5547,-2.541,-2.5674,-2.5078,-2.4482,-2.4736,-2.4082,-2.3662,-2.459,-2.5439,-2.6211,-2.6885,-2.7705,-2.8291,-2.8291,-2.6282,-2.4727,-2.4727,-2.2749,-2.0976,-2.0318,-2.0523,-2.0545,-2.0084,-2.0325,-2.0464,-2.0333,-2.0742,-2.0867,-2.0537,-2.113,-2.1496,-2.1496,-2.2103,-2.2498,-2.2615,-2.2945,-2.3106,-2.3106,-2.3106,-2.3106,-2.3106,-2.3106,-2.3106,-1.1261,0.0,0.0,0.0,0.0,0.0,0.0,0.0,0.0,0.0,0.0,0.0,0.0,0.0,0.0,0.0,0.0,0.0,0.0,0.0,0.0,0.0,0.0,0.0,0.0,0.0,0.0,0.0,-1.3424,0.0,-1.4759,-1.5245,-1.598,-1.6956,-1.7802,-1.8319,-1.8568,-1.8899,-1.9075,-1.9085,-1.9996,-2.042,-2.0452,-2.1383,-2.1807,-2.1807,-2.1807,-2.1807,-2.1807,-2.1807,-2.1807,-2.1807,-2.1807,-2.1807,-2.1807,-2.1807,-2.2387,-2.3184,-2.3184,-2.3618,-2.4024,-2.3503,-2.3232,-2.3281,-2.4014,-2.4033,-2.4033,-2.5225,-2.5322,-2.5176,-2.5625,-2.5078,-2.4492,-2.4814,-2.3994,-2.3496,-2.4785,-2.542,-2.6025,-2.7002,-2.7793,-2.8291,-2.8291,-2.6617,-2.5058,-2.4727,-2.2974,-2.1331,-2.0442,-2.0655,-2.0728,-2.0398,-2.0662,-2.0786,-2.0603,-2.0969,-2.1145,-2.0998,-2.135,-2.1679,-2.1942,-2.2381,-2.2659,-2.2754,-2.2988,-2.3106,-2.3106,-2.3106,-2.3106,-2.3106,-2.3106,-2.3106,0.0,0.0,0.0,0.0,0.0,0.0,0.0,0.0,-1.0891,0.0,0.0,0.0,0.0,0.0,0.0,0.0,0.0,0.0,0.0,0.0,0.0,0.0,0.0,0.0,0.0,0.0,0.0,0.0,-1.2903,0.0,-1.4283,-1.4769,-1.5639,-1.6935,-1.7441,-1.8175,-1.9044,-1.9065,-1.9075,-1.9085,-1.9996,-2.042,-2.0452,-2.1383,-2.1807,-2.1807,-2.1807,-2.1807,-2.1807,-2.1807,-2.1807,-2.1807,-2.1807,-2.1807,-2.1807,-2.1807,-2.2387,-2.3184,-2.3184,-2.3441,-2.3754,-2.3232,-2.3144,-2.3223,-2.3672,-2.3799,-2.3965,-2.4844,-2.5078,-2.5176,-2.5625,-2.5078,-2.4424,-2.4434,-2.3769,-2.3496,-2.4785,-2.542,-2.6113,-2.7393,-2.7998,-2.8291,-2.8291,-2.7295,-2.6073,-2.4837,-2.3743,-2.2406,-2.0854,-2.0991,-2.1072,-2.0742,-2.0998,-2.094,-2.0303,-2.0837,-2.1342,-2.165,-2.1386,-2.1635,-2.255,-2.2608,-2.2769,-2.3091,-2.3106,-2.3106,-2.3106,-2.3106,-2.3106,-2.3106,-2.3106,-2.3106,0.0,0.0,-1.2285,-1.154,0.0,0.0,0.0,0.0,0.0,0.0,0.0,0.0,0.0,0.0,0.0,0.0,0.0,0.0,0.0,0.0,0.0,0.0,0.0,0.0,0.0,0.0,0.0,-1.2872,-1.3207,-1.3786,0.0,-1.4914,-1.5773,-1.7389,-1.7595,-1.8164,-1.9065,-1.8764,-1.8764,-1.9075,-1.9696,-2.0141,-2.0452,-2.1383,-2.1807,-2.1807,-2.1807,-2.1807,-2.1807,-2.1807,-2.1807,-2.1807,-2.1807,-2.1807,-2.1807,-2.1807,-2.2387,-2.3267,-2.3533,-2.3685,-2.3754,-2.3222,-2.3135,-2.3223,-2.3662,-2.3584,-2.3594,-2.4746,-2.4863,-2.4805,-2.5547,-2.5078,-2.4492,-2.4775,-2.3975,-2.3408,-2.4414,-2.5215,-2.5957,-2.668,-2.7617,-2.8291,-2.8291,-2.7295,-2.6073,-2.4837,-2.3079,-2.1451,-2.0464,-2.0874,-2.1006,-2.0457,-2.0889,-2.1035,-2.0596,-2.0757,-2.1028,-2.1357,-2.1679,-2.2081,-2.2601,-2.2828,-2.2996,-2.3106,-2.3106,-2.3106,-2.3106,-2.3106,-2.3106,-2.3106,-2.3106,-2.3106,-1.2004,-1.2298,0.0,0.0,-1.1963,0.0,0.0,0.0,0.0,0.0,0.0,0.0,0.0,0.0,0.0,0.0,0.0,0.0,0.0,0.0,0.0,0.0,0.0,0.0,0.0,0.0,-1.2586,-1.2906,-1.3196,-1.3776,0.0,0.0,-1.5763,-1.7368,-1.7585,-1.8081,-1.8816,-1.8526,-1.8526,-1.8837,-1.9526,-1.9996,-2.0452,-2.1383,-2.1807,-2.1807,-2.1807,-2.1807,-2.1807,-2.1807,-2.1807,-2.1807,-2.1807,-2.1807,-2.1807,-2.1807,-2.2309,-2.3145,-2.3624,-2.3754,-2.3667,-2.3232,-2.3135,-2.3193,-2.3467,-2.3359,-2.334,-2.4336,-2.4512,-2.458,-2.5312,-2.4961,-2.4492,-2.4775,-2.3965,-2.3369,-2.4228,-2.5107,-2.5908,-2.6494,-2.7519,-2.8291,-2.8291,-2.6961,-2.5626,-2.4837,-2.3079,-2.1496,-2.0633,-2.0852,-2.0918,-2.0611,-2.0859,-2.0998,-2.0903,-2.0684,-2.0837,-2.1511,-2.184,-2.225,-2.2776,-2.2996,-2.3164,-2.3281,-2.3171,-2.3164,-2.3281,-2.3164,-2.3106,-2.3106,-2.3106,-2.3106]}]]